[[{"header":{"parameterUnit":"m.s-1","parameterCategory":1,"la1":30.6,"la2":28.766,"lo1":-90.7593,"lo2":-88.6598,"dy":0.0162,"dx":0.0183,"nx":116,"ny":114,"refTime":"2023-09-14T18:00:00:Z","depth":0,"parameterNumber":2,"parameterNumberName":"U-component_of_WINDS"},"data":[0.0,0.0,0.0,0.0,0.0,0.0,0.0,0.0,0.0,0.0,0.0,0.0,0.0,0.0,0.0,0.0,0.0,0.0,0.0,0.0,0.0,0.0,0.0,0.0,0.0,0.0,0.0,0.0,0.0,0.0,0.0,0.0,0.0,0.0,0.0,0.0,0.0,0.0,0.0,0.0,0.0,0.0,0.0,0.0,0.0,0.0,0.0,0.0,0.0,0.0,0.0,0.0,0.0,0.0,0.0,0.0,0.0,0.0,0.0,0.0,0.0,0.0,0.0,0.0,0.0,0.0,0.0,0.0,0.0,0.0,0.0,0.0,0.0,0.0,0.0,0.0,0.0,0.0,0.0,0.0,0.0,0.0,0.0,0.0,0.0,0.0,0.0,0.0,0.0,0.0,0.0,0.0,0.0,0.0,0.0,0.0,0.0,0.0,0.0,0.0,0.0,0.0,0.0,0.0,0.0,0.0,0.0,0.0,0.0,0.0,0.0,0.0,0.0,0.0,0.0,0.0,0.0,0.0,0.0,0.0,0.0,0.0,0.0,0.0,0.0,0.0,0.0,0.0,0.0,0.0,0.0,0.0,0.0,0.0,0.0,0.0,0.0,0.0,0.0,0.0,0.0,0.0,0.0,0.0,0.0,0.0,0.0,0.0,0.0,0.0,0.0,0.0,0.0,0.0,0.0,0.0,0.0,0.0,0.0,0.0,0.0,0.0,0.0,0.0,0.0,0.0,0.0,0.0,0.0,0.0,0.0,0.0,0.0,0.0,0.0,0.0,0.0,0.0,0.0,0.0,0.0,0.0,0.0,0.0,0.0,0.0,0.0,0.0,0.0,0.0,0.0,0.0,0.0,0.0,0.0,0.0,0.0,0.0,0.0,0.0,0.0,0.0,0.0,0.0,0.0,0.0,0.0,0.0,0.0,0.0,0.0,0.0,0.0,0.0,0.0,0.0,0.0,0.0,0.0,0.0,0.0,0.0,0.0,0.0,0.0,0.0,0.0,0.0,0.0,0.0,0.0,0.0,0.0,0.0,0.0,0.0,0.0,0.0,0.0,0.0,0.0,0.0,0.0,0.0,0.0,0.0,0.0,0.0,0.0,0.0,0.0,0.0,0.0,0.0,0.0,0.0,0.0,0.0,0.0,0.0,0.0,0.0,0.0,0.0,0.0,0.0,0.0,0.0,0.0,0.0,0.0,0.0,0.0,0.0,0.0,0.0,0.0,0.0,0.0,0.0,0.0,0.0,0.0,0.0,0.0,0.0,0.0,0.0,0.0,0.0,0.0,0.0,0.0,0.0,0.0,0.0,0.0,0.0,0.0,0.0,0.0,0.0,0.0,0.0,0.0,0.0,0.0,0.0,0.0,0.0,0.0,0.0,0.0,0.0,0.0,0.0,0.0,0.0,0.0,0.0,0.0,0.0,0.0,0.0,0.0,0.0,0.0,0.0,0.0,0.0,0.0,0.0,0.0,0.0,0.0,0.0,0.0,0.0,0.0,0.0,0.0,0.0,0.0,0.0,0.0,0.0,0.0,0.0,0.0,0.0,0.0,0.0,0.0,0.0,0.0,0.0,0.0,0.0,0.0,0.0,0.0,0.0,0.0,0.0,0.0,0.0,0.0,0.0,0.0,0.0,0.0,0.0,0.0,0.0,0.0,0.0,0.0,0.0,0.0,0.0,0.0,0.0,0.0,0.0,0.0,0.0,0.0,0.0,0.0,0.0,0.0,0.0,0.0,0.0,0.0,0.0,0.0,0.0,0.0,0.0,0.0,0.0,0.0,0.0,0.0,0.0,0.0,0.0,0.0,0.0,0.0,0.0,0.0,0.0,0.0,0.0,0.0,0.0,0.0,0.0,0.0,0.0,0.0,0.0,0.0,0.0,0.0,0.0,0.0,0.0,0.0,0.0,0.0,0.0,0.0,0.0,0.0,0.0,0.0,0.0,0.0,0.0,0.0,0.0,0.0,0.0,0.0,0.0,0.0,0.0,0.0,0.0,0.0,0.0,0.0,0.0,0.0,0.0,0.0,0.0,0.0,0.0,0.0,0.0,0.0,0.0,0.0,0.0,0.0,0.0,0.0,0.0,0.0,0.0,0.0,0.0,0.0,0.0,0.0,0.0,0.0,0.0,0.0,0.0,0.0,0.0,0.0,0.0,0.0,0.0,0.0,0.0,0.0,0.0,0.0,0.0,0.0,0.0,0.0,0.0,0.0,0.0,0.0,0.0,0.0,0.0,0.0,0.0,0.0,0.0,0.0,0.0,0.0,0.0,0.0,0.0,0.0,0.0,0.0,0.0,0.0,0.0,0.0,0.0,0.0,0.0,0.0,0.0,0.0,0.0,0.0,0.0,0.0,0.0,0.0,0.0,0.0,0.0,0.0,0.0,0.0,0.0,0.0,0.0,0.0,0.0,0.0,0.0,0.0,0.0,0.0,0.0,0.0,0.0,0.0,0.0,0.0,0.0,0.0,0.0,0.0,0.0,0.0,0.0,0.0,0.0,0.0,0.0,0.0,0.0,0.0,0.0,0.0,0.0,0.0,0.0,0.0,0.0,0.0,0.0,0.0,0.0,0.0,0.0,0.0,0.0,0.0,0.0,0.0,0.0,0.0,0.0,0.0,0.0,0.0,0.0,0.0,0.0,0.0,0.0,0.0,0.0,0.0,0.0,0.0,0.0,0.0,0.0,0.0,0.0,0.0,0.0,0.0,0.0,0.0,0.0,0.0,0.0,0.0,0.0,0.0,0.0,0.0,0.0,0.0,0.0,0.0,0.0,0.0,0.0,0.0,0.0,0.0,0.0,0.0,0.0,0.0,0.0,0.0,0.0,0.0,0.0,0.0,0.0,0.0,0.0,0.0,0.0,0.0,0.0,0.0,0.0,0.0,0.0,0.0,0.0,0.0,0.0,0.0,0.0,0.0,0.0,0.0,0.0,0.0,0.0,0.0,0.0,0.0,0.0,0.0,0.0,0.0,0.0,0.0,0.0,0.0,0.0,0.0,0.0,0.0,0.0,0.0,0.0,0.0,0.0,0.0,0.0,0.0,0.0,0.0,0.0,0.0,0.0,0.0,0.0,0.0,0.0,0.0,0.0,0.0,0.0,0.0,0.0,0.0,0.0,0.0,0.0,0.0,0.0,0.0,0.0,0.0,0.0,0.0,0.0,0.0,0.0,0.0,0.0,0.0,0.0,0.0,0.0,0.0,0.0,0.0,0.0,0.0,0.0,0.0,0.0,0.0,0.0,0.0,0.0,0.0,0.0,0.0,0.0,0.0,0.0,0.0,0.0,0.0,0.0,0.0,0.0,0.0,0.0,0.0,0.0,0.0,0.0,0.0,0.0,0.0,0.0,0.0,0.0,0.0,0.0,0.0,0.0,0.0,0.0,0.0,0.0,0.0,0.0,0.0,0.0,0.0,0.0,0.0,0.0,0.0,0.0,0.0,0.0,0.0,0.0,0.0,0.0,0.0,0.0,0.0,0.0,0.0,0.0,0.0,0.0,0.0,0.0,0.0,0.0,0.0,0.0,0.0,0.0,0.0,0.0,0.0,0.0,0.0,0.0,0.0,0.0,0.0,0.0,0.0,0.0,0.0,0.0,0.0,0.0,0.0,0.0,0.0,0.0,0.0,0.0,0.0,0.0,0.0,0.0,0.0,0.0,0.0,0.0,0.0,0.0,0.0,0.0,0.0,0.0,0.0,0.0,0.0,0.0,0.0,0.0,0.0,0.0,0.0,0.0,0.0,0.0,0.0,0.0,0.0,0.0,0.0,0.0,0.0,0.0,0.0,0.0,0.0,0.0,0.0,0.0,0.0,0.0,0.0,0.0,0.0,0.0,0.0,0.0,0.0,0.0,0.0,0.0,0.0,0.0,0.0,0.0,0.0,0.0,0.0,0.0,0.0,0.0,0.0,0.0,0.0,0.0,0.0,0.0,0.0,0.0,0.0,0.0,0.0,0.0,0.0,0.0,0.0,0.0,0.0,0.0,0.0,0.0,0.0,0.0,0.0,0.0,0.0,0.0,0.0,0.0,0.0,0.0,0.0,0.0,0.0,0.0,0.0,0.0,0.0,0.0,0.0,0.0,0.0,0.0,0.0,0.0,0.0,0.0,0.0,0.0,0.0,0.0,0.0,0.0,0.0,0.0,0.0,0.0,0.0,0.0,0.0,0.0,0.0,0.0,0.0,0.0,0.0,0.0,0.0,0.0,0.0,0.0,0.0,0.0,0.0,0.0,0.0,0.0,0.0,0.0,0.0,0.0,0.0,0.0,0.0,0.0,0.0,0.0,0.0,0.0,0.0,0.0,0.0,0.0,0.0,0.0,0.0,0.0,0.0,0.0,0.0,0.0,0.0,0.0,0.0,0.0,0.0,0.0,0.0,0.0,0.0,0.0,0.0,0.0,0.0,0.0,0.0,0.0,0.0,0.0,0.0,0.0,0.0,0.0,0.0,0.0,0.0,0.0,0.0,0.0,0.0,0.0,0.0,0.0,0.0,0.0,0.0,0.0,0.0,0.0,0.0,0.0,0.0,0.0,0.0,0.0,0.0,0.0,0.0,0.0,0.0,0.0,0.0,0.0,0.0,0.0,0.0,0.0,0.0,0.0,0.0,0.0,0.0,0.0,0.0,0.0,0.0,0.0,0.0,0.0,0.0,0.0,0.0,0.0,0.0,0.0,0.0,0.0,0.0,0.0,0.0,0.0,0.0,0.0,0.0,0.0,0.0,0.0,0.0,0.0,0.0,0.0,0.0,0.0,0.0,0.0,0.0,0.0,0.0,0.0,0.0,0.0,0.0,0.0,0.0,0.0,0.0,0.0,0.0,0.0,0.0,0.0,0.0,0.0,0.0,0.0,0.0,0.0,0.0,0.0,0.0,0.0,0.0,0.0,0.0,0.0,0.0,0.0,0.0,0.0,0.0,0.0,0.0,0.0,0.0,0.0,0.0,0.0,0.0,0.0,0.0,0.0,0.0,0.0,0.0,0.0,0.0,0.0,0.0,0.0,0.0,0.0,0.0,0.0,0.0,0.0,0.0,0.0,0.0,0.0,0.0,0.0,0.0,0.0,0.0,0.0,0.0,0.0,0.0,0.0,0.0,0.0,0.0,0.0,0.0,0.0,0.0,0.0,0.0,0.0,0.0,0.0,0.0,0.0,0.0,0.0,0.0,0.0,0.0,0.0,0.0,0.0,0.0,0.0,0.0,0.0,0.0,0.0,0.0,0.0,0.0,0.0,0.0,0.0,0.0,0.0,0.0,0.0,0.0,0.0,0.0,0.0,0.0,0.0,0.0,0.0,0.0,0.0,0.0,0.0,0.0,0.0,0.0,0.0,0.0,0.0,0.0,0.0,0.0,0.0,0.0,0.0,0.0,0.0,0.0,0.0,0.0,0.0,0.0,0.0,0.0,0.0,0.0,0.0,0.0,0.0,0.0,0.0,0.0,0.0,0.0,0.0,0.0,0.0,0.0,0.0,0.0,0.0,0.0,0.0,0.0,0.0,0.0,0.0,0.0,0.0,0.0,0.0,0.0,0.0,0.0,0.0,0.0,0.0,0.0,0.0,0.0,0.0,0.0,0.0,0.0,0.0,0.0,0.0,0.0,0.0,0.0,0.0,0.0,0.0,0.0,0.0,0.0,0.0,0.0,0.0,0.0,0.0,0.0,0.0,0.0,0.0,0.0,0.0,0.0,0.0,0.0,0.0,0.0,0.0,0.0,0.0,0.0,0.0,0.0,0.0,0.0,0.0,0.0,0.0,0.0,0.0,0.0,0.0,0.0,0.0,0.0,0.0,0.0,0.0,0.0,0.0,0.0,0.0,0.0,0.0,0.0,0.0,0.0,0.0,0.0,0.0,0.0,0.0,0.0,0.0,0.0,0.0,0.0,0.0,0.0,0.0,0.0,0.0,0.0,0.0,0.0,0.0,0.0,0.0,0.0,0.0,0.0,0.0,0.0,0.0,0.0,0.0,0.0,0.0,0.0,0.0,0.0,0.0,0.0,0.0,0.0,0.0,0.0,0.0,0.0,0.0,0.0,0.0,0.0,0.0,0.0,0.0,0.0,0.0,0.0,0.0,0.0,0.0,0.0,0.0,0.0,0.0,1.6689,0.0,0.0,0.0,0.0,0.0,0.0,0.0,0.0,0.0,0.0,0.0,0.0,0.0,0.0,0.0,0.0,0.0,0.0,0.0,0.0,0.0,0.0,0.0,0.0,0.0,0.0,0.0,0.0,0.0,0.0,0.0,0.0,0.0,0.0,0.0,0.0,0.0,0.0,0.0,1.3297,1.3331,1.3484,1.3148,1.3241,1.3681,0.0,0.0,0.0,0.0,0.0,0.0,0.0,0.0,0.0,0.0,0.0,0.0,0.0,0.0,0.0,0.0,0.0,0.0,0.0,0.0,0.0,0.0,0.0,0.0,0.0,0.0,0.0,0.0,0.0,0.0,0.0,0.0,0.0,0.0,0.0,0.0,0.0,0.0,0.0,0.0,0.0,0.0,0.0,0.0,0.0,0.0,0.0,0.0,0.0,0.0,0.0,0.0,0.0,0.0,0.0,0.0,0.0,0.0,0.0,0.0,0.0,0.0,0.0,0.0,0.0,0.0,0.0,0.0,0.0,0.0,0.0,1.6689,0.0,0.0,0.0,0.0,0.0,0.0,0.0,0.0,0.0,0.0,0.0,0.0,0.0,0.0,0.0,0.0,0.0,0.0,0.0,0.0,0.0,0.0,0.0,0.0,0.0,0.0,0.0,0.0,0.0,0.0,0.0,0.0,0.0,0.0,0.0,0.0,0.0,1.3761,1.359,1.3492,1.3492,1.3492,1.3674,1.4003,1.4029,0.0,0.0,0.0,0.0,0.0,0.0,0.0,0.0,0.0,0.0,0.0,0.0,0.0,0.0,0.0,0.0,0.0,0.0,0.0,0.0,0.0,0.0,0.0,0.0,0.0,0.0,0.0,0.0,0.0,0.0,0.0,0.0,0.0,0.0,0.0,0.0,0.0,0.0,0.0,0.0,0.0,0.0,0.0,0.0,0.0,0.0,0.0,0.0,0.0,0.0,0.0,0.0,0.0,0.0,0.0,0.0,0.0,0.0,0.0,0.0,0.0,0.0,0.0,1.7244,1.7387,1.7395,1.7665,1.7793,1.7761,1.7159,1.6892,1.6892,0.0,0.0,0.0,0.0,0.0,0.0,0.0,0.0,0.0,0.0,0.0,0.0,0.0,0.0,0.0,0.0,0.0,0.0,0.0,0.0,0.0,0.0,0.0,0.0,0.0,0.0,0.0,0.0,0.0,0.0,0.0,0.0,0.0,0.0,1.3488,1.3517,1.3535,1.3517,1.3492,1.3492,1.3492,1.3535,1.3583,1.3754,1.3844,1.3899,0.0,0.0,0.0,0.0,0.0,0.0,0.0,0.0,0.0,0.0,0.0,0.0,0.0,0.0,0.0,0.0,0.0,0.0,0.0,0.0,0.0,0.0,0.0,0.0,0.0,0.0,0.0,0.0,0.0,0.0,0.0,0.0,0.0,0.0,0.0,0.0,0.0,0.0,0.0,0.0,0.0,1.6744,1.6792,0.0,0.0,0.0,0.0,0.0,0.0,0.0,0.0,0.0,0.0,0.0,0.0,0.0,1.7228,1.7228,1.7514,1.7657,1.7657,1.7705,1.7721,1.7729,1.7777,1.7793,1.7785,1.7697,0.0,1.7657,1.7657,0.0,0.0,0.0,0.0,0.0,0.0,0.0,0.0,0.0,0.0,0.0,0.0,0.0,0.0,0.0,0.0,0.0,0.0,0.0,0.0,0.0,0.0,0.0,0.0,0.0,0.0,0.0,0.0,0.0,0.0,0.0,0.0,1.3663,1.3554,1.3492,1.3492,1.3492,1.3492,1.3499,1.3682,1.3788,1.3796,1.408,1.4048,1.3816,1.3899,0.0,0.0,0.0,0.0,0.0,0.0,0.0,0.0,0.0,0.0,0.0,0.0,0.0,0.0,0.0,0.0,0.0,0.0,0.0,0.0,0.0,0.0,0.0,0.0,0.0,0.0,0.0,0.0,0.0,0.0,0.0,0.0,0.0,0.0,0.0,0.0,0.0,0.0,0.0,1.6689,1.6689,1.6689,1.6689,1.6689,0.0,0.0,0.0,0.0,0.0,0.0,0.0,0.0,0.0,1.731,1.749,1.7578,1.7578,1.792,1.8087,1.8095,1.8501,1.8691,1.8699,1.8882,1.897,1.897,1.897,1.897,1.8929,1.8141,1.7912,1.8079,0.0,0.0,0.0,0.0,0.0,1.8168,0.0,0.0,0.0,0.0,0.0,0.0,0.0,0.0,0.0,0.0,0.0,0.0,0.0,0.0,0.0,1.2987,0.0,0.0,0.0,0.0,0.0,0.0,0.0,1.3717,1.3717,1.359,1.3536,1.3623,1.3623,1.366,1.3766,1.4015,1.4125,1.4133,1.4401,1.4316,1.397,1.397,1.397,1.397,0.0,0.0,0.0,0.0,0.0,0.0,0.0,0.0,0.0,0.0,0.0,0.0,0.0,0.0,0.0,0.0,0.0,0.0,0.0,0.0,0.0,0.0,0.0,0.0,0.0,0.0,0.0,0.0,0.0,0.0,0.0,0.0,0.0,0.0,0.0,0.0,0.0,1.6689,1.6689,1.6689,1.6689,1.6689,0.0,0.0,0.0,0.0,0.0,0.0,1.7411,1.7427,1.7578,1.792,1.8015,1.8111,1.8206,1.8548,1.87,1.8731,1.9264,1.9519,1.9535,1.9805,1.9892,1.9892,1.9892,1.9868,1.9716,1.8732,1.8485,1.8692,1.8605,1.8732,1.8947,1.8947,1.8947,1.8978,0.0,0.0,0.0,0.0,0.0,0.0,0.0,0.0,0.0,0.0,0.0,0.0,0.0,0.0,1.2977,1.3009,1.3294,1.3495,0.0,0.0,0.0,1.3535,1.351,1.351,1.351,1.3517,1.3664,1.3979,1.3979,1.4133,1.446,1.4474,1.4462,1.4482,1.4477,1.4489,1.446,1.446,1.446,1.446,1.446,0.0,0.0,0.0,0.0,0.0,0.0,0.0,0.0,0.0,0.0,0.0,0.0,0.0,0.0,0.0,0.0,0.0,0.0,0.0,0.0,0.0,0.0,0.0,0.0,0.0,0.0,0.0,0.0,0.0,0.0,0.0,0.0,0.0,0.0,0.0,0.0,0.0,0.0,1.6689,1.6689,0.0,0.0,0.0,0.0,1.7276,1.7562,1.7745,1.7769,1.7769,1.7928,1.8255,1.8574,1.8915,1.9312,1.9646,1.9805,1.9805,1.9845,1.9861,1.9893,1.9877,1.9892,1.9892,1.9892,1.9771,1.9527,1.9716,1.9797,1.9805,1.9463,1.9352,1.9367,1.9367,1.9367,1.9415,0.0,0.0,0.0,0.0,0.0,0.0,0.0,0.0,0.0,0.0,0.0,0.0,0.0,1.325,1.3323,1.3323,1.3426,1.3492,1.3492,0.0,0.0,1.3492,1.3492,1.3594,1.3825,1.3825,1.3986,1.4316,1.4316,1.4374,1.4492,1.4677,1.4752,1.4759,1.4971,1.5087,1.5037,1.4667,1.4511,1.4511,1.4511,1.4531,0.0,0.0,0.0,0.0,0.0,0.0,0.0,0.0,0.0,0.0,0.0,0.0,0.0,0.0,0.0,0.0,0.0,0.0,0.0,0.0,0.0,0.0,0.0,0.0,0.0,0.0,0.0,0.0,0.0,0.0,0.0,0.0,0.0,0.0,0.0,0.0,0.0,1.6689,1.6924,0.0,1.7088,1.7419,1.7618,1.7618,1.7936,1.8208,1.8438,1.8699,1.8978,1.932,1.9455,1.9582,1.9717,2.0051,2.0135,1.997,2.0392,2.0526,2.0372,2.0563,2.0664,2.069,2.0846,2.0872,2.082,2.1133,2.0737,1.9946,1.9836,2.0022,2.0369,2.0369,2.0369,2.0384,0.0,0.0,0.0,0.0,0.0,0.0,0.0,0.0,0.0,0.0,0.0,1.3258,1.347,1.3492,1.3492,1.3492,1.3492,1.3492,1.3492,0.0,0.0,1.3653,1.3781,1.3942,1.4162,1.4162,1.4323,1.4626,1.4626,1.4684,1.4814,1.4993,1.5061,1.5075,1.5287,1.541,1.538,1.497,1.4794,1.4794,1.4794,1.4794,1.4794,0.0,0.0,0.0,0.0,0.0,0.0,0.0,0.0,0.0,0.0,0.0,0.0,0.0,0.0,0.0,0.0,0.0,0.0,0.0,0.0,0.0,0.0,0.0,0.0,0.0,0.0,0.0,0.0,0.0,0.0,0.0,0.0,0.0,0.0,0.0,1.6892,1.6892,1.7231,1.7467,1.7467,1.788,1.8151,1.8151,1.8497,1.8838,1.9138,1.9241,1.9476,1.9912,1.9964,2.0032,2.0142,2.0462,2.0591,2.0514,2.0849,2.0986,2.0899,2.1048,2.1093,2.1101,2.1283,2.1302,2.1194,2.1445,2.0996,2.023,2.0539,2.0861,2.111,2.1214,2.1188,2.111,0.0,0.0,0.0,0.0,0.0,0.0,0.0,0.0,0.0,0.0,1.3072,1.3492,1.3492,1.3492,1.3492,1.3492,1.3492,1.3492,1.3492,1.3506,0.0,1.4001,1.4335,1.4492,1.4506,1.4506,1.464,1.4922,1.4922,1.5082,1.541,1.541,1.541,1.541,1.541,1.541,1.541,1.541,1.541,1.541,1.541,1.541,1.541,0.0,0.0,0.0,0.0,0.0,0.0,0.0,0.0,0.0,0.0,0.0,0.0,0.0,0.0,0.0,0.0,0.0,0.0,0.0,0.0,0.0,0.0,0.0,0.0,0.0,0.0,0.0,0.0,0.0,0.0,0.0,0.0,0.0,1.6797,1.7072,1.7315,1.7315,1.7618,1.7824,1.7824,1.8446,1.8836,1.8836,1.9256,1.9616,1.9884,1.9427,1.9416,1.9998,2.0092,2.0292,2.0605,2.0933,2.1229,2.1464,2.1209,2.1217,2.148,2.1232,2.1104,2.1104,2.1097,2.0934,2.0634,2.0634,2.0634,2.0743,2.1615,2.1769,2.1518,2.185,2.1769,2.1491,0.0,0.0,0.0,0.0,0.0,0.0,0.0,0.0,0.0,0.0,1.3072,1.3492,1.3492,1.3492,1.3492,1.3492,1.3492,1.3492,1.3492,0.0,0.0,1.4357,1.446,1.4594,1.4789,1.4789,1.4949,1.525,1.525,1.5322,1.541,1.541,1.541,1.541,1.541,1.541,1.541,1.541,1.541,1.541,1.541,1.541,1.541,0.0,0.0,0.0,0.0,0.0,0.0,0.0,0.0,0.0,0.0,0.0,0.0,0.0,0.0,0.0,0.0,0.0,0.0,0.0,0.0,0.0,0.0,0.0,0.0,0.0,0.0,0.0,0.0,0.0,0.0,0.0,0.0,1.7618,1.7501,1.7594,1.7657,1.7657,1.8168,1.8541,1.8541,1.9169,1.9606,1.9606,1.9758,1.9884,1.9984,2.0123,2.0275,2.0419,2.0704,2.0872,2.0956,2.1048,2.1012,2.0849,2.1016,2.1053,2.0922,2.1111,2.1166,2.1194,2.142,2.1476,2.142,2.1609,2.1693,2.1668,2.1456,2.1283,2.1229,2.1518,2.1572,2.1491,0.0,0.0,0.0,0.0,0.0,0.0,0.0,0.0,0.0,0.0,1.3072,1.3492,1.3492,1.3492,1.3492,1.3492,1.3492,1.355,1.3708,0.0,1.4465,1.4655,1.4714,1.4814,1.4974,1.4872,1.4965,1.5277,1.5277,1.5326,1.541,1.541,1.5462,1.5614,1.5614,1.568,1.5818,1.5818,1.5731,1.5614,1.5614,1.5534,1.541,1.541,1.5444,1.5541,1.5658,1.5782,1.5906,1.6175,0.0,0.0,0.0,0.0,0.0,0.0,0.0,0.0,0.0,0.0,0.0,0.0,0.0,0.0,0.0,0.0,0.0,0.0,0.0,0.0,0.0,0.0,0.0,0.0,1.7965,1.807,1.8121,1.8086,1.8059,1.8059,1.8674,1.9052,1.8941,1.9547,1.9956,1.9981,2.0056,2.0181,2.0449,2.0431,2.0482,2.0589,2.0805,2.0931,2.0931,2.1065,2.1105,2.1057,2.1111,2.1123,2.113,2.118,2.1211,0.0,2.1411,2.1497,2.1497,2.166,2.1717,0.0,0.0,0.0,0.0,0.0,2.1844,2.1962,0.0,0.0,0.0,0.0,0.0,0.0,0.0,0.0,0.0,0.0,0.0,1.3455,1.3492,1.3492,1.3492,1.3492,1.3528,1.3704,0.0,0.0,1.4915,1.4911,1.5043,1.511,1.511,1.4845,1.4824,1.5041,1.5041,1.5152,1.5319,1.5363,1.5551,1.5878,1.5893,1.6097,1.6389,1.6389,1.6235,1.5943,1.5928,1.5702,1.541,1.541,1.5506,1.5671,1.5671,1.5831,1.6025,1.6046,0.0,0.0,0.0,0.0,0.0,0.0,0.0,0.0,0.0,0.0,0.0,0.0,0.0,0.0,0.0,0.0,0.0,0.0,0.0,0.0,0.0,0.0,0.0,0.0,1.8264,1.8519,1.8637,1.8564,1.8481,1.8466,1.9079,1.9418,1.918,1.9716,2.0096,2.0147,2.0212,2.0486,2.1024,0.0,0.0,0.0,0.0,2.0751,2.0751,2.1064,2.1354,2.1639,2.1354,2.1354,2.1639,2.1325,2.1211,2.1211,2.1211,2.1211,2.1211,2.1211,2.1211,2.1239,2.1803,2.1888,2.1725,2.1917,2.2201,0.0,0.0,0.0,0.0,0.0,0.0,0.0,0.0,0.0,0.0,1.2456,1.2845,1.3206,1.347,1.3492,1.3492,1.3492,1.3752,1.4078,0.0,1.4754,1.4956,1.5052,1.5095,1.511,1.511,1.4845,1.4734,1.4783,1.4783,1.4803,1.4831,1.5106,1.539,1.5662,1.5871,1.6147,1.6389,1.6389,1.636,1.6287,1.6016,1.5702,1.541,1.541,1.5423,1.5465,1.5465,1.5486,1.5555,1.572,1.5955,1.6183,1.6353,1.6538,0.0,0.0,0.0,0.0,0.0,0.0,0.0,0.0,0.0,0.0,0.0,0.0,0.0,0.0,0.0,0.0,0.0,0.0,0.0,1.8409,1.8754,1.8982,1.8995,1.9022,1.9028,1.8958,1.9336,1.9556,1.9514,2.0099,2.0474,2.049,2.0516,2.0564,2.0679,2.0645,0.0,2.0681,2.0968,2.1087,2.1087,2.1181,2.1239,2.1296,0.0,0.0,2.1296,2.1239,2.1211,2.1211,2.1211,2.1211,2.1211,2.1211,2.1211,2.1211,2.1325,2.1525,2.1668,2.1432,2.1582,2.1867,0.0,0.0,0.0,0.0,0.0,0.0,0.0,0.0,0.0,0.0,1.2787,1.3133,1.3455,1.3492,1.3492,1.3492,1.3964,0.0,1.4433,1.4801,1.4959,1.4908,1.4803,1.4741,1.4741,1.4517,1.4447,1.4545,1.4545,1.4608,1.4699,1.5034,1.5352,1.5674,1.606,1.6424,1.6705,1.6804,1.6777,1.6631,1.6294,1.5957,1.5636,1.5468,1.541,1.541,1.541,1.541,1.5431,1.552,1.5707,1.5914,1.6023,1.6216,1.6389,0.0,0.0,0.0,0.0,0.0,0.0,0.0,0.0,0.0,0.0,0.0,0.0,0.0,0.0,1.8103,0.0,0.0,1.8572,1.8626,1.8935,1.9097,1.8972,1.913,1.9237,1.9159,1.9592,1.985,1.9721,2.0261,2.0622,2.0659,2.0659,2.0711,2.0901,2.093,2.0941,2.0941,2.1123,2.1211,2.1211,2.1211,2.1211,2.1211,2.1211,2.1211,2.1211,2.1211,2.1211,2.1211,2.1211,2.1211,2.1211,2.1211,2.1211,2.1211,2.1211,2.1296,2.1439,2.1439,2.1554,2.1725,0.0,0.0,0.0,0.0,0.0,0.0,0.0,0.0,0.0,0.0,1.2692,1.3038,1.3367,1.3455,1.355,0.0,0.0,1.4428,1.4451,1.4815,1.4936,1.4713,1.4503,1.4398,1.4398,1.4201,1.4187,1.4335,1.4335,1.4419,1.458,1.4906,1.5248,1.5572,1.617,1.6597,1.6917,1.7194,1.715,1.6873,1.6521,1.6206,1.5855,1.5534,1.541,1.541,1.541,1.541,1.541,1.541,1.552,1.5692,1.5692,1.5931,1.6207,1.6207,1.6232,0.0,0.0,0.0,0.0,0.0,0.0,0.0,0.0,1.7989,1.821,1.8489,1.8578,1.8709,1.8982,1.9032,1.8978,1.8763,1.8999,1.9179,1.9023,1.9232,1.9398,1.939,1.9837,2.007,1.9903,2.0325,2.0656,2.0698,2.0751,2.0904,2.1196,2.1211,2.1211,2.1211,2.1211,2.1211,2.1211,2.1211,2.1211,2.1211,2.1211,2.1211,2.1211,2.1211,2.1211,2.1211,2.1211,2.1211,2.1211,2.1211,2.1211,2.1211,2.1211,2.1211,2.1239,2.1497,2.1611,2.1639,0.0,0.0,0.0,0.0,0.0,0.0,0.0,0.0,0.0,0.0,0.0,0.0,0.0,0.0,0.0,0.0,1.4238,1.4395,1.4976,1.4845,1.4734,1.4692,1.4503,1.4398,1.4398,1.4201,1.4109,1.4124,1.4124,1.4145,1.4173,1.4447,1.4725,1.5012,1.5793,1.6308,1.6594,1.7092,1.715,1.6873,1.6521,1.6206,1.5855,1.5534,1.541,1.541,1.541,1.541,1.541,1.541,1.552,1.5692,1.5692,1.6097,1.6545,1.6545,1.6708,1.69,1.6974,1.699,1.7063,1.7378,1.7702,1.798,0.0,1.8484,1.899,1.9004,1.8854,1.8695,1.8733,1.8797,1.8813,1.8788,1.906,1.9375,1.9642,1.9715,1.9825,2.0067,1.994,1.9925,2.013,2.0479,2.0684,2.0692,2.0991,2.1174,2.1211,2.1211,2.1211,2.1211,2.1211,2.1211,2.1211,2.1211,2.1211,2.1211,2.1211,2.1211,2.1211,2.1211,2.1211,2.1211,2.1211,2.1211,2.1211,2.1211,2.1211,2.1211,2.1211,2.1211,2.1211,2.1239,2.1268,2.1268,0.0,0.0,0.0,0.0,0.0,0.0,0.0,0.0,0.0,0.0,0.0,0.0,0.0,0.0,0.0,1.4048,1.4,1.4083,1.4482,1.451,1.4461,1.4349,1.4265,1.4222,1.4222,1.4145,1.4109,1.4109,1.4109,1.4109,1.4116,1.4361,1.4653,1.4927,1.5575,1.5996,1.6235,1.6605,1.6719,1.6587,1.6228,1.6133,1.6148,1.5812,1.5818,1.595,1.5753,1.5695,0.0,1.5913,1.6037,1.6115,1.6115,1.6276,1.6482,1.6482,1.6557,1.6728,1.7034,1.7531,1.7964,1.808,1.8363,1.865,1.865,1.875,1.8916,1.9122,1.8935,1.8826,1.9018,1.9063,1.9159,0.0,1.9496,1.9701,1.9996,2.004,2.0157,2.0451,2.0398,2.0377,2.0481,2.0787,2.0977,2.0977,2.113,2.1211,2.1211,2.1211,2.1211,2.1211,2.1211,2.1211,2.1211,2.1211,2.1211,2.1211,2.1211,2.1211,2.1211,2.1211,2.1211,2.1211,2.1211,2.1211,2.1211,2.1211,2.1211,2.1211,2.1211,2.1211,2.1211,2.1211,2.1211,2.1211,0.0,0.0,0.0,0.0,0.0,0.0,0.0,0.0,0.0,0.0,0.0,0.0,0.0,0.0,0.0,1.3746,1.3748,1.3848,1.4136,1.4259,1.4279,1.4187,1.4124,1.4109,1.4109,1.4109,1.4109,1.4109,1.4109,1.4109,1.4088,1.4302,1.4489,1.471,1.5296,1.5649,1.581,1.622,1.6389,1.6367,1.6133,1.617,1.6367,1.6126,1.6199,1.636,1.6118,1.6038,1.6074,1.6316,1.6389,1.6389,1.6389,1.6448,1.6551,1.6551,1.6653,1.6911,1.745,1.8054,1.8542,1.8615,1.8816,1.9016,1.9016,1.8942,1.8926,1.9175,1.9074,1.9019,1.9261,1.9378,1.951,1.9752,1.9862,2.0003,2.0298,2.0342,2.0466,2.0795,2.0831,2.0831,2.0831,2.1072,2.1211,2.1211,2.1211,2.1211,2.1211,2.1211,2.1211,2.1211,2.1211,2.1211,2.1211,2.1211,2.1211,2.1211,2.1211,2.1211,2.1211,2.1211,2.1211,2.1218,2.1306,2.1342,2.135,2.1445,2.1481,2.1481,2.1481,2.1481,2.1481,2.1481,2.1364,2.1211,0.0,0.0,0.0,0.0,0.0,0.0,0.0,0.0,0.0,0.0,0.0,0.0,0.0,0.0,1.3347,1.3677,1.3584,1.3731,1.4258,1.4171,1.4187,1.4377,1.4201,1.4109,1.4109,1.4109,1.4109,1.4109,1.4109,1.4109,1.4109,1.4116,1.4123,1.4157,1.4891,1.5217,1.5281,1.606,1.6389,1.6389,1.6382,1.6382,1.6389,1.6382,1.6382,1.6389,1.6404,1.6374,1.6404,1.6411,1.6389,1.6389,1.6389,1.6609,1.6881,1.6881,1.7305,1.7893,1.8483,1.8481,1.8365,1.8627,1.874,1.88,1.88,1.9041,1.9276,1.9283,1.9283,1.929,1.9305,1.9561,1.9781,1.9789,2.0018,2.0305,2.0634,2.0678,2.0802,2.1131,2.1196,2.1196,0.0,2.1175,2.1211,2.1211,2.1211,2.1211,2.1211,2.1211,2.1211,2.1211,2.1211,2.1211,2.1211,2.1211,2.1211,2.1211,2.1211,2.1211,2.1211,2.1211,2.1211,2.1225,2.154,2.1679,2.1708,2.2023,2.2154,2.2154,2.2154,2.2154,2.2154,2.2154,2.1752,2.1211,0.0,0.0,0.0,0.0,0.0,0.0,0.0,0.0,0.0,0.0,0.0,0.0,0.0,0.0,0.0,0.0,1.3101,1.3263,1.3811,1.3796,1.3895,1.4195,1.4152,1.4109,1.4109,1.4109,1.4109,1.4109,1.4109,1.4109,1.4109,1.4109,1.4166,1.4307,1.4571,1.4831,1.5141,1.5418,1.561,1.5767,1.5979,1.6206,1.6411,1.6653,1.6843,1.7004,0.0,1.6872,1.6771,1.693,1.7004,1.7004,1.7004,1.7084,1.7208,1.7428,1.7801,1.8191,1.8375,1.8534,1.8653,1.8728,1.8946,1.9137,1.9137,1.9224,1.9305,1.9305,1.9474,1.9627,1.9627,1.9857,2.015,2.0369,2.0459,2.0649,2.097,2.1021,2.1058,2.1196,2.1211,0.0,0.0,0.0,0.0,2.1211,2.1211,2.1211,2.1211,2.1211,2.1211,2.1211,2.1211,2.1211,2.1211,2.1211,2.1211,2.1211,2.1211,2.1211,2.1218,2.143,2.1533,2.1547,2.1876,2.2023,2.203,2.214,2.2214,2.2214,2.2214,2.2214,2.2214,2.2214,2.2045,2.1854,0.0,0.0,0.0,0.0,0.0,0.0,0.0,0.0,0.0,0.0,0.0,0.0,0.0,0.0,0.0,0.0,0.0,1.2951,1.33,1.3487,1.3707,1.39,1.4035,1.4109,1.4109,1.4109,1.4109,1.4109,1.4109,1.4109,1.4109,1.4109,1.4166,1.43,1.444,1.4678,1.4978,1.5152,1.5408,1.5782,1.5994,1.633,1.6755,1.6968,1.715,0.0,1.7302,1.7201,1.7078,1.7236,1.7302,1.7302,1.7302,1.7382,1.7565,1.8011,1.8313,1.8503,1.8621,1.8803,1.899,1.899,1.9144,1.9305,1.9305,1.9305,1.9334,1.9452,1.9642,1.9825,1.9942,2.0166,2.0451,2.0663,2.0795,2.0941,2.1181,2.1211,2.1211,2.1211,2.1211,2.1211,0.0,0.0,0.0,2.1211,2.1211,2.1211,2.1211,2.1211,2.1211,2.1211,2.1211,2.1211,2.1211,2.1211,2.1211,2.1211,2.1328,2.1386,2.1393,2.1723,2.1869,2.1891,2.2206,2.2337,2.2352,2.2462,2.2513,2.2513,2.2513,2.2513,2.2513,2.2513,2.2513,2.2484,0.0,0.0,0.0,0.0,0.0,0.0,0.0,0.0,0.0,0.0,0.0,0.0,0.0,0.0,0.0,0.0,0.0,0.0,1.2803,1.328,1.3573,1.36,1.3894,1.4075,1.4109,1.4109,1.4109,1.4109,1.4109,1.4109,1.4109,1.4109,1.4109,1.413,1.451,1.4692,1.4734,1.5194,1.5753,1.6345,1.636,1.6718,1.7258,1.7273,1.7288,1.7302,1.7302,1.7302,1.7302,1.7302,1.7302,1.7309,1.7324,1.7551,1.7938,1.8606,1.8803,1.8909,1.9217,1.9305,1.9305,1.9305,1.9305,1.9305,1.9305,1.9305,1.9393,1.9723,1.9803,1.9913,2.0174,2.0502,2.0722,2.0722,2.0977,2.1211,2.1211,2.1211,2.1211,0.0,0.0,0.0,0.0,0.0,0.0,2.1211,0.0,2.1211,2.1211,2.1211,2.1211,2.1211,2.1211,2.1211,2.1211,2.1211,2.1218,2.124,2.1547,2.1708,2.173,2.2059,2.2206,2.2258,2.252,2.2614,2.2643,2.2981,2.3106,2.3106,2.3106,2.3106,2.3106,2.3106,2.3106,2.3025,0.0,0.0,0.0,0.0,0.0,0.0,0.0,0.0,0.0,0.0,0.0,0.0,0.0,0.0,0.0,0.0,0.0,0.0,1.2789,1.2931,1.3173,1.3586,1.3673,1.384,1.4082,1.4109,1.4109,1.4109,1.4109,1.4109,1.4109,1.4109,1.4109,1.4109,1.4363,1.4566,1.4713,1.5041,1.5351,1.5673,1.5935,1.6265,1.666,1.6909,1.7121,1.7302,1.7302,1.7302,1.7302,1.7302,1.7302,1.7346,1.7594,1.7894,1.8255,1.8664,1.8983,1.9195,1.9276,1.9305,1.9305,1.9305,1.9305,1.9305,1.9305,1.9305,1.9393,1.9723,1.9952,2.0188,2.051,2.0839,2.1086,2.1086,2.1131,0.0,2.1211,2.1211,0.0,2.1211,0.0,2.1211,2.1211,2.1211,0.0,0.0,2.1211,2.1211,2.1211,2.1211,2.1211,2.1211,2.1211,2.1211,2.1211,2.1211,2.1335,2.1576,2.1657,2.1825,2.2067,2.2374,2.2513,2.2528,2.2842,2.2981,2.2988,2.3076,2.3106,2.3106,2.3106,2.3106,2.3106,2.3106,2.3106,2.3084,0.0,0.0,0.0,0.0,0.0,0.0,0.0,0.0,0.0,0.0,0.0,0.0,0.0,0.0,0.0,0.0,0.0,0.0,0.0,1.2729,1.2938,1.3233,1.346,1.368,1.3888,1.4021,1.4109,1.4109,1.4109,1.4109,1.4109,1.4109,1.4109,1.4109,1.4405,1.4587,1.4713,1.5082,1.5385,0.0,0.0,1.6096,1.6448,1.6778,1.699,1.7135,1.7251,1.7302,1.7302,1.7302,1.7397,1.758,1.7901,1.8255,1.8577,1.8931,1.9159,1.9305,1.9305,1.9305,1.9305,1.9305,1.9305,1.9342,1.9488,1.9518,1.9605,1.9901,2.0086,2.0312,2.0634,2.0846,2.1042,2.1189,2.1211,2.1211,2.1211,2.1211,2.1146,0.0,2.0996,0.0,2.0996,2.0996,2.1024,0.0,2.1211,2.1211,2.1211,2.1211,2.1211,2.1211,2.1211,2.1211,2.1211,2.135,2.1511,2.1701,2.1972,2.2198,2.2389,2.2665,2.2804,2.2842,0.0,2.3106,2.3106,2.3106,2.3106,2.3106,2.3106,2.3106,2.3106,2.3106,2.3106,2.3106,0.0,0.0,0.0,0.0,0.0,0.0,0.0,0.0,0.0,0.0,0.0,0.0,0.0,0.0,0.0,0.0,0.0,0.0,0.0,0.0,0.0,1.2803,1.3247,1.352,1.36,1.3874,1.4069,1.4109,1.4109,1.4109,1.4109,1.4109,1.4109,1.413,1.4489,1.4671,1.4734,1.5173,1.5549,1.5826,1.5826,1.6038,1.636,0.0,0.0,1.6947,1.7193,1.7302,1.7302,1.7302,1.7521,1.785,1.8196,1.8525,1.888,1.9202,1.9305,1.9305,1.9305,1.9305,1.9305,1.9305,1.9305,1.9378,1.9657,1.9723,1.9818,2.0079,2.0144,2.0261,2.0627,2.0692,2.0802,2.1159,2.1211,2.1211,2.1211,2.1153,2.1024,2.0716,2.0666,2.0666,2.0666,2.0666,2.078,2.106,2.1089,2.1089,2.1117,2.1182,2.1211,2.1211,2.1211,2.1233,2.1276,2.1554,2.1737,2.1825,2.2367,2.2614,2.2665,2.2981,2.3106,2.3106,0.0,0.0,2.3106,2.3106,2.3106,2.3106,2.3106,2.3106,2.3106,2.3106,2.3106,2.3106,0.0,0.0,0.0,0.0,0.0,0.0,0.0,0.0,0.0,0.0,0.0,0.0,0.0,0.0,0.0,0.0,0.0,0.0,0.0,0.0,0.0,0.0,1.2884,1.3153,1.3593,1.3653,1.382,1.4109,1.4109,1.4109,1.4109,1.4109,1.4109,1.4109,1.4342,1.4545,1.4713,1.502,1.5272,1.549,1.549,1.5687,1.598,0.0,0.0,0.0,1.7193,1.7302,1.7302,1.7302,1.7521,1.785,1.8196,1.8525,1.888,1.9202,1.9305,1.9305,1.9305,1.9305,1.9305,1.9305,1.9305,1.932,1.9371,1.9386,1.9481,1.9803,1.9869,2.0052,2.059,2.0692,2.0802,2.1159,2.1211,2.1211,2.1211,2.0967,2.078,2.0716,2.0493,2.0357,2.0357,2.0357,0.0,0.0,0.0,2.0558,2.078,2.1053,2.1211,2.1211,2.1211,2.1342,2.1613,2.1672,2.1957,2.2462,2.2541,2.2762,2.3025,2.3084,2.3106,2.3106,2.3106,0.0,2.3106,2.3106,2.3106,2.3106,2.3106,2.3106,2.3106,2.3106,2.3106,2.3106,0.0,0.0,0.0,0.0,0.0,0.0,0.0,0.0,0.0,0.0,1.1591,0.0,0.0,0.0,0.0,0.0,0.0,0.0,0.0,0.0,0.0,0.0,0.0,0.0,1.3193,1.3313,1.354,1.3834,0.0,1.3935,1.4109,1.4201,1.4265,1.4265,1.4615,1.4824,1.4908,1.5152,1.5305,1.541,1.541,1.5505,0.0,0.0,0.0,0.0,1.7193,1.7302,1.7302,1.7302,1.7521,1.785,1.8196,1.8642,1.91,1.9254,1.9305,1.9305,1.9305,1.9305,1.9305,1.9305,1.9305,1.9349,1.9518,1.9554,1.9598,1.9759,1.9789,1.9884,2.0164,2.0355,2.0546,2.0903,2.0951,2.0931,2.0931,2.0673,2.0436,2.0234,2.0126,2.004,2.004,2.004,2.0104,2.0306,0.0,2.0357,2.0465,2.0644,2.0744,2.0744,2.0881,2.109,2.1437,2.1803,2.2176,2.2592,2.2791,2.2928,2.3106,2.3106,2.3106,2.3106,2.3106,0.0,2.3106,2.3106,2.3106,2.3106,2.3106,2.3106,2.3106,2.3106,2.3106,2.3106,0.0,0.0,0.0,0.0,0.0,0.0,0.0,1.1466,1.142,1.1576,1.1591,1.1558,1.1459,1.1664,0.0,0.0,0.0,0.0,0.0,0.0,0.0,0.0,0.0,0.0,0.0,0.0,0.0,1.3507,1.3573,0.0,0.0,0.0,0.0,0.0,1.4824,1.5041,1.511,1.5277,1.5368,0.0,0.0,1.541,0.0,0.0,0.0,0.0,0.0,1.7302,1.7302,1.7302,1.7521,1.786,1.8116,1.8599,1.9107,1.9173,1.9195,1.921,1.9283,1.9305,1.9305,1.9305,1.9305,1.9371,1.9627,1.9686,1.9686,1.9686,1.9686,1.9681,1.9694,1.9917,2.0203,2.0466,2.0579,2.0601,2.0601,2.0385,2.0097,1.9844,1.9758,0.0,1.97,1.97,0.0,2.0104,0.0,0.0,2.0299,2.0241,2.0241,2.0299,2.0557,2.0915,2.1289,2.1894,2.2365,2.2694,2.2957,2.3106,2.3106,2.3106,2.3106,2.3106,2.3106,0.0,0.0,2.3106,2.3106,2.3106,2.3106,2.3106,2.3106,2.3106,2.3106,2.3106,0.0,0.0,0.0,0.0,0.0,0.0,0.0,1.1021,1.0832,1.1513,1.1591,1.1686,1.1914,1.1859,0.0,0.0,0.0,0.0,0.0,0.0,0.0,0.0,0.0,0.0,0.0,0.0,0.0,1.3233,1.3473,0.0,0.0,0.0,0.0,0.0,0.0,1.4866,1.511,1.5131,0.0,0.0,0.0,0.0,0.0,0.0,0.0,0.0,0.0,1.7302,1.7302,1.7302,1.7521,1.7823,1.7852,1.8101,1.8445,1.8752,1.8858,1.8899,1.9224,1.9305,1.9305,1.9305,1.9305,1.9312,1.9342,1.9349,1.9349,1.9349,1.9349,1.9358,1.9364,1.9619,1.9852,1.9871,2.0153,2.0328,2.0328,2.004,1.9844,1.9815,1.9591,0.0,1.9453,1.9453,1.9453,0.0,0.0,0.0,2.027,2.0018,1.9989,2.0299,2.0572,2.1008,2.1655,2.197,2.244,2.3062,2.3091,2.3106,2.3106,2.3106,2.3106,2.3106,2.3106,0.0,0.0,2.3106,2.3106,2.3106,2.3106,2.3106,2.3106,2.3106,2.3106,2.3106,0.0,0.0,0.0,0.0,0.0,0.0,0.0,1.1068,1.1327,1.1784,1.1845,1.1954,1.2275,1.2436,0.0,0.0,0.0,0.0,0.0,0.0,0.0,0.0,0.0,0.0,0.0,0.0,1.2777,1.2952,1.3066,0.0,0.0,0.0,0.0,0.0,0.0,1.5187,1.5277,1.5277,0.0,0.0,0.0,0.0,0.0,0.0,0.0,0.0,0.0,0.0,1.7302,1.7302,1.739,1.7499,1.7499,1.7587,1.7792,1.8343,1.8774,1.9093,1.9027,1.9151,1.9305,1.9305,1.9305,1.9305,1.9305,1.9305,1.9305,1.9305,1.9305,1.9237,1.9086,1.9286,1.9512,1.9542,1.9682,1.981,1.999,1.9764,1.9562,1.9562,1.9453,1.9395,0.0,0.0,1.9395,0.0,0.0,0.0,1.9735,1.962,1.962,1.9764,2.0227,2.0671,2.1097,2.1549,2.2143,2.2793,2.2793,2.2887,2.3106,2.3106,2.3106,2.3106,2.3106,0.0,0.0,2.3106,2.3106,2.3106,2.3106,2.3106,2.3106,2.3106,2.3106,2.3106,0.0,0.0,0.0,0.0,0.0,0.0,1.0575,1.093,1.1377,1.2056,1.2142,1.229,1.2611,1.2852,1.2904,1.2653,0.0,0.0,0.0,0.0,0.0,0.0,0.0,0.0,0.0,0.0,0.0,1.2656,1.2851,1.3115,0.0,0.0,1.45,1.4691,0.0,0.0,0.0,0.0,0.0,0.0,0.0,0.0,0.0,0.0,0.0,0.0,0.0,0.0,0.0,0.0,0.0,1.7302,1.7302,1.7368,1.7536,1.8021,1.8555,1.8957,1.8851,1.903,1.9305,1.9305,1.9305,1.9305,1.9305,1.9305,1.9305,1.9305,1.9305,1.9201,1.881,1.8987,1.9158,1.9146,1.92,1.936,1.9637,1.9511,1.9395,1.9395,0.0,1.9395,0.0,1.9395,1.9395,0.0,0.0,0.0,0.0,1.9395,1.9395,1.9395,1.9969,2.041,2.0711,2.131,2.1956,2.2606,2.2606,2.2769,2.3106,2.3106,2.3106,2.3106,0.0,0.0,0.0,2.3106,2.3106,2.3106,2.3106,2.3106,2.3106,2.3106,2.3106,2.3106,0.0,0.0,0.0,0.0,0.0,0.0,0.0,1.0435,1.061,1.2282,1.2485,1.2619,1.2965,1.3001,1.3052,1.3182,0.0,0.0,0.0,0.0,0.0,0.0,0.0,0.0,0.0,0.0,0.0,1.2305,1.2975,1.3203,1.3026,1.4098,1.4597,1.4611,0.0,0.0,0.0,0.0,0.0,0.0,0.0,0.0,0.0,0.0,0.0,0.0,0.0,0.0,0.0,0.0,0.0,0.0,0.0,1.7529,1.7808,1.7792,1.8057,1.8379,1.8701,1.903,1.9305,1.9305,1.9305,1.9305,1.9305,1.9305,1.9305,1.9305,1.9305,1.9116,1.8527,1.8681,1.8834,1.8547,1.8731,1.9025,1.9354,1.9395,1.9395,1.9395,1.9395,1.9395,1.9395,1.9395,0.0,0.0,0.0,0.0,0.0,1.9395,1.9395,1.9395,1.9927,2.0348,2.0711,2.1307,2.1954,2.2606,2.2606,2.2769,2.3106,2.3106,2.3106,0.0,0.0,0.0,0.0,2.3106,2.3106,2.3106,2.3106,2.3106,2.3106,2.3106,2.3106,2.3106,0.0,0.0,0.0,0.0,0.0,0.0,0.0,1.0727,1.1366,1.2673,1.2838,1.2962,1.3309,1.3338,1.3364,1.3393,0.0,0.0,0.0,0.0,0.0,0.0,0.0,0.0,0.0,0.0,0.0,1.2507,1.2862,1.3125,1.3358,1.4018,1.4544,1.4967,1.5255,1.541,0.0,0.0,0.0,0.0,0.0,0.0,0.0,0.0,0.0,0.0,0.0,0.0,0.0,0.0,0.0,0.0,0.0,0.0,0.0,1.7456,1.8028,1.8606,1.8489,1.8855,1.9305,1.9305,1.9305,1.9305,1.9305,1.9305,1.9305,1.9305,1.9149,1.8888,1.8475,1.8348,1.8331,1.8493,1.8564,1.8798,1.9328,1.9395,1.9395,1.9395,1.9395,1.9395,0.0,0.0,0.0,0.0,0.0,0.0,0.0,1.9395,1.9395,1.9395,1.9927,2.0264,2.0355,2.0971,2.1488,2.1922,2.1922,2.208,2.2418,2.2418,0.0,0.0,0.0,0.0,0.0,2.2519,2.2543,2.2769,2.2769,2.2887,2.3106,2.3106,2.3106,2.3106,0.0,0.0,0.0,0.0,0.0,0.0,0.0,1.1101,1.1952,1.3059,1.3192,1.3265,1.3477,1.3492,1.3492,1.3492,0.0,0.0,0.0,0.0,0.0,0.0,0.0,0.0,0.0,0.0,1.3119,1.2709,1.2991,1.329,1.3591,1.4087,1.4563,1.5042,1.5289,0.0,0.0,0.0,0.0,0.0,0.0,0.0,1.541,0.0,0.0,0.0,0.0,0.0,0.0,0.0,0.0,0.0,0.0,0.0,0.0,0.0,1.7821,1.8401,1.8321,1.8686,1.9144,1.9268,1.9305,1.9272,1.9175,1.9156,1.9123,1.8985,1.8829,1.8627,1.8298,1.8115,1.8115,1.8452,1.849,1.8726,1.9314,0.0,0.0,1.9395,0.0,0.0,0.0,0.0,0.0,0.0,0.0,0.0,0.0,1.9395,1.9395,1.9395,1.9927,2.0204,2.0204,2.0784,2.1267,2.1607,2.1607,2.1765,2.2111,2.2111,0.0,0.0,0.0,0.0,0.0,2.2205,2.2237,2.2418,2.2543,2.2738,2.2926,2.3043,2.3106,2.3106,0.0,0.0,0.0,0.0,0.0,0.0,0.0,0.0,0.0,0.0,1.3492,1.3492,1.3492,1.3492,0.0,0.0,0.0,0.0,0.0,0.0,0.0,0.0,0.0,0.0,0.0,1.3401,1.3309,1.2918,1.3331,1.3604,1.3753,1.427,1.467,1.4951,1.525,1.541,0.0,0.0,0.0,0.0,0.0,0.0,0.0,0.0,0.0,0.0,0.0,0.0,0.0,0.0,0.0,0.0,0.0,0.0,0.0,0.0,0.0,0.0,0.0,1.854,1.8895,1.9224,1.9305,1.9227,1.8947,1.8895,0.0,1.8482,1.837,1.8298,1.8043,1.799,1.8089,1.8452,1.849,1.8726,0.0,1.9395,0.0,0.0,1.9395,0.0,1.9395,0.0,0.0,0.0,0.0,0.0,0.0,1.9395,1.9395,1.9395,1.9913,2.0184,2.0204,2.0795,2.1247,2.1544,2.1544,2.1734,2.2017,2.2017,0.0,0.0,0.0,0.0,0.0,2.2048,2.2048,2.2111,2.2425,2.2543,2.2613,2.295,2.3074,2.3074,0.0,0.0,0.0,0.0,0.0,0.0,0.0,0.0,0.0,0.0,0.0,1.3492,1.3492,1.3492,0.0,0.0,0.0,0.0,0.0,0.0,0.0,0.0,0.0,0.0,0.0,1.3481,1.3382,1.3119,1.3636,1.3957,1.4083,1.4578,1.4986,1.53,1.5352,1.541,1.541,0.0,0.0,0.0,0.0,0.0,0.0,0.0,0.0,0.0,1.5906,1.6221,0.0,0.0,0.0,0.0,0.0,0.0,0.0,0.0,1.7361,1.7543,1.8145,0.0,1.8895,1.9224,1.9305,1.9227,0.0,1.8895,1.8791,1.8482,1.8246,1.8069,1.8016,1.7826,1.7862,1.8418,1.849,1.8726,1.9314,1.9395,0.0,1.9395,1.9395,1.9395,0.0,0.0,0.0,0.0,0.0,1.9395,0.0,1.9395,1.9395,1.9395,1.9713,1.9977,2.0197,2.0595,2.0951,2.1235,2.1235,2.1267,2.133,2.133,0.0,0.0,0.0,0.0,2.1702,2.145,2.1488,2.1734,2.1796,2.1985,2.2268,2.2574,2.2731,2.2762,0.0,0.0,0.0,0.0,0.0,0.0,0.0,0.0,0.0,0.0,0.0,0.0,0.0,0.0,0.0,0.0,0.0,0.0,0.0,0.0,0.0,0.0,0.0,0.0,0.0,1.3638,1.3681,1.3563,1.4002,1.4331,1.4526,1.478,1.5075,1.541,1.541,1.541,1.541,1.541,1.541,1.541,1.541,0.0,0.0,0.0,0.0,0.0,1.5775,1.6111,0.0,1.6793,1.7085,1.7302,0.0,0.0,0.0,0.0,1.7302,1.7412,1.794,1.8321,1.8679,1.9188,1.9305,1.9194,1.8784,1.8679,1.8541,1.8108,1.7931,1.7826,1.7826,1.7808,1.7949,1.8417,1.8604,0.0,0.0,0.0,1.9395,1.9395,1.9395,1.9395,0.0,0.0,0.0,0.0,0.0,1.9395,0.0,1.9395,1.9395,1.9395,1.9548,1.974,2.0003,2.0461,2.0755,2.0909,2.1042,2.1109,2.1109,2.1109,2.1204,0.0,0.0,0.0,2.1362,2.1172,2.1204,2.1393,2.1544,2.1702,2.1922,2.2268,2.2355,2.2393,0.0,0.0,0.0,0.0,0.0,0.0,0.0,0.0,0.0,0.0,0.0,0.0,0.0,0.0,0.0,0.0,0.0,0.0,0.0,0.0,0.0,0.0,0.0,1.3492,1.3492,1.3832,1.4001,1.4001,1.4374,1.4677,1.49,1.4951,1.5126,1.541,1.541,1.541,1.541,1.541,1.541,1.541,1.541,0.0,0.0,0.0,0.0,0.0,0.0,0.0,0.0,1.6793,1.7085,1.7302,1.7302,0.0,0.0,0.0,0.0,0.0,1.7704,1.8001,1.8402,1.9001,1.919,1.9089,1.8475,1.8344,1.8187,1.7714,1.7608,1.7622,1.7642,1.7842,1.8129,1.8504,0.0,0.0,1.9361,1.9395,1.9395,1.9395,1.9395,0.0,0.0,0.0,0.0,0.0,0.0,1.9395,0.0,1.9395,1.9395,1.9395,1.9395,1.9515,1.9733,2.0304,2.0568,2.0646,2.0902,2.1042,2.1042,2.1089,2.1109,0.0,0.0,0.0,2.1109,2.1109,2.1109,2.1141,2.1418,2.1513,2.1544,2.1891,2.2017,2.2017,0.0,0.0,0.0,0.0,0.0,0.0,0.0,0.0,0.0,0.0,0.0,0.0,0.0,0.0,0.0,0.0,0.0,0.0,0.0,0.0,0.0,0.0,1.3492,1.3492,1.3492,1.3832,1.4001,1.4001,1.4562,1.4856,1.4907,1.5185,1.5359,1.541,1.541,1.541,1.541,1.541,1.541,1.541,1.541,0.0,0.0,0.0,0.0,0.0,0.0,0.0,0.0,1.6793,1.7085,1.7302,1.7302,0.0,0.0,0.0,0.0,0.0,1.7704,1.7886,1.8053,1.8451,1.8746,1.8791,1.82,1.8069,1.7957,1.7661,1.7608,1.7662,1.7896,1.7962,1.8169,1.8736,0.0,1.9348,0.0,0.0,1.9395,1.9395,0.0,0.0,0.0,0.0,0.0,0.0,0.0,0.0,0.0,1.9395,1.9395,1.9395,1.9395,1.9421,1.9461,1.9766,2.006,2.027,2.0601,2.0773,2.0786,2.0995,2.1109,0.0,0.0,2.1109,2.1109,2.1109,2.1109,2.1109,2.1172,2.1172,2.1235,2.1544,2.167,2.1734,0.0,0.0,0.0,0.0,0.0,0.0,0.0,0.0,0.0,0.0,0.0,0.0,0.0,0.0,0.0,0.0,0.0,0.0,0.0,0.0,0.0,0.0,1.3492,1.3579,1.3774,1.4096,1.4345,1.4482,1.4957,1.5163,1.517,1.5337,1.541,1.541,1.541,1.541,1.541,1.541,1.541,1.541,0.0,0.0,0.0,0.0,0.0,0.0,0.0,0.0,0.0,0.0,1.7085,1.7302,1.7302,0.0,0.0,0.0,0.0,0.0,1.7485,1.7707,1.7903,1.7913,1.8266,1.8515,1.8095,1.799,1.7911,1.7668,1.7608,1.7675,1.7962,1.8156,1.8484,1.9072,0.0,1.9395,1.9395,1.9395,1.9395,0.0,0.0,0.0,0.0,0.0,0.0,0.0,0.0,0.0,0.0,0.0,1.9395,1.9395,1.9395,1.9395,1.9395,1.9528,1.9713,2.0,2.0301,2.0434,2.0448,2.0742,2.0875,2.0882,0.0,2.1109,2.1109,2.1109,2.1109,2.1109,2.1109,2.1109,2.1109,2.1267,2.133,2.1362,0.0,0.0,0.0,0.0,0.0,0.0,0.0,0.0,0.0,0.0,0.0,0.0,0.0,0.0,0.0,0.0,0.0,0.0,0.0,0.0,1.3492,1.3492,1.359,1.3744,1.3993,1.4323,1.4626,1.49,1.5228,1.541,1.541,1.541,1.541,1.541,1.541,1.541,1.541,1.541,1.541,1.541,0.0,0.0,0.0,0.0,0.0,0.0,0.0,0.0,0.0,0.0,0.0,0.0,0.0,0.0,0.0,1.7302,1.7302,1.7324,1.7397,1.7601,1.7782,1.7646,1.7972,1.8246,1.7964,1.7911,1.7859,1.7635,1.7608,1.7695,1.8056,1.845,0.0,1.9321,1.9395,1.9395,1.9395,1.9395,0.0,0.0,0.0,0.0,0.0,0.0,0.0,0.0,0.0,0.0,0.0,0.0,1.9395,1.9395,1.9395,1.9395,1.9395,1.9395,1.9508,1.97,1.9993,2.0104,2.011,2.0434,2.0575,2.0588,2.0882,2.1009,2.1009,2.1082,2.1109,2.1109,2.1109,2.1109,2.1109,2.1109,2.1109,2.1109,0.0,0.0,0.0,0.0,0.0,0.0,0.0,0.0,0.0,0.0,0.0,0.0,0.0,0.0,0.0,0.0,0.0,0.0,0.0,0.0,1.3492,1.3492,1.3803,1.3979,1.4001,1.4323,1.4626,1.49,1.5228,1.541,1.541,1.541,1.541,1.541,1.541,1.541,1.541,1.541,1.541,1.541,1.541,0.0,0.0,0.0,0.0,0.0,0.0,0.0,0.0,0.0,0.0,0.0,0.0,0.0,1.7302,1.7302,1.7302,1.7368,1.7675,1.7645,1.76,1.7888,1.801,1.7964,1.7694,1.7635,1.7608,1.7608,1.7608,1.7789,1.835,1.8953,1.9348,1.9388,1.9395,1.9395,1.9395,0.0,0.0,0.0,0.0,0.0,0.0,0.0,0.0,0.0,0.0,0.0,0.0,0.0,0.0,1.9395,1.9395,1.9395,1.9395,1.9395,1.9408,1.9435,1.9693,1.9833,1.984,2.0104,2.0237,2.025,2.0581,2.0739,2.0759,2.0995,2.1109,2.1109,2.1109,2.1109,2.1109,2.1109,2.1109,2.1109,0.0,0.0,0.0,0.0,0.0,0.0,0.0,0.0,0.0,0.0,0.0,0.0,0.0,0.0,0.0,0.0,0.0,0.0,0.0,0.0,1.3587,1.3803,1.3935,1.4172,1.4548,1.4679,1.4898,1.5206,1.5351,1.541,1.541,1.541,1.541,1.541,1.541,1.541,1.541,1.541,1.541,1.541,1.541,1.5527,0.0,0.0,0.0,0.0,0.0,0.0,0.0,0.0,1.7302,1.7302,1.7302,1.7302,1.7302,1.7302,1.7302,1.7328,1.752,1.752,1.7525,1.7661,1.7713,1.772,1.7608,1.7608,1.7608,1.7608,1.7736,1.8029,1.8651,1.912,1.9395,1.9395,1.9395,1.9395,1.9395,0.0,0.0,0.0,0.0,0.0,0.0,0.0,0.0,0.0,0.0,0.0,0.0,0.0,0.0,1.9395,1.9395,1.9395,1.9395,1.9395,1.9395,1.9395,1.9508,1.9562,1.9568,1.9833,1.996,1.998,2.0274,2.0401,2.0408,2.049,2.0675,2.0855,2.1036,2.1109,2.1109,2.1109,2.1109,2.1109,0.0,0.0,0.0,0.0,0.0,0.0,0.0,0.0,0.0,0.0,0.0,0.0,0.0,0.0,0.0,0.0,0.0,0.0,0.0,1.3594,1.3766,1.3993,1.4179,1.4474,1.4893,1.5002,1.5163,1.541,1.541,1.541,1.541,1.5347,1.5305,1.5305,1.5305,1.5305,1.5305,1.5368,1.541,1.5417,1.5519,1.5695,0.0,0.0,0.0,0.0,0.0,0.0,0.0,0.0,1.7302,1.7302,1.7302,1.7302,1.7286,1.7216,1.7265,1.7346,1.7405,1.7471,1.7528,1.7627,1.7618,1.7608,1.7608,1.7608,1.7608,1.7608,1.7909,1.8309,1.8803,1.9165,0.0,0.0,1.9395,1.9395,0.0,0.0,0.0,0.0,0.0,0.0,0.0,0.0,0.0,0.0,0.0,0.0,0.0,0.0,0.0,0.0,1.9395,1.9395,1.9395,1.9395,1.9395,1.9395,1.9395,1.9395,1.9401,1.9602,1.9659,1.9679,1.9967,2.0064,2.007,2.0164,2.0354,2.0555,2.0755,2.0835,2.0835,2.0835,2.0835,2.0835,0.0,0.0,0.0,0.0,0.0,0.0,0.0,0.0,0.0,0.0,0.0,0.0,0.0,0.0,0.0,0.0,0.0,0.0,0.0,1.3825,1.4008,1.4008,1.4584,1.49,1.4907,1.5221,1.541,1.541,1.541,1.541,1.5389,1.5194,1.511,1.511,1.511,1.511,1.511,1.5326,1.5389,1.5439,1.5768,1.5899,1.5972,0.0,0.0,0.0,0.0,0.0,0.0,0.0,1.7302,1.7302,1.7302,1.7302,1.7263,1.7066,1.7201,1.7412,1.7471,1.7509,1.7582,1.7915,1.7799,1.7608,1.7608,1.7608,1.7608,1.7615,1.807,1.8577,1.8843,1.9165,0.0,1.9395,1.9395,0.0,0.0,0.0,0.0,0.0,0.0,0.0,0.0,0.0,0.0,0.0,0.0,0.0,0.0,0.0,0.0,0.0,1.9395,1.9395,1.9395,1.9395,1.9395,1.9395,1.9395,1.9395,1.9395,1.9395,1.9395,1.9408,1.9673,1.98,1.982,2.0077,2.0197,2.0197,2.0204,2.0204,2.0204,2.0204,2.0204,2.0204,0.0,0.0,0.0,0.0,0.0,0.0,0.0,0.0,0.0,0.0,0.0,0.0,0.0,0.0,0.0,0.0,0.0,0.0,0.0,1.3949,1.4187,1.4621,1.4798,1.5009,1.5256,1.5359,1.541,1.541,1.541,1.5319,1.5194,1.5131,1.511,1.511,1.511,1.511,1.5125,1.5361,1.5504,1.5583,1.585,1.622,1.6601,0.0,0.0,0.0,0.0,0.0,0.0,0.0,0.0,0.0,1.7263,1.7192,1.7066,1.7026,1.7051,1.7138,1.7205,1.7365,1.7531,1.7673,1.7668,1.7608,1.7608,1.7608,1.7729,1.8164,1.8391,1.8644,1.9174,1.9334,0.0,1.9395,0.0,0.0,0.0,0.0,0.0,0.0,0.0,0.0,0.0,0.0,0.0,0.0,0.0,0.0,0.0,0.0,0.0,0.0,1.9395,1.9395,1.9395,1.9395,1.9395,1.9395,1.9395,1.9395,1.9395,1.9395,1.9395,1.9401,1.9488,1.9528,1.9548,1.9806,1.9927,1.9947,2.0124,2.0204,2.0204,2.0204,2.0204,2.0204,0.0,0.0,0.0,0.0,0.0,0.0,0.0,0.0,0.0,0.0,0.0,0.0,0.0,0.0,0.0,0.0,0.0,0.0,0.0,0.0,1.4518,1.4885,1.5024,1.5185,1.5402,1.541,1.5368,1.5277,1.5277,1.5215,1.511,1.4915,1.4824,1.4824,1.4824,1.4902,1.5036,1.5283,1.5468,1.5638,1.5928,1.6253,1.6568,0.0,0.0,0.0,0.0,0.0,0.0,0.0,0.0,0.0,1.7106,1.7012,1.6831,1.6831,1.6944,1.7029,1.6966,1.7243,1.7543,1.7594,1.7608,1.7608,1.7608,1.7675,1.7903,1.839,1.8577,1.8804,1.9308,1.9395,0.0,0.0,0.0,0.0,0.0,0.0,0.0,0.0,0.0,0.0,0.0,0.0,0.0,0.0,0.0,0.0,0.0,0.0,0.0,0.0,1.9395,1.9395,1.9395,1.9395,1.9395,1.9395,1.9395,1.9395,1.9395,1.9395,1.9395,1.9395,1.9395,1.9395,1.9408,1.9582,1.9626,1.9646,1.982,1.9887,1.9887,1.9887,1.9887,1.9887,0.0,0.0,0.0,0.0,0.0,0.0,0.0,0.0,0.0,0.0,1.3608,0.0,0.0,0.0,0.0,0.0,0.0,0.0,0.0,0.0,1.4915,1.4944,1.5228,1.541,1.541,1.541,1.5305,1.5131,1.511,1.509,1.5027,1.4608,1.4412,1.4439,1.4439,1.4617,1.4947,1.5149,1.5382,1.566,1.5967,1.6116,1.6173,1.646,0.0,0.0,0.0,0.0,0.0,0.0,0.0,0.0,1.6878,1.6784,1.6565,1.66,1.6808,1.7027,1.679,1.7154,1.7608,1.7608,1.7608,1.7608,1.7608,1.7816,1.8136,1.8437,1.8724,1.899,1.9341,1.9395,1.9395,0.0,0.0,0.0,0.0,0.0,0.0,0.0,0.0,0.0,0.0,0.0,0.0,0.0,0.0,0.0,0.0,0.0,0.0,1.9395,1.9395,1.9395,1.9395,1.9395,1.9395,0.0,1.9395,1.9395,1.9395,1.9395,1.9395,1.9395,1.9395,1.9395,1.9395,1.9395,1.9395,1.9395,1.9395,1.9395,1.9395,1.9395,1.9395,1.9395,0.0,0.0,0.0,0.0,0.0,0.0,0.0,0.0,0.0,0.0,0.0,0.0,0.0,0.0,0.0,0.0,0.0,0.0,0.0,0.0,1.5017,1.5272,1.5352,1.541,1.541,1.541,1.5389,1.5347,1.5173,1.4915,1.4545,1.444,1.4535,1.4796,1.4796,1.4945,1.5224,1.5479,1.5661,1.5773,1.6052,1.6303,1.6467,1.6332,1.6295,0.0,0.0,0.0,0.0,0.0,0.0,0.0,1.6588,1.6501,1.6337,1.6601,1.6728,1.6836,1.7045,1.7341,1.7608,1.7608,1.7608,1.7608,1.7608,1.8003,1.841,1.8477,1.8724,1.899,1.9341,1.9395,1.9395,0.0,0.0,0.0,0.0,0.0,0.0,0.0,0.0,0.0,0.0,0.0,0.0,0.0,0.0,0.0,0.0,0.0,0.0,1.9395,1.9395,1.9395,1.9395,1.9395,1.9395,0.0,1.9395,1.9395,1.9395,1.9395,1.9395,1.9395,1.9395,1.9395,1.9395,1.9395,1.9395,1.9395,1.9395,1.9395,1.9395,1.9395,1.9395,1.9395,0.0,0.0,0.0,0.0,0.0,0.0,0.0,0.0,0.0,0.0,0.0,0.0,0.0,0.0,0.0,0.0,0.0,0.0,0.0,0.0,0.0,1.5402,1.541,1.541,1.541,1.541,1.5347,1.5264,1.5169,1.4951,1.4545,1.4485,1.4541,1.4732,1.4874,1.5104,1.5366,1.5498,1.564,1.5812,1.5944,1.6092,1.6204,1.6069,1.6004,1.6004,1.5855,0.0,0.0,0.0,0.0,0.0,0.0,0.0,1.6113,1.6563,1.6709,1.6774,1.7119,1.7388,1.7608,1.7608,1.7608,1.7608,1.7608,1.8083,1.849,1.849,1.8838,1.9185,1.9368,1.9395,0.0,0.0,0.0,0.0,0.0,0.0,0.0,0.0,0.0,0.0,0.0,0.0,0.0,0.0,0.0,0.0,0.0,1.9395,1.9395,1.9395,1.9395,1.9395,1.9395,1.9395,1.9395,1.9395,1.9395,1.9395,1.9395,1.9395,1.9395,1.9395,1.9395,1.9395,1.9395,1.9395,1.9395,1.9395,1.9395,1.9395,1.9395,1.9395,1.9395,1.9395,0.0,0.0,0.0,0.0,0.0,0.0,0.0,0.0,0.0,0.0,0.0,0.0,0.0,0.0,0.0,0.0,0.0,0.0,0.0,0.0,0.0,0.0,1.541,1.541,1.541,1.541,1.5355,1.5238,1.5212,1.5098,1.488,1.4671,1.4601,1.4661,1.4952,1.522,1.5471,1.5285,1.5441,1.5784,1.5611,1.5659,1.5808,1.5808,1.5808,1.5808,1.5808,1.5808,1.5808,1.5808,0.0,0.0,0.0,0.0,1.5922,1.652,1.67,1.678,1.7179,1.7428,1.7608,1.7608,1.7608,1.7608,1.7608,1.8083,1.849,1.849,1.8986,1.9395,1.9395,1.9395,0.0,0.0,0.0,0.0,0.0,0.0,0.0,0.0,0.0,0.0,0.0,0.0,0.0,0.0,0.0,0.0,1.9395,1.9395,1.9395,1.9395,1.9395,1.9395,1.9395,1.9395,1.9395,1.9395,1.9395,1.9395,1.9395,1.9395,1.9395,1.9395,1.9395,1.9395,1.9395,1.9395,1.9395,1.9395,1.9395,1.9395,1.9395,1.9395,1.9395,1.9395,0.0,0.0,0.0,0.0,0.0,0.0,0.0,0.0,0.0,0.0,1.3284,0.0,0.0,0.0,0.0,0.0,0.0,0.0,1.5323,0.0,0.0,1.541,1.541,1.541,1.541,1.541,1.5528,1.5783,1.5383,1.5336,1.5568,1.5128,1.5059,1.5277,1.5317,1.5504,1.5701,1.4816,1.4961,1.5713,1.4849,1.5016,1.5808,1.5808,1.5808,1.5808,1.5808,1.5808,1.5808,1.5808,1.5808,0.0,0.0,0.0,1.5915,1.6511,1.6698,1.6827,1.7401,1.7582,1.7608,1.7608,1.7608,1.7608,1.7608,1.8083,1.849,0.0,1.8986,1.9395,1.9395,0.0,0.0,0.0,0.0,0.0,0.0,0.0,0.0,0.0,0.0,0.0,0.0,0.0,0.0,0.0,1.9395,0.0,1.9395,1.9395,1.9395,1.9395,1.9395,1.9395,1.9395,1.9395,1.9395,1.9395,1.9395,1.9395,1.9395,1.9395,1.9395,1.9395,1.9395,1.9395,1.9395,1.9395,1.9395,1.9395,1.9395,1.9395,1.9395,1.9395,1.9395,1.9395,0.0,0.0,0.0,0.0,0.0,0.0,0.0,0.0,0.0,0.0,0.0,1.2632,0.0,0.0,0.0,1.364,1.4837,1.552,1.541,1.541,1.541,1.541,1.541,1.541,1.541,1.5585,1.5682,1.567,1.5685,1.5694,1.5711,1.5532,1.5431,1.5404,1.5565,1.5688,1.5784,1.5326,1.5397,1.5754,1.5326,1.5397,1.5808,1.5808,1.5808,1.5808,1.5808,1.5808,1.5808,1.5808,1.5808,1.5808,1.5808,0.0,0.0,0.0,1.6707,1.6834,1.7448,1.7608,1.7608,1.7608,1.7608,1.7608,1.7608,1.8083,1.849,1.849,1.8986,1.9395,0.0,0.0,0.0,0.0,0.0,0.0,0.0,0.0,0.0,0.0,0.0,0.0,0.0,0.0,0.0,0.0,1.9395,1.9395,1.9395,1.9395,1.9395,1.9395,1.9395,1.9395,1.9395,1.9395,1.9395,1.9395,1.9395,1.9395,1.9395,1.9395,1.9395,1.9395,1.9395,1.9395,1.9395,1.9395,1.9395,1.9395,1.9395,1.9395,1.9395,1.9395,1.9395,1.9395,0.0,0.0,0.0,0.0,0.0,0.0,0.0,0.0,0.0,0.0,0.0,0.0,0.0,0.0,0.0,0.0,1.442,1.5235,1.5082,1.5277,1.5298,1.5082,1.5277,1.5446,1.5534,1.5704,1.5771,1.5747,1.5918,1.5939,1.582,1.5802,1.5688,1.5518,1.5708,1.5666,1.5421,1.5421,1.5421,1.5421,1.5421,1.5564,1.5808,1.5808,1.5808,1.5808,1.5808,1.5808,1.5808,1.5808,1.5808,1.5808,1.5808,1.5808,0.0,0.0,0.0,1.6927,1.7468,1.7608,1.7608,1.7608,1.7608,1.7608,1.7608,1.7996,1.8397,0.0,1.8898,1.9308,0.0,0.0,0.0,0.0,0.0,0.0,0.0,0.0,0.0,0.0,0.0,0.0,0.0,0.0,0.0,0.0,1.9395,1.9395,1.9395,1.9395,1.9395,1.9395,1.9395,1.9395,1.9395,1.9395,1.9395,1.9395,1.9395,1.9395,1.9395,1.9395,1.9395,1.9395,1.9395,1.9395,1.9395,1.9395,1.9395,1.9395,1.9395,1.9395,1.9395,1.9395,1.9395,1.9395,0.0,0.0,0.0,0.0,0.0,0.0,0.0,0.0,0.0,0.0,0.0,0.0,1.1966,1.1644,1.2132,1.3859,1.4118,1.4181,1.416,1.4936,1.502,1.4202,1.4957,0.0,1.5863,1.5634,1.5826,1.6457,1.5959,1.587,1.6173,1.592,1.5795,1.5781,1.5795,1.5278,1.4394,1.4394,1.4394,1.4394,1.4394,1.4944,1.5808,1.5808,1.5808,1.5808,1.5808,0.0,0.0,0.0,0.0,0.0,0.0,1.5808,1.5868,0.0,0.0,0.0,1.7528,1.7608,1.7608,1.7608,1.7608,1.7608,1.7608,1.7809,1.8123,1.843,1.8731,1.9032,0.0,0.0,0.0,0.0,0.0,0.0,0.0,0.0,0.0,0.0,0.0,0.0,0.0,0.0,0.0,0.0,1.9395,1.9395,1.9395,1.9395,1.9395,1.9395,1.9395,1.9395,1.9395,1.9395,1.9395,1.9395,1.9395,1.9395,1.9395,1.9395,1.9395,1.9395,1.9395,1.9395,1.9395,1.9395,1.9395,1.9395,1.9395,1.9395,1.9395,1.9395,1.9395,1.9395,0.0,0.0,0.0,0.0,0.0,0.0,0.0,0.0,0.0,0.0,0.0,0.0,0.0,1.1209,1.1762,1.226,1.2851,1.319,1.319,1.4055,1.4501,1.4365,1.5234,1.5891,1.6199,1.6167,1.618,1.6241,1.6097,1.5997,1.595,1.5832,1.5808,1.5784,1.5135,1.4634,1.4298,1.4298,1.4298,1.437,1.4992,1.5469,1.5808,1.5808,1.5808,0.0,0.0,0.0,0.0,0.0,0.0,0.0,0.0,0.0,1.5901,1.6406,1.6993,1.7474,1.7582,1.7608,1.7608,1.7608,1.7608,1.7608,1.7608,1.7822,1.8103,1.843,1.8724,1.899,0.0,0.0,0.0,0.0,0.0,0.0,0.0,0.0,0.0,0.0,0.0,0.0,0.0,0.0,0.0,0.0,0.0,0.0,1.9395,1.9395,1.9395,1.9395,1.9395,1.9395,1.9395,1.9395,1.9395,1.9395,1.9395,1.9395,1.9395,1.9395,1.9395,1.9395,1.9395,1.9395,1.9395,1.9395,1.9395,1.9395,1.9395,1.9395,1.9395,1.9395,1.9395,1.9395,0.0,0.0,0.0,0.0,0.0,0.0,0.0,0.0,0.0,0.0,0.0,0.0,0.0,0.0,1.1187,1.1278,1.2169,1.2583,1.2349,1.3206,1.3855,1.4162,1.5037,1.5812,1.6416,1.606,1.5777,1.5634,1.559,1.5475,1.5302,1.5635,1.5611,1.5255,1.4214,1.3757,1.3781,1.4148,1.41,1.3878,1.5248,1.5808,1.5808,1.5808,0.0,0.0,0.0,0.0,0.0,0.0,0.0,0.0,0.0,0.0,0.0,1.6567,1.7054,1.7488,1.7582,1.7608,1.7608,1.7608,1.7608,1.7608,1.7608,1.7742,1.7949,1.8283,1.8549,1.8865,0.0,0.0,0.0,0.0,0.0,0.0,0.0,0.0,0.0,0.0,0.0,0.0,0.0,0.0,0.0,0.0,0.0,0.0,1.9395,1.9395,1.9395,1.9395,1.9395,1.9395,1.9395,1.9395,1.9395,1.9395,1.9395,1.9395,1.9395,1.9395,1.9395,1.9395,1.9395,1.9395,1.9395,1.9395,1.9395,1.9395,1.9395,1.9395,1.9395,1.9395,1.9395,1.9395,0.0,0.0,0.0,0.0,0.0,0.0,0.0,0.0,0.0,0.0,0.0,0.0,0.0,0.0,0.0,1.1208,1.2095,1.2328,1.1616,1.2452,1.3129,1.3444,1.4295,1.5303,1.6392,1.5206,1.4607,1.4704,1.443,1.4322,1.437,1.5302,1.5231,1.4244,1.3143,1.2654,1.2727,1.3781,1.3631,1.2926,1.4908,1.5761,1.5808,0.0,0.0,0.0,1.5808,1.5815,0.0,1.5821,0.0,0.0,0.0,0.0,0.0,0.0,0.0,1.728,0.0,0.0,0.0,1.7608,1.7608,1.7608,1.7608,0.0,1.7669,1.7929,1.8249,1.8564,0.0,0.0,0.0,0.0,0.0,0.0,0.0,0.0,0.0,0.0,0.0,0.0,0.0,0.0,0.0,0.0,1.9395,1.9395,1.9395,1.9395,1.9395,1.9395,1.9395,1.9395,1.9395,1.9395,1.9395,1.9395,1.9395,1.9395,1.9395,1.9395,1.9395,1.9395,1.9395,1.9395,1.9395,1.9395,1.9395,1.9395,1.9395,1.9395,1.9395,1.9395,1.9395,1.9395,0.0,0.0,0.0,0.0,0.0,0.0,0.0,0.0,0.0,0.0,0.0,0.0,0.9994,0.9994,1.0166,1.0546,1.0817,1.093,1.0878,1.1708,1.2358,1.2694,1.3599,1.4254,1.4604,1.407,1.4106,1.4704,1.443,0.0,0.0,0.0,0.0,1.4226,1.2412,1.1609,1.1634,1.1926,1.2756,1.383,1.365,1.4472,0.0,0.0,0.0,0.0,0.0,1.5965,1.6152,0.0,1.6346,1.6573,0.0,0.0,0.0,0.0,0.0,1.7508,1.7588,0.0,0.0,0.0,0.0,0.0,0.0,0.0,1.7669,1.7929,1.8055,1.8236,0.0,0.0,0.0,0.0,0.0,0.0,0.0,0.0,0.0,0.0,0.0,0.0,0.0,0.0,0.0,0.0,1.9395,1.9395,1.9395,1.9395,1.9395,1.9395,1.9395,1.9395,1.9395,1.9395,1.9395,1.9395,1.9395,1.9395,1.9395,1.9395,1.9395,1.9395,1.9395,1.9395,1.9395,1.9395,1.9395,1.9395,1.9395,1.9395,1.9395,1.9395,1.9395,1.9395,0.0,0.0,0.0,0.0,0.0,0.0,0.0,0.0,0.0,0.0,0.0,0.0,1.0118,0.0,1.0213,1.0404,1.0423,1.0508,1.0716,1.11,1.1635,1.2326,1.2808,1.3202,1.3566,0.0,0.0,0.0,0.0,0.0,0.0,0.0,0.0,0.0,1.1731,1.1194,1.1179,1.08,1.182,1.3613,1.3438,0.0,0.0,1.4514,1.4726,0.0,0.0,0.0,1.6478,1.6478,1.6567,0.0,0.0,0.0,0.0,0.0,0.0,1.7608,1.7608,1.7608,1.7608,1.7608,0.0,0.0,1.7608,1.7608,1.7629,0.0,1.7929,1.8069,1.827,0.0,0.0,0.0,0.0,0.0,0.0,0.0,0.0,0.0,0.0,0.0,0.0,1.9395,1.9395,1.9395,1.9395,1.9395,1.9395,1.9395,1.9395,1.9395,1.9395,1.9395,1.9395,1.9395,1.9395,1.9395,1.9395,1.9395,1.9395,1.9395,1.9395,1.9395,1.9395,1.9395,1.9395,1.9395,1.9395,1.9395,1.9395,1.9395,1.9395,1.9395,1.9395,1.9395,0.0,0.0,0.0,0.0,0.0,0.0,0.0,0.0,0.0,0.0,0.0,0.0,1.0304,0.0,0.0,0.0,1.0561,1.0627,1.0819,1.0618,0.0,0.0,0.0,0.0,0.0,0.0,0.0,0.0,0.0,0.0,0.0,0.0,0.0,0.0,0.0,1.116,1.1025,1.0615,1.1267,1.2661,1.3505,1.399,0.0,0.0,1.443,1.4881,1.597,1.6506,1.676,1.6794,1.6807,0.0,0.0,0.0,0.0,0.0,1.7408,1.7608,1.7608,1.7608,1.7608,0.0,0.0,0.0,1.7608,1.7608,1.7608,0.0,1.7776,1.7969,1.7969,0.0,0.0,0.0,0.0,0.0,0.0,0.0,0.0,0.0,0.0,0.0,1.9395,1.9395,1.9395,1.9395,1.9395,1.9395,1.9395,1.9395,1.9395,1.9395,1.9395,1.9395,1.9395,1.9395,1.9395,1.9395,1.9395,1.9395,1.9395,1.9395,1.9395,1.9395,1.9395,1.9395,1.9395,1.9395,1.9395,1.9395,1.9395,1.9395,1.9395,1.9395,1.9395,1.9395,1.2887,0.0,0.0,0.0,0.0,0.0,0.0,0.0,0.0,0.0,0.0,1.0314,1.0517,1.0352,0.0,0.0,1.0312,1.0273,1.0489,1.0453,0.0,0.0,0.0,0.0,0.0,0.0,0.0,0.0,0.0,0.0,0.0,0.0,0.0,0.0,0.0,1.08,1.031,1.2742,0.0,1.1838,1.1229,1.1987,1.3505,1.3561,1.4145,1.5099,1.6214,1.6839,1.7146,1.7354,1.7408,1.7448,0.0,0.0,0.0,1.7528,0.0,0.0,0.0,0.0,0.0,0.0,0.0,0.0,1.7608,1.7608,1.7608,0.0,1.7629,1.7669,1.7669,1.7902,0.0,0.0,0.0,0.0,0.0,0.0,0.0,0.0,0.0,0.0,1.9395,1.9395,1.9395,1.9395,1.9395,1.9395,1.9395,1.9395,1.9395,1.9395,1.9395,1.9395,1.9395,1.9395,1.9395,1.9395,1.9395,1.9395,1.9395,1.9395,1.9395,1.9395,1.9395,1.9395,1.9395,1.9395,1.9395,1.9395,1.9395,1.9395,1.9395,1.9395,1.9395,1.9395,1.219,0.0,0.0,0.0,0.0,0.0,0.0,0.0,0.0,1.0156,1.0206,1.0274,1.0336,1.0241,1.0228,0.0,0.0,0.0,0.0,0.0,0.0,0.0,0.0,0.0,0.0,0.0,0.0,0.0,0.0,0.0,0.0,0.0,0.0,0.0,0.0,1.1147,1.0905,1.3295,1.3389,1.1933,1.185,0.0,1.2525,1.255,1.3338,1.4596,1.5679,1.6639,1.7414,1.7555,1.7608,0.0,0.0,1.7608,1.7608,0.0,1.7608,1.7608,0.0,0.0,0.0,1.7608,0.0,0.0,0.0,1.7608,1.7608,1.7608,1.7608,1.7608,1.7608,0.0,1.7789,0.0,0.0,0.0,0.0,0.0,0.0,0.0,0.0,0.0,1.9381,1.9395,1.9395,1.9395,1.9395,1.9395,1.9395,1.9395,1.9395,1.9395,1.9395,1.9395,1.9395,1.9395,1.9395,1.9395,1.9395,1.9395,1.9395,1.9395,1.9395,1.9395,1.9395,1.9395,1.9395,1.9395,1.9395,1.9395,1.9395,1.9395,1.9395,1.9395,1.9395,1.9395,1.1429,1.1154,0.0,0.0,0.0,0.0,0.0,0.0,1.0301,1.034,1.0255,1.0176,1.0167,1.0112,1.0149,1.0301,0.0,0.0,0.0,0.0,0.0,0.0,0.0,0.9603,0.0,0.0,0.0,0.0,0.0,0.0,0.0,0.0,0.0,0.0,0.0,1.1662,1.1821,1.3247,1.3113,1.1981,0.0,1.252,1.1539,1.1748,1.2708,1.41,1.5385,1.6579,1.7608,1.7608,1.7608,1.7608,1.7608,1.7608,0.0,0.0,0.0,0.0,0.0,0.0,0.0,0.0,0.0,1.7608,0.0,0.0,0.0,1.7608,1.7608,0.0,0.0,0.0,0.0,0.0,0.0,0.0,0.0,0.0,0.0,0.0,0.0,0.0,0.0,1.9361,1.9395,1.9395,1.9395,1.9395,1.9395,1.9395,1.9395,1.9395,1.9395,1.9395,1.9395,1.9395,1.9395,1.9395,1.9395,1.9395,1.9395,1.9395,1.9395,1.9395,1.9395,1.9395,1.9395,1.9395,1.9395,1.9395,1.9395,1.9395,1.9395,1.9395,1.9395,1.9395,1.1176,1.0679,1.0125,0.0,0.0,0.0,0.0,0.0,1.0336,1.0471,1.025,1.0171,1.036,1.0161,1.0022,1.0043,0.0,0.0,0.9702,0.0,0.0,0.0,0.0,0.0,0.9603,0.0,0.0,0.0,0.0,0.0,0.0,0.0,0.0,0.0,1.1583,1.1853,1.2212,1.3273,1.2615,0.0,1.2063,1.1837,0.0,1.1946,1.3057,1.4362,1.6567,1.747,1.7608,0.0,1.7608,1.7608,0.0,1.7608,1.7608,1.7608,0.0,0.0,0.0,0.0,0.0,0.0,1.7608,0.0,0.0,0.0,1.7608,1.7608,0.0,0.0,0.0,0.0,0.0,0.0,0.0,0.0,0.0,0.0,0.0,0.0,0.0,0.0,0.0,1.9241,1.9395,1.9395,1.9395,1.9395,1.9395,1.9395,1.9395,1.9395,1.9395,1.9395,1.9395,1.9395,1.9395,1.9395,1.9395,1.9395,1.9395,1.9395,1.9395,1.9395,1.9395,1.9395,1.9395,1.9395,1.9395,1.9395,1.9395,1.9395,1.9395,1.9395,1.9395,1.9395,1.0446,1.025,1.0037,1.0138,0.0,0.0,0.0,0.0,1.0199,1.021,1.0099,1.0008,0.9936,0.9821,0.9776,0.9776,0.0,0.9603,0.0,0.0,0.0,0.0,0.0,0.0,0.0,0.0,0.0,0.0,0.9778,0.0,0.0,0.0,0.0,0.0,1.2408,1.276,1.2935,0.0,1.2839,0.0,0.0,0.0,0.0,1.1473,1.2521,1.44,1.677,1.7608,1.7608,0.0,1.7608,0.0,0.0,0.0,0.0,0.0,0.0,0.0,0.0,0.0,0.0,0.0,0.0,0.0,1.7608,0.0,1.7608,0.0,0.0,0.0,0.0,0.0,0.0,0.0,1.7528,0.0,0.0,0.0,0.0,0.0,0.0,0.0,0.0,0.0,0.0,0.0,1.9301,1.9395,1.9395,1.9395,1.9395,1.9395,1.9395,1.9395,1.9395,1.9395,1.9395,1.9395,1.9395,1.9395,1.9395,1.9395,1.9395,1.9395,1.9395,1.9395,1.9395,1.9395,1.9395,1.9395,1.9395,1.9395,1.9395,1.9395,1.9395,1.9395,0.9899,0.9902,0.993,1.0139,0.0,0.0,0.0,0.0,0.0,1.0002,0.9945,0.9826,0.9628,0.9603,0.0,0.0,0.9603,0.9603,0.0,0.0,0.9652,0.0,0.0,0.0,0.0,0.0,0.0,0.0,0.0,0.0,0.0,0.0,0.0,0.0,0.0,1.3254,1.345,0.0,1.244,1.1851,1.1523,1.1578,1.1823,1.1687,1.2467,1.3895,1.5908,1.6856,1.7127,1.7127,1.7338,0.0,1.7608,0.0,0.0,0.0,0.0,0.0,1.7608,0.0,0.0,0.0,0.0,0.0,0.0,0.0,0.0,0.0,0.0,0.0,0.0,0.0,0.0,0.0,0.0,1.7582,0.0,0.0,0.0,0.0,0.0,0.0,0.0,0.0,0.0,1.8776,1.9078,1.9274,1.9274,1.9354,1.9395,1.9395,1.9395,1.9395,1.9395,1.9395,1.9395,1.9395,1.9395,1.9395,1.9395,1.9395,1.9395,1.9395,1.9395,1.9395,1.9395,1.9395,1.9395,1.9395,1.9395,1.9395,1.9395,1.9395,1.9395,1.9395,0.9815,0.9647,0.9582,0.9789,0.9801,0.0,0.0,0.0,0.0,0.0,0.0,0.0,0.0,0.0,0.0,0.0,0.0,0.9603,0.9603,0.0,0.9803,0.0,0.0,1.0084,0.0,0.0,0.0,0.0,0.0,0.0,0.0,0.0,0.0,0.0,1.2372,1.2896,1.3555,1.1341,1.0884,1.1514,1.0335,1.006,1.0633,0.0,1.3356,1.2603,1.3782,0.0,0.0,1.5941,1.6697,0.0,0.0,0.0,0.0,0.0,0.0,0.0,0.0,0.0,0.0,1.7608,0.0,0.0,0.0,0.0,1.7608,0.0,0.0,0.0,0.0,0.0,0.0,0.0,0.0,0.0,0.0,0.0,0.0,0.0,0.0,0.0,0.0,0.0,0.0,1.8504,1.8771,1.891,1.891,1.9212,1.9395,1.9395,1.9395,1.9395,1.9395,1.9395,1.9395,1.9395,1.9395,1.9395,1.9395,1.9395,1.9395,1.9395,1.9395,1.9395,1.9395,1.9395,1.9395,1.9395,1.9395,1.9395,1.9395,1.9395,1.9395,1.9395,0.9527,0.9478,0.9551,0.9927,0.986,0.9754,0.0,0.976,0.0,0.0,0.9653,0.0,0.0,0.973,0.9799,0.0,0.0,0.9929,0.9807,0.9995,0.0,0.0,0.0,1.0158,0.0,0.0,0.0,0.0,0.0,0.0,0.0,0.0,0.0,0.0,0.0,1.2299,0.0,0.0,0.0,0.0,0.0,1.2422,1.1291,0.0,0.0,1.2548,1.3679,1.4352,0.0,1.4701,1.4969,1.5423,1.6207,1.6479,1.6611,1.7371,1.7608,0.0,0.0,0.0,1.7608,1.7608,0.0,0.0,0.0,0.0,0.0,0.0,0.0,0.0,0.0,0.0,0.0,0.0,0.0,0.0,0.0,0.0,0.0,0.0,0.0,0.0,0.0,0.0,0.0,1.8169,1.847,1.8724,1.8883,1.9018,1.9165,1.9388,1.9395,1.9395,1.9395,1.9395,1.9395,1.9395,1.9395,1.9395,1.9395,1.9395,1.9395,1.9395,1.9395,1.9395,1.9395,1.9395,1.9395,1.9395,1.9395,1.9395,1.9395,1.9395,1.9395,1.9395,0.9477,0.9474,0.9575,0.987,0.9769,0.9656,0.0,0.0,0.0,0.0,0.9656,0.0,0.9697,0.0,1.0007,0.0,1.0121,1.0137,1.0015,1.0182,0.0,1.0015,1.0247,0.0,0.0,0.0,0.0,0.0,0.0,1.0582,0.0,0.0,0.0,0.0,0.0,1.2,1.2729,1.1164,1.1601,0.0,0.0,1.2884,0.0,0.0,1.2336,1.1878,0.0,1.3058,1.3491,1.3491,1.376,1.432,1.5509,1.5888,1.6127,1.7259,1.7608,1.7608,1.7608,1.7608,0.0,1.7608,1.7608,0.0,1.7608,0.0,0.0,0.0,0.0,0.0,0.0,0.0,0.0,0.0,0.0,0.0,0.0,1.7608,0.0,0.0,0.0,0.0,0.0,0.0,1.7856,1.7856,1.8136,1.8389,0.0,0.0,1.9011,1.9234,1.9341,1.9395,1.9395,1.9395,1.9395,1.9395,1.9395,1.9395,1.9395,1.9395,1.9395,1.9395,1.9395,1.9395,1.9395,1.9395,1.9395,1.9395,1.9395,1.9395,1.9395,1.9395,1.9395,1.9395,0.9603,0.9603,0.9603,0.9603,0.9603,0.0,0.0,0.0,0.9603,0.0,0.9778,0.9909,0.9909,1.0084,1.0202,1.0202,1.0211,1.0211,1.0202,1.032,0.0,0.0,1.0482,1.0447,1.0007,0.0,0.0,0.0,0.0,0.0,0.0,0.0,0.0,0.0,1.1059,0.0,1.2721,1.0496,1.1391,1.4218,1.3371,1.1692,0.9926,1.2341,1.2209,1.0719,1.0476,1.1204,1.2309,1.2309,1.3031,1.4164,1.5402,1.5802,1.6047,1.7259,1.7608,1.7608,1.7608,1.7608,1.7608,1.7608,0.0,0.0,0.0,0.0,1.7608,0.0,0.0,0.0,0.0,0.0,0.0,0.0,0.0,0.0,0.0,0.0,0.0,0.0,0.0,0.0,0.0,1.7608,1.7608,1.7608,1.7829,1.8002,0.0,0.0,1.8863,1.8896,1.9199,1.9381,1.9395,1.9395,1.9395,1.9395,1.9395,1.9395,1.9395,1.9395,1.9395,1.9395,1.9395,1.9395,1.9395,1.9395,1.9395,1.9395,1.9395,1.9395,1.9395,1.9395,1.9395,1.9395,0.9603,0.9603,0.9603,0.0,0.9603,0.9603,0.0,0.0,0.0,0.0,0.9778,0.9909,0.9909,1.0172,1.0341,1.0341,1.0481,0.0,0.0,0.0,0.0,0.9694,0.9891,0.9986,0.9862,1.0202,0.0,1.0312,0.0,0.0,1.0692,0.0,0.0,0.0,0.0,1.0899,1.2499,1.1901,1.3122,1.5431,1.5211,1.4374,0.0,0.0,1.21,1.1377,1.1514,1.1263,1.088,1.1067,1.1337,1.1932,1.3922,1.4567,1.4969,1.6988,1.7608,1.7608,1.7608,1.7608,1.7608,1.7608,1.7608,1.7608,0.0,0.0,0.0,0.0,0.0,0.0,0.0,0.0,0.0,0.0,0.0,0.0,0.0,0.0,0.0,1.7608,0.0,0.0,1.7608,1.7608,1.7608,1.7608,1.7655,1.7776,0.0,0.0,0.0,1.8883,1.897,1.9145,1.9395,1.9395,1.9395,1.9395,1.9395,1.9395,1.9395,1.9395,1.9395,1.9395,1.9395,1.9395,1.9395,1.9395,1.9395,1.9395,1.9395,1.9395,1.9395,1.9395,1.9395,1.9395,0.9603,0.9603,0.9628,0.9726,0.0,0.0,0.9738,0.9738,0.0,0.9851,0.9907,0.0,0.9938,1.0056,1.0143,1.0143,1.0229,0.0,0.9923,0.0,0.0,0.9651,0.9737,0.9734,0.9623,0.9926,0.0,0.9899,0.0,0.0,1.0308,0.0,0.0,0.0,0.0,1.0382,1.2467,1.3501,1.4094,1.4449,1.5485,0.0,0.0,1.31,1.2046,1.0527,1.1314,1.1044,1.0312,1.0476,1.061,1.1017,1.2792,1.3706,1.446,1.6313,1.7206,1.7608,1.7608,1.7608,1.7608,1.7608,1.7608,1.7608,1.7608,1.7608,1.7608,0.0,0.0,0.0,0.0,0.0,0.0,0.0,0.0,0.0,0.0,0.0,0.0,0.0,1.7608,0.0,1.7608,1.7608,1.7608,1.7608,1.7608,1.7655,0.0,0.0,0.0,1.8503,1.8763,1.8976,1.9172,1.9328,1.9395,1.9395,1.9395,1.9395,1.9395,1.9395,1.9395,1.9395,1.9395,1.9395,1.9395,1.9395,1.9395,1.9395,1.9395,1.9395,1.9395,1.9395,1.9395,1.9395,0.9632,0.9636,0.0,0.0,0.0,0.0,0.0,0.9886,0.0,1.0114,0.0,0.9946,0.9969,0.9882,0.983,0.9852,0.0,0.9841,0.9767,0.9763,0.9756,0.9678,0.9678,0.9568,0.9351,0.9596,0.9623,0.0,0.0,0.0,0.0,0.0,0.0,0.9379,0.921,1.0433,0.0,1.4804,1.4508,1.2797,1.4691,1.3631,1.1137,1.3019,1.1828,0.9289,1.0402,1.0547,1.0202,1.0229,1.0421,1.0852,1.1987,1.3058,1.4132,1.5509,1.6611,1.7424,1.7556,1.7608,1.7608,1.7608,1.7608,1.7608,1.7608,1.7608,1.7608,1.7608,1.7608,1.7608,0.0,0.0,0.0,0.0,0.0,0.0,0.0,0.0,0.0,0.0,0.0,0.0,0.0,0.0,1.7608,1.7608,1.7608,0.0,0.0,0.0,0.0,1.7995,1.8549,0.0,1.8896,0.0,1.9395,1.9395,1.9395,1.9395,1.9395,1.9395,1.9395,1.9395,1.9395,1.9395,1.9395,1.9395,1.9395,1.9395,1.9395,1.9395,1.9395,1.9395,1.9395,1.9395,0.9811,0.9839,0.0,0.0,0.0,0.9795,0.9958,0.9838,0.976,0.9791,0.9674,0.9642,0.9811,0.9921,1.0017,1.0204,1.0215,0.0,0.0,0.0,0.0,0.9082,0.9047,0.9047,0.8992,0.9296,0.9434,0.0,0.0,0.0,0.0,0.0,0.0,0.9434,1.008,1.1683,1.3921,1.4326,0.0,1.3835,1.3263,1.2657,1.2032,1.1515,1.0918,1.0292,0.9561,0.9403,0.9599,0.9816,1.0091,1.0582,1.1714,1.2358,1.3112,1.5269,1.6047,1.6399,1.7338,1.7608,1.7608,1.7608,1.7608,1.7608,1.7608,1.7608,1.7608,1.7608,1.7608,1.7608,1.7608,0.0,0.0,0.0,0.0,0.0,0.0,0.0,0.0,0.0,0.0,1.7608,0.0,0.0,0.0,0.0,0.0,0.0,0.0,0.0,0.0,0.0,1.8356,0.0,0.0,0.0,1.9395,1.9395,1.9395,1.9395,1.9395,1.9395,1.9395,1.9395,1.9395,1.9395,1.9395,1.9395,1.9395,1.9395,1.9395,1.9395,1.9395,1.9395,1.9395,1.9395,0.9779,0.0,0.9798,0.0,0.0,0.0,0.0,0.9751,0.0,0.9844,0.9689,0.9602,0.9797,0.9742,0.9734,0.9834,0.9841,0.9723,0.9502,0.9498,0.9375,0.9055,0.9049,0.9015,0.8912,0.9047,0.913,0.913,0.0,0.0,0.0,0.0,0.0,1.0107,1.1137,1.22,0.0,0.0,0.0,1.3209,1.2635,1.2059,1.146,1.0918,1.0319,0.9699,0.9099,0.8992,0.9185,0.9485,0.9899,1.039,1.0958,1.1714,1.2738,1.446,1.5402,1.6154,1.7285,1.7608,1.7608,1.7608,1.7608,1.7608,1.7608,1.7608,1.7608,1.7608,1.7608,1.7608,1.7608,1.7608,0.0,0.0,0.0,0.0,0.0,0.0,0.0,0.0,0.0,0.0,0.0,0.0,0.0,0.0,0.0,0.0,0.0,0.0,0.0,0.0,0.0,0.0,0.0,0.0,0.0,1.9395,1.9395,1.9395,1.9395,1.9395,1.9395,1.9395,1.9395,1.9395,1.9395,1.9395,1.9395,1.9395,1.9395,1.9395,1.9395,1.9395,1.9395,1.9395,0.9658,0.9666,0.0,0.0,0.9537,0.0,0.9735,0.9637,0.9642,0.9872,0.972,0.9599,0.9728,0.9574,0.9442,0.9473,0.9476,0.9462,0.9432,0.9432,0.939,0.9237,0.9228,0.9128,0.896,0.8926,0.8912,0.0,0.0,0.0,0.0,0.0,0.0,0.0,0.0,0.0,0.0,0.0,1.2037,1.2005,1.1764,1.1114,1.0323,1.0323,0.9726,0.8912,0.8912,0.8912,0.8937,0.9213,0.9706,1.0202,1.0202,1.104,1.2254,1.341,1.4406,1.5455,1.6856,1.7232,1.7312,1.7529,1.7608,1.7608,1.7608,1.7608,1.7608,1.7608,1.7608,1.7608,1.7608,1.7608,0.0,0.0,0.0,0.0,0.0,0.0,0.0,0.0,0.0,0.0,1.7608,0.0,0.0,0.0,0.0,0.0,0.0,0.0,0.0,0.0,0.0,1.8163,1.849,0.0,1.9072,0.0,1.9395,1.9395,1.9395,1.9395,1.9395,1.9395,1.9395,1.9395,1.9395,1.9395,1.9395,1.9395,1.9395,1.9395,1.9395,1.9395,1.9395,1.9395,0.0,0.0,0.0,0.0,0.0,0.0,0.9606,0.9517,0.9479,0.9621,0.9502,0.9477,0.9601,0.9588,0.9639,0.9737,0.9751,0.9727,0.9598,0.9588,0.952,0.9396,0.9254,0.9204,0.9162,0.9005,0.8912,0.0,0.0,0.0,0.0,0.0,0.0,0.0,0.0,0.0,0.0,1.1301,1.0863,1.0754,0.9671,0.9154,0.9075,0.9075,0.8992,0.8912,0.8912,0.8912,0.8912,0.8937,0.9351,0.9844,0.9844,1.0308,1.1072,1.2227,1.263,1.3226,1.5455,1.6047,1.6319,1.7338,1.7608,1.7608,1.7608,1.7608,1.7608,1.7608,1.7608,1.7608,1.7608,1.7608,1.7608,0.0,0.0,0.0,0.0,0.0,1.7608,1.7608,0.0,0.0,0.0,1.7608,0.0,0.0,1.7608,0.0,0.0,0.0,0.0,1.7608,0.0,1.8163,1.849,1.8778,0.0,1.9395,1.9395,1.9395,1.9395,1.9395,1.9395,1.9395,1.9395,1.9395,1.9395,1.9395,1.9395,1.9395,1.9395,1.9395,1.9395,1.9395,1.9395,1.9395,0.0,0.0,0.0,0.0,0.0,0.0,0.0,0.9506,0.9526,0.9578,0.9538,0.9574,0.969,0.9707,0.9727,0.9785,0.9792,0.9765,0.971,0.9707,0.9673,0.9523,0.9459,0.9369,0.9214,0.9124,0.9025,0.0,0.0,0.0,0.0,0.0,0.0,0.0,0.0,1.1378,1.1301,1.0131,0.9616,0.9588,0.9103,0.8912,0.8912,0.8912,0.8912,0.8912,0.8912,0.8912,0.8912,0.8912,0.9185,0.9572,0.9572,0.9981,1.0688,1.1823,1.2765,1.3787,1.5455,1.6399,1.7015,1.7503,1.7608,1.7608,1.7608,1.7608,1.7608,1.7608,1.7608,1.7608,1.7608,1.7608,1.7608,0.0,0.0,0.0,0.0,0.0,0.0,1.7608,0.0,1.7608,0.0,1.7608,1.7608,0.0,0.0,0.0,0.0,0.0,0.0,1.7608,0.0,1.8003,1.849,1.8604,1.8905,1.9395,1.9395,1.9395,1.9395,1.9395,1.9395,1.9395,1.9395,1.9395,1.9395,1.9395,1.9395,1.9395,1.9395,1.9395,1.9395,1.9395,1.9395,1.9395,0.9335,0.0,0.9475,0.0,0.9376,0.9449,0.9449,0.9578,0.9673,0.9673,0.9673,0.971,0.9781,0.9792,0.9792,0.9792,0.9792,0.9792,0.9792,0.9792,0.9748,0.9676,0.9632,0.0,0.9322,0.9226,0.9131,0.9001,0.9776,0.0,0.0,0.0,0.0,0.0,1.0699,1.0507,1.0104,0.9265,0.8912,0.8912,0.8912,0.8912,0.8912,0.8912,0.8912,0.8912,0.8912,0.8912,0.8912,0.8912,0.9047,0.9268,0.9379,0.9734,1.0308,1.1118,1.2358,1.3728,1.4942,1.6154,1.718,1.7529,1.7608,1.7608,1.7608,1.7608,1.7608,1.7608,1.7608,1.7608,1.7608,1.7608,1.7608,1.7608,0.0,0.0,0.0,0.0,0.0,0.0,1.7608,1.7608,1.7608,1.7608,1.7608,0.0,0.0,0.0,0.0,0.0,0.0,0.0,0.0,0.0,0.0,1.8444,1.8744,1.9239,1.9354,1.9395,1.9395,1.9395,1.9395,1.9395,1.9395,1.9395,1.9395,1.9395,1.9395,1.9395,1.9395,1.9395,1.9395,1.9395,1.9395,1.9395,0.9207,0.9301,0.9407,0.9407,0.9507,0.9605,0.9605,0.9697,0.9788,0.9788,0.9788,0.9788,0.9792,0.9792,0.9792,0.9792,0.9792,0.9792,0.9792,0.9792,0.9792,0.0,0.0,0.9608,0.9605,0.9335,0.921,0.9207,0.0,0.0,1.0726,0.0,1.1792,1.0699,1.0699,1.0049,0.8909,0.8912,0.8912,0.8912,0.8912,0.8912,0.8912,0.8912,0.8912,0.8912,0.8912,0.8912,0.8912,0.8912,0.8912,0.8968,0.9296,0.9596,0.9816,0.9816,1.0872,1.2277,1.3431,1.4808,1.618,1.7312,1.7608,1.7608,1.7608,1.7608,1.7608,1.7608,1.7608,1.7608,1.7608,1.7608,1.7608,1.7608,0.0,0.0,0.0,0.0,0.0,0.0,1.7608,1.7608,1.7608,1.7608,0.0,0.0,0.0,0.0,0.0,0.0,0.0,1.7608,1.7608,0.0,1.7995,1.8343,1.8637,1.8903,1.9225,1.9395,1.9395,1.9395,1.9395,1.9395,1.9395,1.9395,1.9395,1.9395,1.9395,1.9395,1.9395,1.9395,1.9395,1.9395,1.9395,1.9395,0.9339,0.9432,0.9537,0.9537,0.9656,0.9724,0.9724,0.9761,0.9792,0.9792,0.9792,0.9792,0.9792,0.9792,0.9792,0.0,0.9792,0.9792,0.0,0.9792,0.9792,0.9792,0.9748,0.9707,0.9612,0.9513,0.9441,0.9339,0.0,0.0,0.0,1.1078,1.0621,0.9482,0.9482,0.9265,0.8912,0.8912,0.8912,0.8912,0.8912,0.8912,0.8912,0.8912,0.8912,0.8912,0.8912,0.8912,0.8912,0.8912,0.8912,0.9075,0.9998,1.046,1.0676,1.0676,1.2277,1.4169,1.4712,1.5793,1.6922,1.745,1.7608,1.7608,1.7608,1.7608,1.7608,1.7608,1.7608,1.7608,1.7608,1.7608,1.7608,1.7608,1.7608,0.0,0.0,0.0,0.0,0.0,1.7608,1.7608,0.0,1.7608,0.0,0.0,0.0,0.0,0.0,0.0,0.0,0.0,1.7608,0.0,1.7989,1.8343,1.8637,1.8896,1.9225,1.9395,1.9395,1.9395,1.9395,1.9395,1.9395,1.9395,1.9395,1.9395,1.9395,1.9395,1.9395,1.9395,1.9395,1.9395,1.9395,1.9395,0.9466,0.9588,0.969,0.969,0.9734,0.9792,0.9792,0.9792,0.9792,0.9792,0.9792,0.9792,0.9792,0.9792,0.0,0.9792,0.9792,0.9792,0.9792,0.9792,0.9792,0.9792,0.9792,0.9748,0.969,0.0,0.0,0.9466,1.0054,1.0286,1.0208,1.0171,0.9731,0.9018,0.8933,0.9154,0.9588,0.9588,0.9588,0.9616,1.0053,0.9675,0.8992,0.9891,0.9943,0.9644,1.0053,1.0217,1.0162,0.9726,0.9864,1.0268,1.059,1.1406,1.2173,1.1705,1.3139,1.49,1.5039,1.6119,1.7226,1.7411,1.7536,1.7608,1.7608,1.7608,1.7608,1.7608,1.7608,1.7608,1.7608,1.7608,1.7608,1.7608,1.7608,1.7608,1.7608,0.0,0.0,0.0,0.0,0.0,0.0,1.7608,1.7608,0.0,0.0,0.0,0.0,0.0,0.0,1.7608,1.7608,0.0,1.7842,1.8283,1.8577,1.8764,1.9201,1.9395,1.9395,1.9395,1.9395,1.9395,1.9395,1.9395,1.9395,1.9395,1.9395,1.9395,1.9395,1.9395,1.9395,1.9395,1.9395,1.9395,0.9625,0.97,0.0,0.0,0.9792,0.0,0.9792,0.9792,0.9792,0.9792,0.9792,0.9792,0.9792,0.9792,0.9792,0.9792,0.0,0.0,0.0,0.9792,0.9792,0.9792,0.9792,0.9792,0.9792,0.9693,0.9618,0.9608,0.9466,0.942,0.9407,0.9264,0.9224,0.9221,0.9028,0.9597,1.0736,1.0736,1.0791,1.0983,1.2023,1.1143,0.9417,1.1596,1.1773,1.0973,1.2005,1.239,1.2254,1.1191,1.1519,1.2227,1.1242,1.2445,1.3975,1.2852,1.355,1.4685,1.4712,1.59,1.7153,1.7153,1.7351,1.7529,1.7529,1.7556,1.7582,1.7582,1.7582,1.7608,1.7608,1.7608,1.7608,1.7608,1.7608,1.7608,1.7608,0.0,0.0,0.0,0.0,0.0,0.0,1.7608,1.7608,0.0,0.0,0.0,0.0,0.0,1.7608,1.7608,1.7608,1.7622,1.7642,1.8196,1.851,1.8557,1.9134,1.9395,1.9395,1.9395,1.9395,1.9395,1.9395,1.9395,1.9395,1.9395,1.9395,1.9395,1.9395,1.9395,1.9395,1.9395,1.9395,1.9395,0.0,0.0,0.9792,0.9792,0.9792,0.9792,0.9792,0.9792,0.9792,0.9792,0.9792,0.9792,0.9792,0.9792,0.9792,0.9792,0.9792,0.9792,0.9792,0.9792,0.9792,0.9792,0.9792,0.9792,0.9792,0.9758,0.969,0.9608,0.9571,0.9496,0.941,0.9373,0.9356,0.9352,0.9289,0.9981,1.1167,1.1167,1.1726,1.2627,1.2909,1.2567,1.1928,1.2483,1.2412,1.2037,1.2304,1.239,1.2363,1.2087,1.2168,1.2499,1.3181,1.3754,1.4137,1.3867,1.4648,1.5645,1.5832,1.6211,1.6563,1.6763,1.6869,1.6915,1.6915,1.7113,1.7279,1.7279,1.7457,1.7608,1.7608,1.7608,1.7608,1.7608,1.7608,1.7608,1.7608,1.7608,0.0,0.0,1.7608,1.7608,1.7608,1.7608,1.7608,0.0,0.0,0.0,0.0,1.7608,1.7608,1.7608,1.7608,1.7695,1.7909,1.8303,1.8718,1.9194,1.9328,1.9395,1.9395,1.9395,1.9395,1.9395,1.9395,1.9395,1.9395,1.9395,1.9395,1.9395,1.9395,1.9395,1.9395,1.9395,1.9395,1.9395,0.9792,0.9792,0.9792,0.9792,0.9792,0.9792,0.9792,0.9792,0.9792,0.9792,0.9792,0.9792,0.9792,0.9792,0.9792,0.9792,0.9792,0.9792,0.9792,0.9792,0.9792,0.9792,0.9792,0.9792,0.9792,0.9792,0.9754,0.9677,0.9677,0.9663,0.9581,0.9517,0.9486,0.9512,1.0044,1.0953,1.2122,1.2718,1.3402,1.406,1.4599,1.4069,1.3115,1.4162,1.4173,1.3671,1.4178,1.4297,1.4092,1.3573,1.367,1.4019,1.4164,1.4568,1.4976,1.4976,1.5431,1.5945,1.6084,1.6217,1.635,1.6624,1.6703,1.6703,1.6703,1.6842,1.6981,1.6981,1.7219,1.743,1.743,1.7536,1.7608,1.7608,1.7608,1.7608,1.7608,1.7608,0.0,1.7608,1.7608,1.7608,1.7608,1.7483,1.743,1.743,0.0,0.0,1.7404,1.743,1.7483,1.7608,1.7722,1.7849,1.7995,1.8443,1.8918,1.9395,1.9395,1.9395,1.9395,1.9395,1.9395,1.9395,1.9395,1.9395,1.9395,1.9395,1.9395,1.9395,1.9395,1.9395,1.9395,1.9395,1.9395,1.9395,0.9731,0.9761,0.9792,0.9792,0.9792,0.9792,0.9792,0.9792,0.9792,0.9792,0.9792,0.9792,0.9792,0.9792,0.9792,0.9792,0.9792,0.9792,0.9792,0.9792,0.9792,0.9792,0.9792,0.9792,0.9792,0.9792,0.9792,0.9792,0.9792,0.9792,0.9788,0.9696,0.9642,0.9695,1.0837,1.2008,1.3188,1.4539,1.5199,1.5461,1.6442,1.5609,1.4021,1.6004,1.6128,1.5378,1.6357,1.6543,1.6207,1.5237,1.5374,1.5785,1.4817,1.5139,1.5891,1.5891,1.5891,1.5891,1.5891,1.6078,1.6297,1.6524,1.6577,1.6577,1.6577,1.6604,1.663,1.663,1.6902,1.712,1.712,1.7351,1.7529,1.7529,1.7582,1.7608,1.7608,0.0,1.7608,1.7608,1.7556,1.7529,1.7529,1.7298,1.712,1.712,1.6869,1.6835,0.0,1.7191,1.7337,1.7662,1.7876,1.8035,1.8122,1.8689,1.9118,1.9395,1.9395,1.9395,1.9395,1.9395,1.9395,1.9395,1.9395,1.9395,1.9395,1.9395,1.9395,1.9395,1.9395,1.9395,1.9395,1.9395,1.9395,1.9395,0.9366,0.9609,0.9792,0.9792,0.9792,0.9792,0.9792,0.9792,0.9792,0.9792,0.9792,0.9792,0.9792,0.9792,0.9792,0.9792,0.9792,0.9792,0.9792,0.9792,0.9792,0.9792,0.9792,0.9792,0.9792,0.9792,0.9792,0.9792,0.9792,0.9792,0.9792,0.9768,0.9758,0.9818,1.1083,1.238,1.3689,1.4956,1.6142,1.7125,1.73,1.7023,1.6534,1.6912,1.678,1.647,1.6644,1.667,1.6606,1.6438,1.6309,1.6217,1.6027,1.5932,1.5891,1.5891,1.5891,1.5891,1.5891,1.5945,1.5971,1.6025,1.6019,1.6019,1.6019,1.6211,1.635,1.635,1.6583,1.6783,1.6783,1.7034,1.7252,1.7252,1.7457,1.7608,1.7608,0.0,1.7608,1.7608,1.7404,1.7252,1.7252,1.6981,1.6783,1.6783,1.673,1.6818,1.7092,1.7105,1.7377,1.7911,1.798,1.8229,1.8756,1.9125,1.9354,1.9395,1.9395,1.9395,1.9395,1.9395,1.9395,1.9395,1.9395,1.9395,1.9395,1.9395,1.9395,1.9395,1.9395,1.9395,1.9395,1.9395,1.9395,1.9395,0.9095,0.9339,0.9518,0.9518,0.967,0.9792,0.9792,0.9792,0.9792,0.9792,0.9792,0.9792,0.9792,0.9792,0.9792,0.9792,0.9792,0.9792,0.9792,0.9792,0.9792,0.9792,0.9792,0.9792,0.9792,0.9792,0.9792,0.9792,0.9792,0.9792,0.9792,0.9792,1.0183,1.0876,1.22,1.3515,1.4798,1.6077,1.6973,1.7514,1.7514,1.7442,1.7333,1.7333,1.7231,1.7123,1.7123,1.7032,1.6911,1.6911,1.673,1.6507,1.6507,1.6423,1.6296,1.6172,1.6,1.5891,1.5891,1.5891,1.5891,1.5891,1.5891,1.5891,1.5891,1.5998,1.6078,1.6078,1.6291,1.6477,1.6477,1.6743,1.6928,1.6928,1.7028,0.0,0.0,1.7378,1.7378,1.7378,1.7279,1.712,1.6955,1.6663,1.6477,1.6477,1.6487,1.6596,1.6863,1.7034,1.7429,1.8186,1.8389,1.8696,1.9158,1.9328,1.9395,1.9395,1.9395,1.9395,1.9395,1.9395,1.9395,1.9395,1.9395,1.9395,1.9395,1.9395,1.9395,1.9395,1.9395,1.9395,1.9395,1.9395,1.9395,1.9395,0.8793,0.9007,0.9217,0.9275,0.9518,0.97,0.9792,0.9792,0.9792,0.9792,0.9792,0.9792,0.9792,0.9792,0.9792,0.9792,0.9792,0.9792,0.9792,0.9792,0.9792,0.9792,0.9792,0.9792,0.9792,0.9792,0.9792,0.9792,0.9792,0.9792,0.9792,0.9792,1.0334,1.1329,1.2976,1.4232,1.5273,1.6826,1.7514,1.7514,1.7514,1.7514,1.7514,1.7514,1.7514,1.7514,1.7514,1.7381,1.7183,1.7183,1.7008,1.6791,1.6791,1.6748,1.6658,1.6441,1.6263,1.6054,1.5928,1.5891,1.5891,1.5891,1.5891,1.5891,1.5891,1.5891,1.5891,1.5891,1.6051,1.6217,1.6217,1.6424,1.6604,1.6604,0.0,0.0,0.0,1.7093,1.7093,1.7093,1.704,1.6882,1.663,1.6427,1.631,1.631,1.6357,1.6505,1.6775,1.7005,1.7488,1.8364,1.879,1.9138,1.9395,1.9395,1.9395,1.9395,1.9395,1.9395,1.9395,1.9395,1.9395,1.9395,1.9395,1.9395,1.9395,1.9395,1.9395,1.9395,1.9395,1.9395,1.9395,1.9395,1.9395,1.9395,0.843,0.8705,0.9004,0.9247,0.9308,0.9427,0.9761,0.9792,0.9792,0.9792,0.9792,0.9792,0.9792,0.9792,0.9792,0.9792,0.9792,0.9792,0.9792,0.9792,0.9792,0.9792,0.9792,0.9792,0.9792,0.9792,0.9792,0.9792,0.9792,0.9792,0.9792,0.9792,0.9852,1.0061,1.2586,1.3754,1.3993,1.6467,1.7514,1.7514,1.7514,1.7514,1.7514,1.7514,1.7514,1.7514,1.7514,1.7502,1.7484,1.7484,1.728,1.7062,1.7062,1.6893,1.67,1.6676,1.6658,1.6531,1.6024,1.5891,1.5891,1.5891,1.5891,1.5891,1.5891,1.5891,1.5891,1.5891,1.5918,1.5945,1.5945,1.6158,1.6324,1.6324,0.0,0.0,1.673,1.673,1.673,1.673,1.653,1.635,1.6324,1.6298,1.6308,1.6308,1.6541,1.6779,1.7049,1.7079,1.75,1.8377,1.9036,1.9374,1.9395,1.9395,1.9395,1.9395,1.9395,1.9395,1.9395,1.9395,1.9395,1.9395,1.9395,1.9395,1.9395,1.9395,1.9395,1.9395,1.9395,1.9395,1.9395,1.9395,1.9395,1.9395,0.8089,0.8366,0.8671,0.9004,0.9186,0.9427,0.9761,0.9792,0.9792,0.9792,0.9792,0.9792,0.9792,0.9792,0.9792,0.9792,0.9792,0.9792,0.9792,0.9792,0.9792,0.9792,0.9792,0.9792,0.9792,0.9792,0.9792,0.9792,0.9792,0.9792,0.9792,0.9792,1.0213,1.1057,1.2886,1.4143,1.4976,1.6738,1.7514,1.7514,1.7514,1.7514,1.7514,1.7514,1.7514,1.7514,1.7514,1.7514,1.7514,1.7514,1.7418,1.7363,1.7363,1.7296,1.7153,1.699,1.6827,1.6658,1.6447,1.6278,1.6109,1.5934,1.5891,1.5891,1.5891,1.5891,1.5891,1.5891,1.5891,1.5891,1.5891,1.5971,1.6051,1.6051,0.0,1.6258,1.6424,1.6451,1.6451,1.6451,1.6499,1.6491,1.6322,1.6463,1.6543,1.6543,1.6791,1.699,1.7086,1.7452,1.7884,1.8386,1.8858,1.9185,1.9395,1.9395,1.9395,1.9395,1.9395,1.9395,1.9395,1.9395,1.9395,1.9395,1.9395,1.9395,1.9395,1.9395,1.9395,1.9395,1.9395,1.9395,1.9395,1.9395,1.9395,1.9395,0.7903,0.8089,0.8336,0.8671,0.8976,0.9278,0.9609,0.9731,0.9792,0.9792,0.9792,0.9792,0.9792,0.9792,0.9792,0.9792,0.9792,0.9792,0.9792,0.9792,0.9792,0.9792,0.9792,0.9792,0.9792,0.9792,0.9792,0.9792,0.9792,0.9792,0.9792,0.9792,1.0274,1.1178,1.2916,1.4202,1.5095,1.6797,1.7514,1.7514,1.7514,1.7514,1.7514,1.7514,1.7514,1.7514,1.7514,1.7514,1.7514,1.7514,1.7514,1.7514,1.7514,1.7514,1.7449,1.7267,1.7086,1.693,1.6845,1.6688,1.6489,1.6211,1.6079,1.6039,1.6039,1.5946,1.5891,1.5891,1.5891,1.5891,1.5891,1.5891,1.5891,1.5891,1.5891,1.5971,1.6164,1.6164,1.6221,1.6281,1.6452,1.6539,1.6432,1.6664,1.6827,1.6827,1.7062,1.7213,1.7213,1.7803,1.8194,1.8392,1.8829,1.9185,1.9395,1.9395,1.9395,1.9395,1.9395,1.9395,1.9395,1.9395,1.9395,1.9395,1.9395,1.9395,1.9395,1.9395,1.9395,1.9395,1.9395,1.9395,1.9395,1.9395,1.9395,1.9395,0.7903,0.7903,0.7994,0.8339,0.8671,0.8976,0.9247,0.9579,0.9792,0.9792,0.9792,0.9792,0.9792,0.9792,0.9792,0.9792,0.9792,0.9792,0.9792,0.9792,0.9792,0.9792,0.9792,0.9792,0.9792,0.9792,0.9792,0.9792,0.9792,0.9792,0.9792,0.9792,0.9792,0.991,1.2526,1.3695,1.3874,1.6408,1.7514,1.7514,1.7514,1.7514,1.7514,1.7514,1.7514,1.7514,1.7514,1.7514,1.7514,1.7514,1.7514,1.7514,1.7514,1.7514,1.7514,1.7514,1.7514,1.7424,1.7165,1.7092,1.7032,1.6767,1.6489,1.6311,1.6311,1.6112,1.5924,1.5891,1.5891,1.5891,1.5891,1.5891,1.5891,1.5891,1.5891,1.5891,1.5891,1.5891,1.5988,1.6281,1.6284,1.6398,1.6676,1.6942,1.7092,1.7092,1.7334,1.7514,1.7514,1.8071,1.8392,1.8392,1.9046,1.9395,1.9395,1.9395,1.9395,1.9395,1.9395,1.9395,1.9395,1.9395,1.9395,1.9395,1.9395,1.9395,1.9395,1.9395,1.9395,1.9395,1.9395,1.9395,1.9395,1.9395,1.9395,1.9395,0.7903,0.7903,0.7994,0.8339,0.8491,0.8732,0.9217,0.9396,0.9548,0.9761,0.9792,0.9792,0.9792,0.9792,0.9792,0.9792,0.9792,0.9792,0.9792,0.9792,0.9792,0.9792,0.9792,0.9792,0.9792,0.9792,0.9792,0.9792,0.9792,0.9792,0.9792,0.9792,0.9792,0.991,1.2526,1.3695,1.3874,1.6408,1.7514,1.7514,1.7514,1.7514,1.7514,1.7514,1.7514,1.7514,1.7514,1.7514,1.7514,1.7514,1.7514,1.7514,1.7514,1.7514,1.7514,1.7514,1.7514,1.7467,1.7388,1.7393,1.7255,1.6809,1.6634,1.6573,1.6573,1.6513,1.6404,1.6232,1.619,1.6109,1.5922,1.5891,1.5891,1.5891,1.5891,1.5985,1.6139,1.619,1.6266,1.6543,1.6736,1.6881,1.6966,1.7213,1.7393,1.7393,1.7436,1.7514,1.7514,1.7901,1.8194,1.8392,1.8823,1.9156,1.9395,1.9395,1.9395,1.9395,1.9395,1.9395,1.9395,1.9395,1.9395,1.9395,1.9395,1.9395,1.9395,1.9395,1.9395,1.9395,1.9395,1.9395,1.9395,1.9395,1.9395,1.9395,0.7903,0.7903,0.7964,0.8183,0.8308,0.8583,0.9065,0.9247,0.9427,0.9761,0.9792,0.9792,0.9792,0.9792,0.9792,0.9792,0.9792,0.9792,0.9792,0.9792,0.9792,0.9792,0.9792,0.9792,0.9792,0.9792,0.9792,0.9792,0.9792,0.9792,0.9792,0.9792,0.9792,0.991,1.2526,1.3695,1.3874,1.6408,1.7514,1.7514,1.7514,1.7514,1.7514,1.7514,1.7514,1.7514,1.7514,1.7514,1.7514,1.7514,1.7514,1.7514,1.7514,1.7514,1.7514,1.7514,1.7514,1.7514,1.7514,1.7514,1.7406,1.7086,1.693,1.6857,1.6857,1.6779,1.6652,1.6483,1.6474,1.6398,1.6241,1.6211,1.6211,1.6211,1.6211,1.6266,1.6456,1.6474,1.6549,1.6821,1.6996,1.7135,1.7266,1.7388,1.7514,1.7514,1.7514,1.7514,1.7514,1.7931,1.8223,1.8392,1.8858,1.9214,1.9395,1.9395,1.9395,1.9395,1.9395,1.9395,1.9395,1.9395,1.9395,1.9395,1.9395,1.9395,1.9395,1.9395,1.9395,1.9395,1.9395,1.9395,1.9395,1.9395,1.9395,1.9395,0.7903,0.7903,0.7903,0.7903,0.815,0.8461,0.8793,0.9095,0.9396,0.97,0.9788,0.9792,0.9792,0.9792,0.9792,0.9792,0.9792,0.9792,0.9792,0.9792,0.9792,0.9792,0.9792,0.9792,0.9792,0.9792,0.9792,0.9792,0.9792,0.9792,0.9792,0.9792,0.9792,0.991,1.2406,1.3575,1.3874,1.629,1.7397,1.7514,1.7514,1.7514,1.7514,1.7514,1.7514,1.7514,1.7514,1.7514,1.7514,1.7514,1.7514,1.7514,1.7514,1.7514,1.7514,1.7514,1.7514,1.7514,1.7514,1.7514,1.7514,1.7514,1.7333,1.7129,1.7129,1.6942,1.6761,1.6742,1.6736,1.673,1.6706,1.67,1.67,1.67,1.67,1.6712,1.673,1.6736,1.6833,1.7092,1.7129,1.7219,1.749,1.7514,1.7514,1.7514,1.7514,1.7514,1.7514,1.8071,1.8392,1.8392,1.9039,1.9395,1.9395,1.9395,1.9395,1.9395,1.9395,1.9395,1.9395,1.9395,1.9395,1.9395,1.9395,1.9395,1.9395,1.9395,1.9395,1.9395,1.9395,1.9395,1.9395,1.9395,1.9395,1.9395,0.7903,0.7903,0.7903,0.7903,0.7964,0.8119,0.8461,0.8793,0.9095,0.9366,0.964,0.9792,0.9792,0.9792,0.9792,0.9792,0.9792,0.9792,0.9792,0.9792,0.9792,0.9792,0.9792,0.9792,0.9792,0.9792,0.9792,0.9792,0.9792,0.9792,0.9792,0.9792,0.9792,0.9883,1.1446,1.2711,1.3814,1.5362,1.6585,1.7514,1.7514,1.7514,1.7514,1.7514,1.7514,1.7514,1.7514,1.7514,1.7514,1.7514,1.7514,1.7514,1.7514,1.7514,1.7514,1.7514,1.7514,1.7514,1.7514,1.7514,1.7514,1.7514,1.7472,1.74,1.74,1.7381,1.7284,1.705,1.7008,1.6948,1.6742,1.67,1.67,1.67,1.67,1.6773,1.6978,1.7008,1.7105,1.7393,1.74,1.7448,1.7473,1.7514,1.7514,1.7514,1.7514,1.7514,1.7514,1.8071,1.8392,1.8392,1.9039,1.9395,1.9395,1.9395,1.9395,1.9395,1.9395,1.9395,1.9395,1.9395,1.9395,1.9395,1.9395,1.9395,1.9395,1.9395,1.9395,1.9395,1.9395,1.9395,1.9395,1.9395,1.9395,1.9395,0.7903,0.7903,0.7903,0.7903,0.7903,0.8025,0.8339,0.8552,0.8763,0.9065,0.9247,0.9427,0.9548,0.9548,0.964,0.9792,0.9792,0.9792,0.9792,0.9792,0.9792,0.9792,0.9792,0.9792,0.9792,0.9792,0.9792,0.9792,0.9792,0.9792,0.9792,0.9792,0.9792,0.9852,1.1118,1.2079,1.2861,1.4798,1.5989,1.6644,1.7273,1.7514,1.7514,1.7514,1.7514,1.7514,1.7514,1.7514,1.7514,1.7514,1.7514,1.7514,1.7514,1.7514,1.7514,1.7514,1.7514,1.7514,1.7514,1.7514,1.7514,1.7514,1.7514,1.7514,1.7514,1.7514,1.7472,1.7304,1.728,1.7266,1.7098,1.7074,1.7074,1.7074,1.7074,1.7123,1.7255,1.728,1.7328,1.7467,1.7514,1.7514,1.7514,1.7514,1.7514,1.7514,1.7514,1.7514,1.7514,1.8071,1.8392,1.8392,1.9039,1.9395,1.9395,1.9395,1.9395,1.9395,1.9395,1.9395,1.9395,1.9395,1.9395,1.9395,1.9395,1.9395,1.9395,1.9395,1.9395,1.9395,1.9395,1.9395,1.9395,1.9395,1.9395,1.9395,0.7903,0.7903,0.7903,0.7903,0.7903,0.7994,0.8275,0.8369,0.8491,0.8763,0.8854,0.9004,0.9278,0.9335,0.9488,0.9788,0.9792,0.9792,0.9792,0.9792,0.9792,0.9792,0.9792,0.9792,0.9792,0.9792,0.9792,0.9792,0.9792,0.9792,0.9792,0.9792,0.9792,0.9852,1.0906,1.1511,1.1842,1.4023,1.5184,1.5693,1.6738,1.7303,1.7514,1.7514,1.7514,1.7514,1.7514,1.7514,1.7514,1.7514,1.7514,1.7514,1.7514,1.7514,1.7514,1.7514,1.7514,1.7514,1.7514,1.7514,1.7514,1.7514,1.7514,1.7514,1.7514,1.7514,1.7514,1.7514,1.7514,1.7514,1.7514,1.7514,1.7514,1.7514,1.7514,1.7514,1.7514,1.7514,1.7514,1.7514,1.7514,1.7514,1.7514,1.7514,1.7514,1.7514,1.7514,1.7514,1.7514,1.8071,1.8392,1.8392,1.9039,1.9395,1.9395,1.9395,1.9395,1.9395,1.9395,1.9395,1.9395,1.9395,1.9395,1.9395,1.9395,1.9395,1.9395,1.9395,1.9395,1.9395,1.9395,1.9395,1.9395,1.9395,1.9395,1.9395,0.7903,0.7903,0.7903,0.7903,0.7903,0.7903,0.7964,0.8214,0.84,0.8461,0.8735,0.9004,0.9278,0.9548,0.9761,0.9792,0.9792,0.9792,0.9792,0.9792,0.9792,0.9792,0.9792,0.9792,0.9792,0.9792,0.9792,0.9792,0.9792,0.9792,0.9792,0.9792,0.9792,0.9822,0.997,1.0668,1.1722,1.2079,1.3545,1.5634,1.5782,1.6526,1.7514,1.7514,1.7514,1.7514,1.7514,1.7514,1.7514,1.7514,1.7514,1.7514,1.7514,1.7514,1.7514,1.7514,1.7514,1.7514,1.7514,1.7514,1.7514,1.7514,1.7514,1.7514,1.7514,1.7514,1.7514,1.7514,1.7514,1.7514,1.7514,1.7514,1.7514,1.7514,1.7514,1.7514,1.7514,1.7514,1.7514,1.7514,1.7514,1.7514,1.7514,1.7514,1.7514,1.7514,1.7514,1.7514,1.7514,1.8071,1.8392,1.8392,1.9039,1.9395,1.9395,1.9395,1.9395,1.9395,1.9395,1.9395,1.9395,1.9395,1.9395,1.9395,1.9395,1.9395,1.9395,1.9395,1.9395,1.9395,1.9395,1.9395,1.9395,1.9395,1.9395,1.9395,0.7903,0.7903,0.7903,0.7903,0.7903,0.7903,0.7903,0.8025,0.8119,0.8119,0.8241,0.8455,0.8763,0.9217,0.9518,0.9518,0.97,0.9792,0.9792,0.9792,0.9792,0.9792,0.9792,0.9792,0.9792,0.9792,0.9792,0.9792,0.9792,0.9792,0.9792,0.9792,0.9792,0.9792,0.9792,1.0122,1.0694,1.139,1.2796,1.4589,1.5302,1.6349,1.7514,1.7514,1.7514,1.7514,1.7514,1.7514,1.7514,1.7514,1.7514,1.7514,1.7514,1.7514,1.7514,1.7514,1.7514,1.7514,1.7514,1.7514,1.7514,1.7514,1.7514,1.7514,1.7514,1.7514,1.7514,1.7514,1.7514,1.7514,1.7514,1.7514,1.7514,1.7514,1.7514,1.7514,1.7514,1.7514,1.7514,1.7514,1.7514,1.7514,1.7514,1.7514,1.7514,1.7514,1.7514,1.7514,1.7514,1.8071,1.8392,1.8392,1.9039,1.9395,1.9395,1.9395,1.9395,1.9395,1.9395,1.9395,1.9395,1.9395,1.9395,1.9395,1.9395,1.9395,1.9395,1.9395,1.9395,1.9395,1.9395,1.9395,1.9395,1.9395,1.9395,1.9395]},{"header":{"parameterUnit":"m.s-1","parameterCategory":1,"la1":30.6,"la2":28.766,"lo1":-90.7593,"lo2":-88.6598,"dy":0.0162,"dx":0.0183,"nx":116,"ny":114,"refTime":"2023-09-14T18:00:00:Z","depth":0,"parameterNumber":3,"parameterNumberName":"V-component_of_WINDS"},"data":[0.0,0.0,0.0,0.0,0.0,0.0,0.0,0.0,0.0,0.0,0.0,0.0,0.0,0.0,0.0,0.0,0.0,0.0,0.0,0.0,0.0,0.0,0.0,0.0,0.0,0.0,0.0,0.0,0.0,0.0,0.0,0.0,0.0,0.0,0.0,0.0,0.0,0.0,0.0,0.0,0.0,0.0,0.0,0.0,0.0,0.0,0.0,0.0,0.0,0.0,0.0,0.0,0.0,0.0,0.0,0.0,0.0,0.0,0.0,0.0,0.0,0.0,0.0,0.0,0.0,0.0,0.0,0.0,0.0,0.0,0.0,0.0,0.0,0.0,0.0,0.0,0.0,0.0,0.0,0.0,0.0,0.0,0.0,0.0,0.0,0.0,0.0,0.0,0.0,0.0,0.0,0.0,0.0,0.0,0.0,0.0,0.0,0.0,0.0,0.0,0.0,0.0,0.0,0.0,0.0,0.0,0.0,0.0,0.0,0.0,0.0,0.0,0.0,0.0,0.0,0.0,0.0,0.0,0.0,0.0,0.0,0.0,0.0,0.0,0.0,0.0,0.0,0.0,0.0,0.0,0.0,0.0,0.0,0.0,0.0,0.0,0.0,0.0,0.0,0.0,0.0,0.0,0.0,0.0,0.0,0.0,0.0,0.0,0.0,0.0,0.0,0.0,0.0,0.0,0.0,0.0,0.0,0.0,0.0,0.0,0.0,0.0,0.0,0.0,0.0,0.0,0.0,0.0,0.0,0.0,0.0,0.0,0.0,0.0,0.0,0.0,0.0,0.0,0.0,0.0,0.0,0.0,0.0,0.0,0.0,0.0,0.0,0.0,0.0,0.0,0.0,0.0,0.0,0.0,0.0,0.0,0.0,0.0,0.0,0.0,0.0,0.0,0.0,0.0,0.0,0.0,0.0,0.0,0.0,0.0,0.0,0.0,0.0,0.0,0.0,0.0,0.0,0.0,0.0,0.0,0.0,0.0,0.0,0.0,0.0,0.0,0.0,0.0,0.0,0.0,0.0,0.0,0.0,0.0,0.0,0.0,0.0,0.0,0.0,0.0,0.0,0.0,0.0,0.0,0.0,0.0,0.0,0.0,0.0,0.0,0.0,0.0,0.0,0.0,0.0,0.0,0.0,0.0,0.0,0.0,0.0,0.0,0.0,0.0,0.0,0.0,0.0,0.0,0.0,0.0,0.0,0.0,0.0,0.0,0.0,0.0,0.0,0.0,0.0,0.0,0.0,0.0,0.0,0.0,0.0,0.0,0.0,0.0,0.0,0.0,0.0,0.0,0.0,0.0,0.0,0.0,0.0,0.0,0.0,0.0,0.0,0.0,0.0,0.0,0.0,0.0,0.0,0.0,0.0,0.0,0.0,0.0,0.0,0.0,0.0,0.0,0.0,0.0,0.0,0.0,0.0,0.0,0.0,0.0,0.0,0.0,0.0,0.0,0.0,0.0,0.0,0.0,0.0,0.0,0.0,0.0,0.0,0.0,0.0,0.0,0.0,0.0,0.0,0.0,0.0,0.0,0.0,0.0,0.0,0.0,0.0,0.0,0.0,0.0,0.0,0.0,0.0,0.0,0.0,0.0,0.0,0.0,0.0,0.0,0.0,0.0,0.0,0.0,0.0,0.0,0.0,0.0,0.0,0.0,0.0,0.0,0.0,0.0,0.0,0.0,0.0,0.0,0.0,0.0,0.0,0.0,0.0,0.0,0.0,0.0,0.0,0.0,0.0,0.0,0.0,0.0,0.0,0.0,0.0,0.0,0.0,0.0,0.0,0.0,0.0,0.0,0.0,0.0,0.0,0.0,0.0,0.0,0.0,0.0,0.0,0.0,0.0,0.0,0.0,0.0,0.0,0.0,0.0,0.0,0.0,0.0,0.0,0.0,0.0,0.0,0.0,0.0,0.0,0.0,0.0,0.0,0.0,0.0,0.0,0.0,0.0,0.0,0.0,0.0,0.0,0.0,0.0,0.0,0.0,0.0,0.0,0.0,0.0,0.0,0.0,0.0,0.0,0.0,0.0,0.0,0.0,0.0,0.0,0.0,0.0,0.0,0.0,0.0,0.0,0.0,0.0,0.0,0.0,0.0,0.0,0.0,0.0,0.0,0.0,0.0,0.0,0.0,0.0,0.0,0.0,0.0,0.0,0.0,0.0,0.0,0.0,0.0,0.0,0.0,0.0,0.0,0.0,0.0,0.0,0.0,0.0,0.0,0.0,0.0,0.0,0.0,0.0,0.0,0.0,0.0,0.0,0.0,0.0,0.0,0.0,0.0,0.0,0.0,0.0,0.0,0.0,0.0,0.0,0.0,0.0,0.0,0.0,0.0,0.0,0.0,0.0,0.0,0.0,0.0,0.0,0.0,0.0,0.0,0.0,0.0,0.0,0.0,0.0,0.0,0.0,0.0,0.0,0.0,0.0,0.0,0.0,0.0,0.0,0.0,0.0,0.0,0.0,0.0,0.0,0.0,0.0,0.0,0.0,0.0,0.0,0.0,0.0,0.0,0.0,0.0,0.0,0.0,0.0,0.0,0.0,0.0,0.0,0.0,0.0,0.0,0.0,0.0,0.0,0.0,0.0,0.0,0.0,0.0,0.0,0.0,0.0,0.0,0.0,0.0,0.0,0.0,0.0,0.0,0.0,0.0,0.0,0.0,0.0,0.0,0.0,0.0,0.0,0.0,0.0,0.0,0.0,0.0,0.0,0.0,0.0,0.0,0.0,0.0,0.0,0.0,0.0,0.0,0.0,0.0,0.0,0.0,0.0,0.0,0.0,0.0,0.0,0.0,0.0,0.0,0.0,0.0,0.0,0.0,0.0,0.0,0.0,0.0,0.0,0.0,0.0,0.0,0.0,0.0,0.0,0.0,0.0,0.0,0.0,0.0,0.0,0.0,0.0,0.0,0.0,0.0,0.0,0.0,0.0,0.0,0.0,0.0,0.0,0.0,0.0,0.0,0.0,0.0,0.0,0.0,0.0,0.0,0.0,0.0,0.0,0.0,0.0,0.0,0.0,0.0,0.0,0.0,0.0,0.0,0.0,0.0,0.0,0.0,0.0,0.0,0.0,0.0,0.0,0.0,0.0,0.0,0.0,0.0,0.0,0.0,0.0,0.0,0.0,0.0,0.0,0.0,0.0,0.0,0.0,0.0,0.0,0.0,0.0,0.0,0.0,0.0,0.0,0.0,0.0,0.0,0.0,0.0,0.0,0.0,0.0,0.0,0.0,0.0,0.0,0.0,0.0,0.0,0.0,0.0,0.0,0.0,0.0,0.0,0.0,0.0,0.0,0.0,0.0,0.0,0.0,0.0,0.0,0.0,0.0,0.0,0.0,0.0,0.0,0.0,0.0,0.0,0.0,0.0,0.0,0.0,0.0,0.0,0.0,0.0,0.0,0.0,0.0,0.0,0.0,0.0,0.0,0.0,0.0,0.0,0.0,0.0,0.0,0.0,0.0,0.0,0.0,0.0,0.0,0.0,0.0,0.0,0.0,0.0,0.0,0.0,0.0,0.0,0.0,0.0,0.0,0.0,0.0,0.0,0.0,0.0,0.0,0.0,0.0,0.0,0.0,0.0,0.0,0.0,0.0,0.0,0.0,0.0,0.0,0.0,0.0,0.0,0.0,0.0,0.0,0.0,0.0,0.0,0.0,0.0,0.0,0.0,0.0,0.0,0.0,0.0,0.0,0.0,0.0,0.0,0.0,0.0,0.0,0.0,0.0,0.0,0.0,0.0,0.0,0.0,0.0,0.0,0.0,0.0,0.0,0.0,0.0,0.0,0.0,0.0,0.0,0.0,0.0,0.0,0.0,0.0,0.0,0.0,0.0,0.0,0.0,0.0,0.0,0.0,0.0,0.0,0.0,0.0,0.0,0.0,0.0,0.0,0.0,0.0,0.0,0.0,0.0,0.0,0.0,0.0,0.0,0.0,0.0,0.0,0.0,0.0,0.0,0.0,0.0,0.0,0.0,0.0,0.0,0.0,0.0,0.0,0.0,0.0,0.0,0.0,0.0,0.0,0.0,0.0,0.0,0.0,0.0,0.0,0.0,0.0,0.0,0.0,0.0,0.0,0.0,0.0,0.0,0.0,0.0,0.0,0.0,0.0,0.0,0.0,0.0,0.0,0.0,0.0,0.0,0.0,0.0,0.0,0.0,0.0,0.0,0.0,0.0,0.0,0.0,0.0,0.0,0.0,0.0,0.0,0.0,0.0,0.0,0.0,0.0,0.0,0.0,0.0,0.0,0.0,0.0,0.0,0.0,0.0,0.0,0.0,0.0,0.0,0.0,0.0,0.0,0.0,0.0,0.0,0.0,0.0,0.0,0.0,0.0,0.0,0.0,0.0,0.0,0.0,0.0,0.0,0.0,0.0,0.0,0.0,0.0,0.0,0.0,0.0,0.0,0.0,0.0,0.0,0.0,0.0,0.0,0.0,0.0,0.0,0.0,0.0,0.0,0.0,0.0,0.0,0.0,0.0,0.0,0.0,0.0,0.0,0.0,0.0,0.0,0.0,0.0,0.0,0.0,0.0,0.0,0.0,0.0,0.0,0.0,0.0,0.0,0.0,0.0,0.0,0.0,0.0,0.0,0.0,0.0,0.0,0.0,0.0,0.0,0.0,0.0,0.0,0.0,0.0,0.0,0.0,0.0,0.0,0.0,0.0,0.0,0.0,0.0,0.0,0.0,0.0,0.0,0.0,0.0,0.0,0.0,0.0,0.0,0.0,0.0,0.0,0.0,0.0,0.0,0.0,0.0,0.0,0.0,0.0,0.0,0.0,0.0,0.0,0.0,0.0,0.0,0.0,0.0,0.0,0.0,0.0,0.0,0.0,0.0,0.0,0.0,0.0,0.0,0.0,0.0,0.0,0.0,0.0,0.0,0.0,0.0,0.0,0.0,0.0,0.0,0.0,0.0,0.0,0.0,0.0,0.0,0.0,0.0,0.0,0.0,0.0,0.0,0.0,0.0,0.0,0.0,0.0,0.0,0.0,0.0,0.0,0.0,0.0,0.0,0.0,0.0,0.0,0.0,0.0,0.0,0.0,0.0,0.0,0.0,0.0,0.0,0.0,0.0,0.0,0.0,0.0,0.0,0.0,0.0,0.0,0.0,0.0,0.0,0.0,0.0,0.0,0.0,0.0,0.0,0.0,0.0,0.0,0.0,0.0,0.0,0.0,0.0,0.0,0.0,0.0,0.0,0.0,0.0,0.0,0.0,0.0,0.0,0.0,0.0,0.0,0.0,0.0,0.0,0.0,0.0,0.0,0.0,0.0,0.0,0.0,0.0,0.0,0.0,0.0,0.0,0.0,0.0,0.0,0.0,0.0,0.0,0.0,0.0,0.0,0.0,0.0,0.0,0.0,0.0,0.0,0.0,0.0,0.0,0.0,0.0,0.0,0.0,0.0,0.0,0.0,0.0,0.0,0.0,0.0,0.0,0.0,0.0,0.0,0.0,0.0,0.0,0.0,0.0,0.0,0.0,0.0,0.0,0.0,0.0,0.0,0.0,0.0,0.0,0.0,0.0,0.0,0.0,0.0,0.0,0.0,0.0,0.0,0.0,0.0,0.0,0.0,0.0,0.0,0.0,0.0,0.0,0.0,0.0,0.0,0.0,0.0,0.0,0.0,0.0,0.0,0.0,0.0,0.0,0.0,0.0,0.0,0.0,0.0,0.0,0.0,0.0,0.0,0.0,0.0,0.0,0.0,0.0,0.0,0.0,0.0,0.0,0.0,0.0,0.0,0.0,0.0,0.0,0.0,0.0,0.0,0.0,0.0,0.0,0.0,0.0,0.0,0.0,0.0,0.0,0.0,0.0,0.0,0.0,0.0,0.0,0.0,0.0,0.0,0.0,0.0,0.0,0.0,0.0,0.0,0.0,0.0,0.0,0.0,0.0,0.0,0.0,0.0,0.0,0.0,0.0,0.0,0.0,0.0,0.0,0.0,0.0,0.0,0.0,0.0,0.0,0.0,0.0,0.0,0.0,0.0,0.0,0.0,0.0,0.0,0.0,0.0,0.0,0.0,0.0,0.0,0.0,0.0,0.0,0.0,0.0,0.0,0.0,0.0,0.0,0.0,0.0,0.0,0.0,0.0,3.7595,0.0,0.0,0.0,0.0,0.0,0.0,0.0,0.0,0.0,0.0,0.0,0.0,0.0,0.0,0.0,0.0,0.0,0.0,0.0,0.0,0.0,0.0,0.0,0.0,0.0,0.0,0.0,0.0,0.0,0.0,0.0,0.0,0.0,0.0,0.0,0.0,0.0,0.0,0.0,3.2756,3.2995,3.3375,3.2542,3.2314,3.2576,0.0,0.0,0.0,0.0,0.0,0.0,0.0,0.0,0.0,0.0,0.0,0.0,0.0,0.0,0.0,0.0,0.0,0.0,0.0,0.0,0.0,0.0,0.0,0.0,0.0,0.0,0.0,0.0,0.0,0.0,0.0,0.0,0.0,0.0,0.0,0.0,0.0,0.0,0.0,0.0,0.0,0.0,0.0,0.0,0.0,0.0,0.0,0.0,0.0,0.0,0.0,0.0,0.0,0.0,0.0,0.0,0.0,0.0,0.0,0.0,0.0,0.0,0.0,0.0,0.0,0.0,0.0,0.0,0.0,0.0,0.0,3.7595,0.0,0.0,0.0,0.0,0.0,0.0,0.0,0.0,0.0,0.0,0.0,0.0,0.0,0.0,0.0,0.0,0.0,0.0,0.0,0.0,0.0,0.0,0.0,0.0,0.0,0.0,0.0,0.0,0.0,0.0,0.0,0.0,0.0,0.0,0.0,0.0,0.0,3.3325,3.3374,3.3393,3.3393,3.3393,3.3319,3.3139,3.315,0.0,0.0,0.0,0.0,0.0,0.0,0.0,0.0,0.0,0.0,0.0,0.0,0.0,0.0,0.0,0.0,0.0,0.0,0.0,0.0,0.0,0.0,0.0,0.0,0.0,0.0,0.0,0.0,0.0,0.0,0.0,0.0,0.0,0.0,0.0,0.0,0.0,0.0,0.0,0.0,0.0,0.0,0.0,0.0,0.0,0.0,0.0,0.0,0.0,0.0,0.0,0.0,0.0,0.0,0.0,0.0,0.0,0.0,0.0,0.0,0.0,0.0,0.0,3.8673,3.8995,3.9012,3.9619,3.9904,3.9833,3.854,3.7996,3.7996,0.0,0.0,0.0,0.0,0.0,0.0,0.0,0.0,0.0,0.0,0.0,0.0,0.0,0.0,0.0,0.0,0.0,0.0,0.0,0.0,0.0,0.0,0.0,0.0,0.0,0.0,0.0,0.0,0.0,0.0,0.0,0.0,0.0,0.0,3.3331,3.3404,3.3396,3.3404,3.3393,3.3393,3.3393,3.3396,3.3356,3.3307,3.3269,3.3247,0.0,0.0,0.0,0.0,0.0,0.0,0.0,0.0,0.0,0.0,0.0,0.0,0.0,0.0,0.0,0.0,0.0,0.0,0.0,0.0,0.0,0.0,0.0,0.0,0.0,0.0,0.0,0.0,0.0,0.0,0.0,0.0,0.0,0.0,0.0,0.0,0.0,0.0,0.0,0.0,0.0,3.7442,3.7549,0.0,0.0,0.0,0.0,0.0,0.0,0.0,0.0,0.0,0.0,0.0,0.0,0.0,3.8638,3.8638,3.928,3.9601,3.9601,3.9708,3.9744,3.9762,3.9869,3.9904,3.9886,3.969,0.0,3.9601,3.9601,0.0,0.0,0.0,0.0,0.0,0.0,0.0,0.0,0.0,0.0,0.0,0.0,0.0,0.0,0.0,0.0,0.0,0.0,0.0,0.0,0.0,0.0,0.0,0.0,0.0,0.0,0.0,0.0,0.0,0.0,0.0,0.0,3.3344,3.3389,3.3393,3.3393,3.3393,3.3393,3.3411,3.3864,3.4074,3.4092,3.4524,3.4179,3.3303,3.3247,0.0,0.0,0.0,0.0,0.0,0.0,0.0,0.0,0.0,0.0,0.0,0.0,0.0,0.0,0.0,0.0,0.0,0.0,0.0,0.0,0.0,0.0,0.0,0.0,0.0,0.0,0.0,0.0,0.0,0.0,0.0,0.0,0.0,0.0,0.0,0.0,0.0,0.0,0.0,3.7595,3.7595,3.7595,3.7595,3.7595,0.0,0.0,0.0,0.0,0.0,0.0,0.0,0.0,0.0,3.8879,3.9226,3.9423,3.9423,4.019,4.0564,4.0582,4.1492,4.192,4.1938,4.2348,4.2544,4.2544,4.2544,4.2544,4.2391,4.0626,4.0172,4.0546,0.0,0.0,0.0,0.0,0.0,4.0806,0.0,0.0,0.0,0.0,0.0,0.0,0.0,0.0,0.0,0.0,0.0,0.0,0.0,0.0,0.0,3.2144,0.0,0.0,0.0,0.0,0.0,0.0,0.0,3.3322,3.3322,3.3374,3.3502,3.3719,3.3719,3.381,3.4019,3.4635,3.4906,3.4925,3.5532,3.5103,3.3936,3.3936,3.3936,3.3936,0.0,0.0,0.0,0.0,0.0,0.0,0.0,0.0,0.0,0.0,0.0,0.0,0.0,0.0,0.0,0.0,0.0,0.0,0.0,0.0,0.0,0.0,0.0,0.0,0.0,0.0,0.0,0.0,0.0,0.0,0.0,0.0,0.0,0.0,0.0,0.0,0.0,3.7595,3.7595,3.7595,3.7595,3.7595,0.0,0.0,0.0,0.0,0.0,0.0,3.9048,3.9084,3.9423,4.019,4.0404,4.0618,4.0832,4.1599,4.2002,4.2009,4.3204,4.3775,4.3811,4.4353,4.4614,4.4614,4.4614,4.4624,4.4478,4.2073,4.1456,4.1984,4.1787,4.2073,4.2619,4.2619,4.2619,4.2626,0.0,0.0,0.0,0.0,0.0,0.0,0.0,0.0,0.0,0.0,0.0,0.0,0.0,0.0,3.2169,3.2198,3.2904,3.3349,0.0,0.0,0.0,3.3396,3.3386,3.3386,3.3386,3.3404,3.3766,3.4544,3.4544,3.4925,3.5677,3.5713,3.5739,3.5731,3.5776,3.575,3.5677,3.5677,3.5677,3.5677,3.5677,0.0,0.0,0.0,0.0,0.0,0.0,0.0,0.0,0.0,0.0,0.0,0.0,0.0,0.0,0.0,0.0,0.0,0.0,0.0,0.0,0.0,0.0,0.0,0.0,0.0,0.0,0.0,0.0,0.0,0.0,0.0,0.0,0.0,0.0,0.0,0.0,0.0,0.0,3.7595,3.7595,0.0,0.0,0.0,0.0,3.8745,3.9387,3.9797,3.9851,3.9851,4.0208,4.1002,4.178,4.2547,4.3311,4.4061,4.4417,4.4417,4.4507,4.4542,4.4549,4.4578,4.4614,4.4614,4.4614,4.4668,4.4775,4.4478,4.44,4.4353,4.365,4.3401,4.3436,4.3436,4.3436,4.3543,0.0,0.0,0.0,0.0,0.0,0.0,0.0,0.0,0.0,0.0,0.0,0.0,0.0,3.2795,3.2977,3.2977,3.323,3.3393,3.3393,0.0,0.0,3.3393,3.3393,3.3647,3.4164,3.4164,3.4562,3.5377,3.5377,3.5522,3.5812,3.6327,3.657,3.6588,3.7114,3.7341,3.7277,3.6246,3.5804,3.5804,3.5804,3.5796,0.0,0.0,0.0,0.0,0.0,0.0,0.0,0.0,0.0,0.0,0.0,0.0,0.0,0.0,0.0,0.0,0.0,0.0,0.0,0.0,0.0,0.0,0.0,0.0,0.0,0.0,0.0,0.0,0.0,0.0,0.0,0.0,0.0,0.0,0.0,0.0,0.0,3.7595,3.8068,0.0,3.838,3.9066,3.9512,3.9512,4.0225,4.0895,4.1413,4.1938,4.2562,4.3329,4.3633,4.3918,4.4221,4.497,4.5425,4.5519,4.655,4.7066,4.7133,4.7647,4.788,4.7868,4.78,4.7789,4.7812,4.7674,4.6782,4.5465,4.5215,4.5368,4.5749,4.5749,4.5749,4.5784,0.0,0.0,0.0,0.0,0.0,0.0,0.0,0.0,0.0,0.0,0.0,3.2814,3.3339,3.3393,3.3393,3.3393,3.3393,3.3393,3.3393,0.0,0.0,3.3791,3.4056,3.4454,3.4997,3.4997,3.5395,3.62,3.62,3.6345,3.6608,3.7168,3.7393,3.743,3.7955,3.82,3.8128,3.7051,3.6616,3.6616,3.6616,3.6616,3.6616,0.0,0.0,0.0,0.0,0.0,0.0,0.0,0.0,0.0,0.0,0.0,0.0,0.0,0.0,0.0,0.0,0.0,0.0,0.0,0.0,0.0,0.0,0.0,0.0,0.0,0.0,0.0,0.0,0.0,0.0,0.0,0.0,0.0,0.0,0.0,3.7996,3.7996,3.8701,3.9173,3.9173,4.0101,4.0707,4.0707,4.1729,4.256,4.3047,4.3663,4.4328,4.5054,4.5372,4.5662,4.5913,4.6711,4.7145,4.7178,4.831,4.8847,4.8863,4.9436,4.9693,4.9711,4.9612,4.9582,4.9629,4.9542,4.8651,4.7301,4.7167,4.741,4.7834,4.7788,4.7799,4.7834,0.0,0.0,0.0,0.0,0.0,0.0,0.0,0.0,0.0,0.0,3.2404,3.3393,3.3393,3.3393,3.3393,3.3393,3.3393,3.3393,3.3393,3.3429,0.0,3.4599,3.5369,3.5812,3.5848,3.5848,3.6236,3.7049,3.7049,3.7448,3.82,3.82,3.82,3.82,3.82,3.82,3.82,3.82,3.82,3.82,3.82,3.82,3.82,0.0,0.0,0.0,0.0,0.0,0.0,0.0,0.0,0.0,0.0,0.0,0.0,0.0,0.0,0.0,0.0,0.0,0.0,0.0,0.0,0.0,0.0,0.0,0.0,0.0,0.0,0.0,0.0,0.0,0.0,0.0,0.0,0.0,3.7782,3.8344,3.8834,3.8834,3.9512,3.9976,3.9976,4.1431,4.2369,4.2369,4.3892,4.4779,4.466,4.4946,4.5397,4.6061,4.6977,4.7805,4.8542,4.9315,4.9635,4.9512,4.9665,4.9683,4.9548,4.9718,4.9794,4.9794,4.9776,4.9845,4.997,4.997,4.997,4.9925,4.9489,4.9401,4.9489,4.9365,4.9401,4.9501,0.0,0.0,0.0,0.0,0.0,0.0,0.0,0.0,0.0,0.0,3.2404,3.3393,3.3393,3.3393,3.3393,3.3393,3.3393,3.3393,3.3393,0.0,0.0,3.5424,3.5677,3.6065,3.6661,3.6661,3.7059,3.7865,3.7865,3.7983,3.82,3.82,3.82,3.82,3.82,3.82,3.82,3.82,3.82,3.82,3.82,3.82,3.82,0.0,0.0,0.0,0.0,0.0,0.0,0.0,0.0,0.0,0.0,0.0,0.0,0.0,0.0,0.0,0.0,0.0,0.0,0.0,0.0,0.0,0.0,0.0,0.0,0.0,0.0,0.0,0.0,0.0,0.0,0.0,0.0,3.9512,3.9307,3.9458,3.9601,3.9601,4.0806,4.1645,4.1645,4.3054,4.3971,4.3971,4.5036,4.5663,4.5619,4.6837,4.7621,4.7815,4.8627,4.9171,4.9369,4.9585,4.9727,4.9796,5.0425,5.0748,5.0823,5.1442,5.1736,5.1725,5.1632,5.1608,5.1632,5.1531,5.1496,5.1358,5.009,4.9612,4.9635,4.9489,4.9465,4.9501,0.0,0.0,0.0,0.0,0.0,0.0,0.0,0.0,0.0,0.0,3.2404,3.3393,3.3393,3.3393,3.3393,3.3393,3.3393,3.3538,3.3875,0.0,3.5802,3.6272,3.6649,3.7072,3.7533,3.7574,3.781,3.8232,3.8232,3.8234,3.82,3.82,3.839,3.8707,3.8707,3.8871,3.9152,3.9152,3.8997,3.8707,3.8707,3.8508,3.82,3.82,3.8165,3.8105,3.8036,3.7984,3.7933,3.7819,0.0,0.0,0.0,0.0,0.0,0.0,0.0,0.0,0.0,0.0,0.0,0.0,0.0,0.0,0.0,0.0,0.0,0.0,0.0,0.0,0.0,0.0,0.0,0.0,4.0768,4.1127,4.1489,4.1227,4.0982,4.0982,4.2377,4.3362,4.3432,4.4489,4.5354,4.5749,4.661,4.7258,4.7525,4.8573,4.9145,4.91,4.992,5.0375,5.0375,5.07,5.0874,5.0915,5.1442,5.1712,5.173,5.2258,5.2498,0.0,5.2417,5.2382,5.2382,5.2293,5.2269,0.0,0.0,0.0,0.0,0.0,5.054,5.051,0.0,0.0,0.0,0.0,0.0,0.0,0.0,0.0,0.0,0.0,0.0,3.3302,3.3393,3.3393,3.3393,3.3393,3.3484,3.3918,0.0,0.0,3.7031,3.7138,3.7884,3.8299,3.8299,3.836,3.8368,3.8305,3.8305,3.8282,3.8216,3.8325,3.8733,3.9423,3.9522,3.9903,4.0501,4.0501,4.0121,3.9523,3.9423,3.8925,3.82,3.82,3.814,3.8009,3.8009,3.7985,3.7925,3.7916,0.0,0.0,0.0,0.0,0.0,0.0,0.0,0.0,0.0,0.0,0.0,0.0,0.0,0.0,0.0,0.0,0.0,0.0,0.0,0.0,0.0,0.0,0.0,0.0,4.2257,4.304,4.384,4.334,4.2887,4.2787,4.4075,4.4993,4.5116,4.5821,4.6635,4.7463,4.8347,4.9079,4.968,0.0,0.0,0.0,0.0,5.1441,5.1441,5.2136,5.244,5.2323,5.244,5.244,5.2323,5.2452,5.2498,5.2498,5.2498,5.2498,5.2498,5.2498,5.2498,5.2486,5.2234,5.2198,5.2287,5.2186,5.2066,0.0,0.0,0.0,0.0,0.0,0.0,0.0,0.0,0.0,0.0,3.0926,3.1843,3.2687,3.3339,3.3393,3.3393,3.3393,3.3983,3.501,0.0,3.6864,3.7309,3.8028,3.82,3.8299,3.8299,3.836,3.8382,3.8385,3.8385,3.8377,3.8387,3.9034,3.9385,3.9509,4.0161,4.0472,4.0501,4.0501,4.0429,4.0247,3.9641,3.8925,3.82,3.82,3.8174,3.8157,3.8157,3.8149,3.8141,3.801,3.7933,3.7837,3.7721,3.764,0.0,0.0,0.0,0.0,0.0,0.0,0.0,0.0,0.0,0.0,0.0,0.0,0.0,0.0,0.0,0.0,0.0,0.0,0.0,4.3172,4.3981,4.4584,4.4749,4.5225,4.5307,4.4594,4.5346,4.5932,4.5971,4.7208,4.8088,4.8272,4.9152,4.9724,4.9846,5.062,0.0,5.1027,5.1817,5.2274,5.2274,5.2426,5.2486,5.2463,0.0,0.0,5.2463,5.2486,5.2498,5.2498,5.2498,5.2498,5.2498,5.2498,5.2498,5.2498,5.2452,5.237,5.2311,5.2387,5.2346,5.2228,0.0,0.0,0.0,0.0,0.0,0.0,0.0,0.0,0.0,0.0,3.1698,3.2506,3.3302,3.3393,3.3393,3.3393,3.4508,0.0,3.7054,3.7455,3.7855,3.8336,3.8377,3.8401,3.8401,3.8507,3.8512,3.8454,3.8454,3.843,3.8417,3.9229,3.9798,4.0176,4.0968,4.1497,4.1805,4.1723,4.1461,4.1035,4.0266,3.9496,3.8762,3.8345,3.82,3.82,3.82,3.82,3.8192,3.8114,3.8037,3.7951,3.7862,3.7801,3.7748,0.0,0.0,0.0,0.0,0.0,0.0,0.0,0.0,0.0,0.0,0.0,0.0,0.0,0.0,4.2199,0.0,0.0,4.3952,4.4417,4.5155,4.5681,4.5732,4.647,4.6658,4.576,4.6722,4.7483,4.7536,4.8539,4.9404,4.9875,5.034,5.0783,5.1169,5.1642,5.1912,5.1912,5.2281,5.2498,5.2498,5.2498,5.2498,5.2498,5.2498,5.2498,5.2498,5.2498,5.2498,5.2498,5.2498,5.2498,5.2498,5.2498,5.2498,5.2498,5.2498,5.2463,5.2405,5.2405,5.2358,5.2287,0.0,0.0,0.0,0.0,0.0,0.0,0.0,0.0,0.0,0.0,3.1462,3.227,3.3085,3.3302,3.3538,0.0,0.0,3.6279,3.734,3.7974,3.8346,3.839,3.847,3.851,3.851,3.8624,3.865,3.8533,3.8533,3.8502,3.8483,3.9278,3.9984,4.0634,4.1513,4.2268,4.2877,4.2893,4.2448,4.1632,4.0827,4.0048,3.9305,3.8508,3.82,3.82,3.82,3.82,3.82,3.82,3.8114,3.8001,3.8001,3.8049,3.8124,3.8124,3.824,0.0,0.0,0.0,0.0,0.0,0.0,0.0,0.0,4.1248,4.2195,4.2841,4.3568,4.4276,4.4924,4.5178,4.5328,4.5438,4.6081,4.6661,4.6936,4.7526,4.7711,4.7102,4.8038,4.8829,4.9108,4.9759,5.0489,5.123,5.1441,5.1821,5.2462,5.2498,5.2498,5.2498,5.2498,5.2498,5.2498,5.2498,5.2498,5.2498,5.2498,5.2498,5.2498,5.2498,5.2498,5.2498,5.2498,5.2498,5.2498,5.2498,5.2498,5.2498,5.2498,5.2498,5.2486,5.2382,5.2335,5.2323,0.0,0.0,0.0,0.0,0.0,0.0,0.0,0.0,0.0,0.0,0.0,0.0,0.0,0.0,0.0,0.0,3.5745,3.6544,3.8079,3.8298,3.8382,3.8399,3.847,3.851,3.851,3.8624,3.8699,3.8673,3.8673,3.8666,3.8676,3.9491,3.9847,3.9886,4.1344,4.2004,4.206,4.2639,4.2448,4.1632,4.0827,4.0048,3.9305,3.8508,3.82,3.82,3.82,3.82,3.82,3.82,3.8114,3.8001,3.8001,3.8446,3.8978,3.8978,3.9481,4.0057,4.0111,4.0147,4.0137,4.0087,4.1202,4.2294,0.0,4.348,4.4602,4.4702,4.4893,4.5065,4.5155,4.5805,4.6346,4.6357,4.7026,4.7805,4.854,4.8721,4.8992,4.959,4.9199,4.9162,4.9901,5.0687,5.1194,5.1296,5.1955,5.2408,5.2498,5.2498,5.2498,5.2498,5.2498,5.2498,5.2498,5.2498,5.2498,5.2498,5.2498,5.2498,5.2498,5.2498,5.2498,5.2498,5.2498,5.2498,5.2498,5.2498,5.2498,5.2498,5.2498,5.2498,5.2498,5.2486,5.2475,5.2475,0.0,0.0,0.0,0.0,0.0,0.0,0.0,0.0,0.0,0.0,0.0,0.0,0.0,0.0,0.0,3.5778,3.5944,3.6687,3.8415,3.8488,3.8486,3.857,3.8601,3.8616,3.8616,3.8666,3.8699,3.8699,3.8699,3.8699,3.8718,3.9523,3.9852,3.9792,4.0842,4.1266,4.1214,4.1425,4.1316,4.0926,4.0166,3.993,3.9967,3.9197,3.9152,3.9478,3.9052,3.8907,0.0,3.9387,3.9506,3.9453,3.9453,3.9661,3.9914,3.9914,4.0158,4.051,4.0933,4.1678,4.2322,4.2272,4.3129,4.4004,4.4004,4.4577,4.5248,4.567,4.5854,4.6088,4.6558,4.6962,4.7345,0.0,4.8177,4.8684,4.9492,4.9601,4.989,5.0698,5.0488,5.0434,5.0771,5.1531,5.2002,5.2002,5.2299,5.2498,5.2498,5.2498,5.2498,5.2498,5.2498,5.2498,5.2498,5.2498,5.2498,5.2498,5.2498,5.2498,5.2498,5.2498,5.2498,5.2498,5.2498,5.2498,5.2498,5.2498,5.2498,5.2498,5.2498,5.2498,5.2498,5.2498,5.2498,5.2498,0.0,0.0,0.0,0.0,0.0,0.0,0.0,0.0,0.0,0.0,0.0,0.0,0.0,0.0,0.0,3.5519,3.5874,3.6672,3.819,3.8457,3.8575,3.865,3.8673,3.8699,3.8699,3.8699,3.8699,3.8699,3.8699,3.8699,3.8707,3.9294,3.9538,3.954,4.0175,4.0437,4.0395,4.0464,4.0501,4.0447,3.993,4.0021,4.0447,3.9912,4.003,4.0429,3.9894,3.9695,3.9786,4.032,4.0501,4.0501,4.0501,4.0646,4.0836,4.0836,4.1153,4.1659,4.2389,4.3386,4.4219,4.4188,4.4803,4.5418,4.5418,4.566,4.6047,4.6579,4.6768,4.7001,4.7598,4.7888,4.8214,4.8811,4.9083,4.951,5.0318,5.0427,5.0735,5.155,5.164,5.164,5.164,5.2154,5.2498,5.2498,5.2498,5.2498,5.2498,5.2498,5.2498,5.2498,5.2498,5.2498,5.2498,5.2498,5.2498,5.2498,5.2498,5.2498,5.2498,5.2498,5.2498,5.2516,5.2733,5.2824,5.2842,5.3078,5.3168,5.3168,5.3168,5.3168,5.3168,5.3168,5.2878,5.2498,0.0,0.0,0.0,0.0,0.0,0.0,0.0,0.0,0.0,0.0,0.0,0.0,0.0,0.0,3.3829,3.4665,3.556,3.6423,3.7205,3.8156,3.865,3.8517,3.8624,3.8699,3.8699,3.8699,3.8699,3.8699,3.8699,3.8699,3.8699,3.8718,3.8736,3.8765,3.9368,3.9641,3.9679,4.0254,4.0501,4.0501,4.0483,4.0483,4.0501,4.0483,4.0483,4.0501,4.0474,4.0465,4.0474,4.0492,4.0501,4.0501,4.0501,4.1044,4.165,4.165,4.2764,4.4148,4.4899,4.5174,4.5243,4.5178,4.5807,4.6457,4.6457,4.7055,4.7634,4.7652,4.7652,4.7671,4.7707,4.834,4.8884,4.8902,4.9546,5.0336,5.1151,5.126,5.1568,5.2383,5.2462,5.2462,0.0,5.2491,5.2498,5.2498,5.2498,5.2498,5.2498,5.2498,5.2498,5.2498,5.2498,5.2498,5.2498,5.2498,5.2498,5.2498,5.2498,5.2498,5.2498,5.2498,5.2498,5.2534,5.3313,5.3657,5.3729,5.4508,5.4834,5.4834,5.4834,5.4834,5.4834,5.4834,5.3838,5.2498,0.0,0.0,0.0,0.0,0.0,0.0,0.0,0.0,0.0,0.0,0.0,0.0,0.0,0.0,0.0,0.0,3.5158,3.5952,3.7311,3.7712,3.8112,3.8606,3.8684,3.8699,3.8699,3.8699,3.8699,3.8699,3.8699,3.8699,3.8699,3.8699,3.8658,3.8585,3.8778,3.8826,3.8748,3.8954,3.9004,3.9025,3.955,4.0048,4.0555,4.1089,4.1623,4.2085,0.0,4.1759,4.1379,4.1904,4.2085,4.2085,4.2085,4.2285,4.2592,4.3136,4.4059,4.4955,4.5196,4.5659,4.6095,4.6065,4.6672,4.729,4.729,4.7508,4.7707,4.7707,4.8123,4.8503,4.8503,4.9148,4.9872,5.0416,5.0716,5.1187,5.1984,5.2111,5.2202,5.2462,5.2498,0.0,0.0,0.0,0.0,5.2498,5.2498,5.2498,5.2498,5.2498,5.2498,5.2498,5.2498,5.2498,5.2498,5.2498,5.2498,5.2498,5.2498,5.2498,5.2516,5.3041,5.3295,5.3331,5.4146,5.4508,5.4526,5.4798,5.4894,5.4894,5.4894,5.4894,5.4894,5.4894,5.4562,5.4092,0.0,0.0,0.0,0.0,0.0,0.0,0.0,0.0,0.0,0.0,0.0,0.0,0.0,0.0,0.0,0.0,0.0,3.5463,3.6541,3.718,3.7724,3.8256,3.856,3.8699,3.8699,3.8699,3.8699,3.8699,3.8699,3.8699,3.8699,3.8699,3.8658,3.8567,3.8494,3.8425,3.833,3.8282,3.8559,3.9061,3.9586,4.0419,4.1406,4.1931,4.2448,0.0,4.2892,4.2574,4.2203,4.2729,4.2892,4.2892,4.2892,4.3091,4.3544,4.4649,4.5327,4.5798,4.6087,4.654,4.6928,4.6928,4.7308,4.7707,4.7707,4.7707,4.7779,4.8069,4.854,4.8992,4.9282,4.9992,5.0698,5.1224,5.155,5.1912,5.2426,5.2498,5.2498,5.2498,5.2498,5.2498,0.0,0.0,0.0,5.2498,5.2498,5.2498,5.2498,5.2498,5.2498,5.2498,5.2498,5.2498,5.2498,5.2498,5.2498,5.2498,5.2788,5.2933,5.2951,5.3766,5.4128,5.4182,5.4961,5.5287,5.5323,5.5595,5.5721,5.5721,5.5721,5.5721,5.5721,5.5721,5.5721,5.5649,0.0,0.0,0.0,0.0,0.0,0.0,0.0,0.0,0.0,0.0,0.0,0.0,0.0,0.0,0.0,0.0,0.0,0.0,3.4997,3.6486,3.7419,3.7492,3.8238,3.867,3.8699,3.8699,3.8699,3.8699,3.8699,3.8699,3.8699,3.8699,3.8699,3.8692,3.8488,3.8399,3.8382,3.8266,3.9052,4.0392,4.0429,4.1379,4.2783,4.2819,4.2855,4.2892,4.2892,4.2892,4.2892,4.2892,4.2892,4.291,4.2946,4.3507,4.4467,4.6051,4.654,4.6729,4.7489,4.7707,4.7707,4.7707,4.7707,4.7707,4.7707,4.7707,4.7924,4.8739,4.8938,4.9209,5.001,5.0825,5.1368,5.1368,5.2002,5.2498,5.2498,5.2498,5.2498,0.0,0.0,0.0,0.0,0.0,0.0,5.2498,0.0,5.2498,5.2498,5.2498,5.2498,5.2498,5.2498,5.2498,5.2498,5.2498,5.2516,5.257,5.3331,5.3729,5.3784,5.4599,5.4961,5.5003,5.574,5.606,5.6132,5.688,5.7188,5.7188,5.7188,5.7188,5.7188,5.7188,5.7188,5.6989,0.0,0.0,0.0,0.0,0.0,0.0,0.0,0.0,0.0,0.0,0.0,0.0,0.0,0.0,0.0,0.0,0.0,0.0,3.4961,3.5408,3.6193,3.7456,3.7694,3.8091,3.8689,3.8699,3.8699,3.8699,3.8699,3.8699,3.8699,3.8699,3.8699,3.8699,3.8544,3.8446,3.839,3.8305,3.8477,3.8852,3.9441,4.0256,4.1171,4.1786,4.2375,4.2892,4.2892,4.2892,4.2892,4.2892,4.2892,4.3,4.3616,4.4359,4.5182,4.6196,4.691,4.7435,4.7634,4.7707,4.7707,4.7707,4.7707,4.7707,4.7707,4.7707,4.7924,4.8739,4.9383,5.0046,5.0843,5.1658,5.219,5.219,5.2383,0.0,5.2498,5.2498,0.0,5.2498,0.0,5.2498,5.2498,5.2498,0.0,0.0,5.2498,5.2498,5.2498,5.2498,5.2498,5.2498,5.2498,5.2498,5.2498,5.2498,5.2806,5.3403,5.3603,5.4019,5.4617,5.5377,5.5721,5.5758,5.6536,5.688,5.6899,5.7116,5.7188,5.7188,5.7188,5.7188,5.7188,5.7188,5.7188,5.7134,0.0,0.0,0.0,0.0,0.0,0.0,0.0,0.0,0.0,0.0,0.0,0.0,0.0,0.0,0.0,0.0,0.0,0.0,0.0,3.4795,3.5426,3.6358,3.7107,3.7713,3.8157,3.8524,3.8699,3.8699,3.8699,3.8699,3.8699,3.8699,3.8699,3.8699,3.8528,3.8438,3.839,3.8289,3.8442,0.0,0.0,3.984,4.0583,4.1397,4.1986,4.2411,4.2765,4.2892,4.2892,4.2892,4.3127,4.358,4.4377,4.5182,4.5979,4.6783,4.7345,4.7707,4.7707,4.7707,4.7707,4.7707,4.7707,4.7797,4.8159,4.8232,4.8449,4.9257,4.9793,5.0354,5.1151,5.1676,5.2082,5.2444,5.2498,5.2498,5.2498,5.2498,5.2503,0.0,5.2542,0.0,5.2542,5.2542,5.2531,0.0,5.2498,5.2498,5.2498,5.2498,5.2498,5.2498,5.2498,5.2498,5.2498,5.2842,5.3241,5.3711,5.4381,5.4943,5.5414,5.6187,5.6531,5.6536,0.0,5.7188,5.7188,5.7188,5.7188,5.7188,5.7188,5.7188,5.7188,5.7188,5.7188,5.7188,0.0,0.0,0.0,0.0,0.0,0.0,0.0,0.0,0.0,0.0,0.0,0.0,0.0,0.0,0.0,0.0,0.0,0.0,0.0,0.0,0.0,3.4997,3.6395,3.7272,3.7492,3.8182,3.8589,3.8699,3.8699,3.8699,3.8699,3.8699,3.8699,3.8692,3.8496,3.8407,3.8382,3.8274,3.8607,3.9233,3.9233,3.9695,4.0429,0.0,0.0,4.1813,4.262,4.2892,4.2892,4.2892,4.3435,4.425,4.5037,4.5852,4.6657,4.7453,4.7707,4.7707,4.7707,4.7707,4.7707,4.7707,4.7707,4.7888,4.8576,4.8739,4.8974,4.9775,4.9938,5.0227,5.1133,5.1296,5.1568,5.2371,5.2498,5.2498,5.2498,5.2521,5.2531,5.259,5.2631,5.2631,5.2631,5.2631,5.2586,5.2538,5.2526,5.2526,5.2515,5.251,5.2498,5.2498,5.2498,5.2552,5.2661,5.3349,5.3802,5.4019,5.5359,5.606,5.6187,5.688,5.7188,5.7188,0.0,0.0,5.7188,5.7188,5.7188,5.7188,5.7188,5.7188,5.7188,5.7188,5.7188,5.7188,0.0,0.0,0.0,0.0,0.0,0.0,0.0,0.0,0.0,0.0,0.0,0.0,0.0,0.0,0.0,0.0,0.0,0.0,0.0,0.0,0.0,0.0,3.5279,3.6075,3.7474,3.7639,3.8036,3.8699,3.8699,3.8699,3.8699,3.8699,3.8699,3.8699,3.8551,3.8454,3.839,3.8313,3.834,3.84,3.84,3.8889,3.9613,0.0,0.0,0.0,4.262,4.2892,4.2892,4.2892,4.3435,4.425,4.5037,4.5852,4.6657,4.7453,4.7707,4.7707,4.7707,4.7707,4.7707,4.7707,4.7707,4.7743,4.787,4.7906,4.8141,4.8938,4.9101,4.9553,5.1042,5.1296,5.1568,5.2371,5.2498,5.2498,5.2498,5.2554,5.2586,5.259,5.2698,5.2772,5.2772,5.2772,0.0,0.0,0.0,5.2694,5.2586,5.2519,5.2498,5.2498,5.2498,5.2824,5.3494,5.3639,5.4345,5.5595,5.5879,5.6337,5.6989,5.7134,5.7188,5.7188,5.7188,0.0,5.7188,5.7188,5.7188,5.7188,5.7188,5.7188,5.7188,5.7188,5.7188,5.7188,0.0,0.0,0.0,0.0,0.0,0.0,0.0,0.0,0.0,0.0,2.86,0.0,0.0,0.0,0.0,0.0,0.0,0.0,0.0,0.0,0.0,0.0,0.0,0.0,3.6186,3.6641,3.7265,3.8072,0.0,3.8285,3.8699,3.8624,3.8601,3.8601,3.8449,3.8368,3.8336,3.8282,3.8242,3.82,3.82,3.8436,0.0,0.0,0.0,0.0,4.262,4.2892,4.2892,4.2892,4.3435,4.425,4.5037,4.6142,4.72,4.758,4.7707,4.7707,4.7707,4.7707,4.7707,4.7707,4.7707,4.7815,4.8232,4.8322,4.8431,4.8829,4.8902,4.9137,4.9908,5.0379,5.0934,5.1737,5.2266,5.2547,5.2547,5.2649,5.2721,5.2798,5.2861,5.2893,5.2893,5.2893,5.289,5.2813,0.0,5.2772,5.271,5.266,5.2663,5.2663,5.2588,5.2946,5.3733,5.4134,5.4888,5.6005,5.641,5.6839,5.7188,5.7188,5.7188,5.7188,5.7188,0.0,5.7188,5.7188,5.7188,5.7188,5.7188,5.7188,5.7188,5.7188,5.7188,5.7188,0.0,0.0,0.0,0.0,0.0,0.0,0.0,2.865,2.8669,2.8606,2.86,2.8697,2.8905,2.9517,0.0,0.0,0.0,0.0,0.0,0.0,0.0,0.0,0.0,0.0,0.0,0.0,0.0,3.7235,3.7419,0.0,0.0,0.0,0.0,0.0,3.8368,3.8305,3.8299,3.8232,3.8217,0.0,0.0,3.82,0.0,0.0,0.0,0.0,0.0,4.2892,4.2892,4.2892,4.3435,4.4204,4.4838,4.6033,4.7218,4.7381,4.7435,4.7471,4.7652,4.7707,4.7707,4.7707,4.7707,4.787,4.8503,4.8648,4.8648,4.8648,4.8648,4.8713,4.8898,4.9608,5.0398,5.1218,5.2077,5.2635,5.2635,5.2761,5.2872,5.2988,5.302,0.0,5.3042,5.3042,0.0,5.289,0.0,0.0,5.2794,5.2817,5.2817,5.2794,5.2862,5.3267,5.4044,5.4791,5.5529,5.6259,5.6911,5.7188,5.7188,5.7188,5.7188,5.7188,5.7188,0.0,0.0,5.7188,5.7188,5.7188,5.7188,5.7188,5.7188,5.7188,5.7188,5.7188,0.0,0.0,0.0,0.0,0.0,0.0,0.0,2.8803,2.8875,2.8631,2.86,2.8878,2.9628,2.9818,0.0,0.0,0.0,0.0,0.0,0.0,0.0,0.0,0.0,0.0,0.0,0.0,0.0,3.642,3.7144,0.0,0.0,0.0,0.0,0.0,0.0,3.8352,3.8299,3.829,0.0,0.0,0.0,0.0,0.0,0.0,0.0,0.0,0.0,4.2892,4.2892,4.2892,4.3435,4.4114,4.4186,4.4802,4.5653,4.6413,4.6602,4.6776,4.7508,4.7707,4.7707,4.7707,4.7707,4.7725,4.7797,4.7815,4.7815,4.7815,4.7815,4.8064,4.8924,4.9727,5.0559,5.1431,5.2244,5.2783,5.2783,5.2893,5.2988,5.2999,5.3103,0.0,5.3175,5.3175,5.3175,0.0,0.0,0.0,5.2806,5.2923,5.2934,5.2794,5.3505,5.4196,5.4886,5.5686,5.6424,5.708,5.7152,5.7188,5.7188,5.7188,5.7188,5.7188,5.7188,0.0,0.0,5.7188,5.7188,5.7188,5.7188,5.7188,5.7188,5.7188,5.7188,5.7188,0.0,0.0,0.0,0.0,0.0,0.0,0.0,2.8785,2.8894,2.9259,2.9318,2.9633,3.043,3.0976,0.0,0.0,0.0,0.0,0.0,0.0,0.0,0.0,0.0,0.0,0.0,0.0,3.4632,3.5525,3.5837,0.0,0.0,0.0,0.0,0.0,0.0,3.8248,3.8232,3.8232,0.0,0.0,0.0,0.0,0.0,0.0,0.0,0.0,0.0,0.0,4.2892,4.2892,4.3109,4.3381,4.3381,4.3598,4.4105,4.5399,4.6468,4.7182,4.7019,4.7327,4.7707,4.7707,4.7707,4.7707,4.7707,4.7707,4.7707,4.7707,4.7707,4.7839,4.8299,4.9039,4.9853,5.0742,5.1609,5.2375,5.285,5.3039,5.3114,5.3114,5.3175,5.3196,0.0,0.0,5.3196,0.0,0.0,0.0,5.3049,5.3092,5.3092,5.3039,5.3741,5.4471,5.5229,5.5955,5.6667,5.7313,5.7313,5.7276,5.7188,5.7188,5.7188,5.7188,5.7188,0.0,0.0,5.7188,5.7188,5.7188,5.7188,5.7188,5.7188,5.7188,5.7188,5.7188,0.0,0.0,0.0,0.0,0.0,0.0,2.9303,2.9234,2.9399,3.0076,3.0147,3.0466,3.1263,3.1861,3.2345,3.2696,0.0,0.0,0.0,0.0,0.0,0.0,0.0,0.0,0.0,0.0,0.0,3.4656,3.4834,3.5549,0.0,0.0,3.7468,3.8022,0.0,0.0,0.0,0.0,0.0,0.0,0.0,0.0,0.0,0.0,0.0,0.0,0.0,0.0,0.0,0.0,0.0,4.2892,4.2892,4.3055,4.3471,4.4603,4.5924,4.692,4.6584,4.7102,4.7707,4.7707,4.7707,4.7707,4.7707,4.7707,4.7707,4.7707,4.7707,4.7749,4.7904,4.859,4.9425,5.037,5.1269,5.2126,5.2961,5.3153,5.3196,5.3196,0.0,5.3196,0.0,5.3196,5.3196,0.0,0.0,0.0,0.0,5.3196,5.3196,5.3196,5.4129,5.4862,5.5395,5.6339,5.7012,5.7388,5.7388,5.7344,5.7188,5.7188,5.7188,5.7188,0.0,0.0,0.0,5.7188,5.7188,5.7188,5.7188,5.7188,5.7188,5.7188,5.7188,5.7188,0.0,0.0,0.0,0.0,0.0,0.0,0.0,3.0305,3.0595,3.0932,3.0998,3.1281,3.2089,3.218,3.256,3.3411,0.0,0.0,0.0,0.0,0.0,0.0,0.0,0.0,0.0,0.0,0.0,3.3807,3.4475,3.4848,3.4956,3.643,3.7116,3.7152,0.0,0.0,0.0,0.0,0.0,0.0,0.0,0.0,0.0,0.0,0.0,0.0,0.0,0.0,0.0,0.0,0.0,0.0,0.0,4.3453,4.4077,4.4105,4.4693,4.549,4.6287,4.7102,4.7707,4.7707,4.7707,4.7707,4.7707,4.7707,4.7707,4.7707,4.7707,4.7762,4.7951,4.8666,4.9549,5.0615,5.1463,5.227,5.3086,5.3196,5.3196,5.3196,5.3196,5.3196,5.3196,5.3196,0.0,0.0,0.0,0.0,0.0,5.3196,5.3196,5.3196,5.4748,5.553,5.5395,5.6987,5.7661,5.7388,5.7388,5.7344,5.7188,5.7188,5.7188,0.0,0.0,0.0,0.0,5.7188,5.7188,5.7188,5.7188,5.7188,5.7188,5.7188,5.7188,5.7188,0.0,0.0,0.0,0.0,0.0,0.0,0.0,3.1154,3.128,3.1764,3.1825,3.2132,3.294,3.3013,3.3129,3.3412,0.0,0.0,0.0,0.0,0.0,0.0,0.0,0.0,0.0,0.0,0.0,3.3732,3.3892,3.4585,3.5729,3.6105,3.6863,3.7935,3.8115,3.82,0.0,0.0,0.0,0.0,0.0,0.0,0.0,0.0,0.0,0.0,0.0,0.0,0.0,0.0,0.0,0.0,0.0,0.0,0.0,4.3272,4.4621,4.6051,4.5761,4.6667,4.7707,4.7707,4.7707,4.7707,4.7707,4.7707,4.7707,4.7707,4.777,4.7873,4.7972,4.8271,4.9029,5.0552,5.1004,5.1646,5.3012,5.3196,5.3196,5.3196,5.3196,5.3196,0.0,0.0,0.0,0.0,0.0,0.0,0.0,5.3196,5.3196,5.3196,5.4748,5.5581,5.5548,5.7132,5.7857,5.7673,5.7673,5.7613,5.7461,5.7461,0.0,0.0,0.0,0.0,0.0,5.7443,5.7412,5.7344,5.7344,5.7276,5.7188,5.7188,5.7188,5.7188,0.0,0.0,0.0,0.0,0.0,0.0,0.0,3.1955,3.2022,3.2578,3.2651,3.2832,3.3357,3.3393,3.3393,3.3393,0.0,0.0,0.0,0.0,0.0,0.0,0.0,0.0,0.0,0.0,3.352,3.3657,3.357,3.4229,3.5578,3.5763,3.6562,3.7822,3.808,0.0,0.0,0.0,0.0,0.0,0.0,0.0,3.82,0.0,0.0,0.0,0.0,0.0,0.0,0.0,0.0,0.0,0.0,0.0,0.0,0.0,4.4178,4.5544,4.5345,4.625,4.7308,4.7616,4.7707,4.7699,4.7759,4.7788,4.778,4.7814,4.7876,4.7976,4.806,4.813,4.8776,5.0525,5.0802,5.1361,5.2976,0.0,0.0,5.3196,0.0,0.0,0.0,0.0,0.0,0.0,0.0,0.0,0.0,5.3196,5.3196,5.3196,5.4748,5.5603,5.5603,5.72,5.7939,5.7792,5.7792,5.7733,5.7601,5.7601,0.0,0.0,0.0,0.0,0.0,5.7565,5.7553,5.7461,5.7412,5.7356,5.7282,5.7213,5.7188,5.7188,0.0,0.0,0.0,0.0,0.0,0.0,0.0,0.0,0.0,0.0,3.3393,3.3393,3.3393,3.3393,0.0,0.0,0.0,0.0,0.0,0.0,0.0,0.0,0.0,0.0,0.0,3.343,3.3466,3.3598,3.3521,3.3937,3.4803,3.5543,3.6309,3.7122,3.7865,3.82,0.0,0.0,0.0,0.0,0.0,0.0,0.0,0.0,0.0,0.0,0.0,0.0,0.0,0.0,0.0,0.0,0.0,0.0,0.0,0.0,0.0,0.0,0.0,4.5888,4.6693,4.7508,4.7707,4.7738,4.7871,4.7892,0.0,4.799,4.8012,4.806,4.8177,4.8197,4.8786,5.0525,5.0802,5.1361,0.0,5.3196,0.0,0.0,5.3196,0.0,5.3196,0.0,0.0,0.0,0.0,0.0,0.0,5.3196,5.3196,5.3196,5.4711,5.5548,5.5603,5.7134,5.7884,5.7815,5.7815,5.7745,5.7637,5.7637,0.0,0.0,0.0,0.0,0.0,5.7625,5.7625,5.7601,5.748,5.7412,5.7406,5.7251,5.7201,5.7201,0.0,0.0,0.0,0.0,0.0,0.0,0.0,0.0,0.0,0.0,0.0,3.3393,3.3393,3.3393,0.0,0.0,0.0,0.0,0.0,0.0,0.0,0.0,0.0,0.0,0.0,3.3418,3.3437,3.352,3.4072,3.4764,3.5638,3.6367,3.715,3.7929,3.8118,3.82,3.82,0.0,0.0,0.0,0.0,0.0,0.0,0.0,0.0,0.0,3.9369,4.0148,0.0,0.0,0.0,0.0,0.0,0.0,0.0,0.0,4.3036,4.3489,4.491,0.0,4.6693,4.7508,4.7707,4.7738,0.0,4.7892,4.7933,4.799,4.808,4.8168,4.8187,4.8237,4.8827,5.0517,5.0802,5.1361,5.2976,5.3196,0.0,5.3196,5.3196,5.3196,0.0,0.0,0.0,0.0,0.0,5.3196,0.0,5.3196,5.3196,5.3196,5.4161,5.4979,5.5585,5.6583,5.7368,5.795,5.795,5.7939,5.7916,5.7916,0.0,0.0,0.0,0.0,5.7756,5.7851,5.7857,5.7745,5.7721,5.7649,5.7541,5.74,5.7338,5.7326,0.0,0.0,0.0,0.0,0.0,0.0,0.0,0.0,0.0,0.0,0.0,0.0,0.0,0.0,0.0,0.0,0.0,0.0,0.0,0.0,0.0,0.0,0.0,0.0,0.0,3.3755,3.3969,3.3996,3.4767,3.5582,3.6409,3.6812,3.743,3.82,3.82,3.82,3.82,3.82,3.82,3.82,3.82,0.0,0.0,0.0,0.0,0.0,3.9106,3.9876,0.0,4.1433,4.2221,4.2892,0.0,0.0,0.0,0.0,4.2892,4.3163,4.4403,4.5345,4.6232,4.7417,4.7707,4.7731,4.7914,4.7955,4.7988,4.8111,4.8198,4.8237,4.8237,4.8598,4.9315,5.06,5.1114,0.0,0.0,0.0,5.3196,5.3196,5.3196,5.3196,0.0,0.0,0.0,0.0,0.0,5.3196,0.0,5.3196,5.3196,5.3196,5.3618,5.4234,5.5053,5.6216,5.7024,5.7446,5.7813,5.7997,5.7997,5.7997,5.7962,0.0,0.0,0.0,5.7904,5.7973,5.7962,5.7892,5.7815,5.7756,5.7673,5.7541,5.7486,5.7492,0.0,0.0,0.0,0.0,0.0,0.0,0.0,0.0,0.0,0.0,0.0,0.0,0.0,0.0,0.0,0.0,0.0,0.0,0.0,0.0,0.0,0.0,0.0,3.3393,3.3393,3.4182,3.4599,3.4599,3.5522,3.6327,3.6995,3.7122,3.7557,3.82,3.82,3.82,3.82,3.82,3.82,3.82,3.82,0.0,0.0,0.0,0.0,0.0,0.0,0.0,0.0,4.1433,4.2221,4.2892,4.2892,0.0,0.0,0.0,0.0,0.0,4.3888,4.4695,4.5691,4.7177,4.7648,4.7772,4.7972,4.8022,4.8082,4.8258,4.8296,4.8333,4.8471,4.9105,4.9894,5.0839,0.0,0.0,5.3104,5.3196,5.3196,5.3196,5.3196,0.0,0.0,0.0,0.0,0.0,0.0,5.3196,0.0,5.3196,5.3196,5.3196,5.3196,5.3526,5.4216,5.5691,5.651,5.6627,5.7428,5.7813,5.7813,5.7941,5.7997,0.0,0.0,0.0,5.7997,5.7997,5.7997,5.7985,5.7862,5.7827,5.7815,5.7685,5.7637,5.7637,0.0,0.0,0.0,0.0,0.0,0.0,0.0,0.0,0.0,0.0,0.0,0.0,0.0,0.0,0.0,0.0,0.0,0.0,0.0,0.0,0.0,0.0,3.3393,3.3393,3.3393,3.4182,3.4599,3.4599,3.6099,3.6886,3.7013,3.7701,3.8074,3.82,3.82,3.82,3.82,3.82,3.82,3.82,3.82,0.0,0.0,0.0,0.0,0.0,0.0,0.0,0.0,4.1433,4.2221,4.2892,4.2892,0.0,0.0,0.0,0.0,0.0,4.3888,4.4762,4.5683,4.6618,4.7362,4.7933,4.8118,4.8168,4.8189,4.8277,4.8296,4.8526,4.9252,4.9519,5.0088,5.1565,0.0,5.3067,0.0,0.0,5.3196,5.3196,0.0,0.0,0.0,0.0,0.0,0.0,0.0,0.0,0.0,5.3196,5.3196,5.3196,5.3196,5.3269,5.3379,5.4308,5.5115,5.5787,5.6602,5.6976,5.7012,5.7685,5.7997,0.0,0.0,5.7997,5.7997,5.7997,5.7997,5.7997,5.7973,5.7973,5.795,5.7815,5.7768,5.7745,0.0,0.0,0.0,0.0,0.0,0.0,0.0,0.0,0.0,0.0,0.0,0.0,0.0,0.0,0.0,0.0,0.0,0.0,0.0,0.0,0.0,0.0,3.3393,3.361,3.4037,3.4834,3.545,3.59,3.7077,3.7647,3.7665,3.8019,3.82,3.82,3.82,3.82,3.82,3.82,3.82,3.82,0.0,0.0,0.0,0.0,0.0,0.0,0.0,0.0,0.0,0.0,4.2221,4.2892,4.2892,0.0,0.0,0.0,0.0,0.0,4.3344,4.4455,4.5595,4.599,4.7047,4.7998,4.8158,4.8197,4.8226,4.8295,4.8296,4.8563,4.9435,4.9968,5.0784,5.2399,0.0,5.3196,5.3196,5.3196,5.3196,0.0,0.0,0.0,0.0,0.0,0.0,0.0,0.0,0.0,0.0,0.0,5.3196,5.3196,5.3196,5.3196,5.3196,5.3563,5.4161,5.495,5.5776,5.6143,5.618,5.6987,5.7354,5.7373,0.0,5.7997,5.7997,5.7997,5.7997,5.7997,5.7997,5.7997,5.7997,5.7939,5.7916,5.7904,0.0,0.0,0.0,0.0,0.0,0.0,0.0,0.0,0.0,0.0,0.0,0.0,0.0,0.0,0.0,0.0,0.0,0.0,0.0,0.0,3.3393,3.3393,3.3585,3.3965,3.4581,3.5395,3.62,3.6995,3.781,3.82,3.82,3.82,3.82,3.82,3.82,3.82,3.82,3.82,3.82,3.82,0.0,0.0,0.0,0.0,0.0,0.0,0.0,0.0,0.0,0.0,0.0,0.0,0.0,0.0,0.0,4.2892,4.2892,4.2946,4.3127,4.4329,4.558,4.5821,4.6972,4.808,4.8207,4.8226,4.8246,4.8287,4.8296,4.8618,4.9692,5.0692,0.0,5.2994,5.3196,5.3196,5.3196,5.3196,0.0,0.0,0.0,0.0,0.0,0.0,0.0,0.0,0.0,0.0,0.0,0.0,5.3196,5.3196,5.3196,5.3196,5.3196,5.3196,5.3508,5.4124,5.4932,5.5328,5.5346,5.6143,5.6528,5.6565,5.7373,5.7721,5.7721,5.7923,5.7997,5.7997,5.7997,5.7997,5.7997,5.7997,5.7997,5.7997,0.0,0.0,0.0,0.0,0.0,0.0,0.0,0.0,0.0,0.0,0.0,0.0,0.0,0.0,0.0,0.0,0.0,0.0,0.0,0.0,3.3393,3.3393,3.411,3.4544,3.4599,3.5395,3.62,3.6995,3.781,3.82,3.82,3.82,3.82,3.82,3.82,3.82,3.82,3.82,3.82,3.82,3.82,0.0,0.0,0.0,0.0,0.0,0.0,0.0,0.0,0.0,0.0,0.0,0.0,0.0,4.2892,4.2892,4.2892,4.3055,4.3815,4.4794,4.5776,4.6523,4.7459,4.8207,4.8286,4.8287,4.8296,4.8296,4.8296,4.8792,5.0417,5.1985,5.3067,5.3177,5.3196,5.3196,5.3196,0.0,0.0,0.0,0.0,0.0,0.0,0.0,0.0,0.0,0.0,0.0,0.0,0.0,0.0,5.3196,5.3196,5.3196,5.3196,5.3196,5.3232,5.3306,5.4106,5.4491,5.4509,5.5328,5.5695,5.5732,5.6547,5.6884,5.6939,5.7685,5.7997,5.7997,5.7997,5.7997,5.7997,5.7997,5.7997,5.7997,0.0,0.0,0.0,0.0,0.0,0.0,0.0,0.0,0.0,0.0,0.0,0.0,0.0,0.0,0.0,0.0,0.0,0.0,0.0,0.0,3.3628,3.411,3.4436,3.5077,3.6063,3.6389,3.6932,3.7756,3.8055,3.82,3.82,3.82,3.82,3.82,3.82,3.82,3.82,3.82,3.82,3.82,3.82,3.849,0.0,0.0,0.0,0.0,0.0,0.0,0.0,0.0,4.2892,4.2892,4.2892,4.2892,4.2892,4.2892,4.2892,4.3092,4.3983,4.4907,4.5805,4.6693,4.7613,4.8276,4.8296,4.8296,4.8296,4.8296,4.8728,4.9619,5.1242,5.2443,5.3196,5.3196,5.3196,5.3196,5.3196,0.0,0.0,0.0,0.0,0.0,0.0,0.0,0.0,0.0,0.0,0.0,0.0,0.0,0.0,5.3196,5.3196,5.3196,5.3196,5.3196,5.3196,5.3196,5.3508,5.3654,5.3673,5.4491,5.484,5.4895,5.5702,5.6051,5.6069,5.6393,5.6804,5.7299,5.7795,5.7997,5.7997,5.7997,5.7997,5.7997,0.0,0.0,0.0,0.0,0.0,0.0,0.0,0.0,0.0,0.0,0.0,0.0,0.0,0.0,0.0,0.0,0.0,0.0,0.0,3.3647,3.4019,3.4581,3.5095,3.5882,3.6977,3.7249,3.7647,3.82,3.82,3.82,3.82,3.8225,3.8242,3.8242,3.8242,3.8242,3.8242,3.8217,3.82,3.8218,3.8472,3.8907,0.0,0.0,0.0,0.0,0.0,0.0,0.0,0.0,4.2892,4.2892,4.2892,4.2892,4.2919,4.2947,4.3138,4.3547,4.4469,4.5365,4.6264,4.7145,4.7835,4.8296,4.8296,4.8296,4.8296,4.8296,4.9205,5.039,5.1748,5.2656,0.0,0.0,5.3196,5.3196,0.0,0.0,0.0,0.0,0.0,0.0,0.0,0.0,0.0,0.0,0.0,0.0,0.0,0.0,0.0,0.0,5.3196,5.3196,5.3196,5.3196,5.3196,5.3196,5.3196,5.3196,5.3214,5.3765,5.4014,5.4069,5.4858,5.5218,5.5236,5.5493,5.5923,5.6473,5.7024,5.7244,5.7244,5.7244,5.7244,5.7244,0.0,0.0,0.0,0.0,0.0,0.0,0.0,0.0,0.0,0.0,0.0,0.0,0.0,0.0,0.0,0.0,0.0,0.0,0.0,3.4164,3.4617,3.4617,3.6154,3.6995,3.7013,3.7792,3.82,3.82,3.82,3.82,3.8209,3.8266,3.8299,3.8299,3.8299,3.8299,3.8299,3.8234,3.8209,3.8273,3.9088,3.9414,3.9595,0.0,0.0,0.0,0.0,0.0,0.0,0.0,4.2892,4.2892,4.2892,4.2892,4.2929,4.3049,4.3668,4.4487,4.5365,4.6291,4.7182,4.7996,4.8247,4.8296,4.8296,4.8296,4.8296,4.8315,4.9646,5.1041,5.1858,5.2656,0.0,5.3196,5.3196,0.0,0.0,0.0,0.0,0.0,0.0,0.0,0.0,0.0,0.0,0.0,0.0,0.0,0.0,0.0,0.0,0.0,5.3196,5.3196,5.3196,5.3196,5.3196,5.3196,5.3196,5.3196,5.3196,5.3196,5.3196,5.3232,5.4051,5.4399,5.4454,5.5254,5.5585,5.5585,5.5603,5.5603,5.5603,5.5603,5.5603,5.5603,0.0,0.0,0.0,0.0,0.0,0.0,0.0,0.0,0.0,0.0,0.0,0.0,0.0,0.0,0.0,0.0,0.0,0.0,0.0,3.4472,3.5113,3.6244,3.6741,3.7267,3.782,3.8074,3.82,3.82,3.82,3.8216,3.8266,3.829,3.8299,3.8299,3.8299,3.8299,3.8335,3.8872,3.9109,3.9183,3.9981,4.059,4.1089,0.0,0.0,0.0,0.0,0.0,0.0,0.0,0.0,0.0,4.2929,4.2957,4.3049,4.3086,4.3706,4.4573,4.5488,4.6367,4.7201,4.8065,4.8295,4.8296,4.8296,4.8296,4.8627,4.9819,5.0443,5.1224,5.259,5.3031,0.0,5.3196,0.0,0.0,0.0,0.0,0.0,0.0,0.0,0.0,0.0,0.0,0.0,0.0,0.0,0.0,0.0,0.0,0.0,0.0,5.3196,5.3196,5.3196,5.3196,5.3196,5.3196,5.3196,5.3196,5.3196,5.3196,5.3196,5.3214,5.3453,5.3563,5.3618,5.4418,5.4748,5.4803,5.5383,5.5603,5.5603,5.5603,5.5603,5.5603,0.0,0.0,0.0,0.0,0.0,0.0,0.0,0.0,0.0,0.0,0.0,0.0,0.0,0.0,0.0,0.0,0.0,0.0,0.0,0.0,3.5991,3.6959,3.7303,3.7701,3.8182,3.82,3.8217,3.8232,3.8232,3.8257,3.8299,3.8354,3.8368,3.8368,3.8368,3.8569,3.8915,3.9364,3.9711,4.0085,4.0894,4.1459,4.186,0.0,0.0,0.0,0.0,0.0,0.0,0.0,0.0,0.0,4.3012,4.305,4.3142,4.3142,4.3998,4.5095,4.5681,4.6662,4.7634,4.8177,4.8296,4.8296,4.8296,4.8563,4.9187,5.0527,5.1041,5.1665,5.2957,5.3196,0.0,0.0,0.0,0.0,0.0,0.0,0.0,0.0,0.0,0.0,0.0,0.0,0.0,0.0,0.0,0.0,0.0,0.0,0.0,0.0,5.3196,5.3196,5.3196,5.3196,5.3196,5.3196,5.3196,5.3196,5.3196,5.3196,5.3196,5.3196,5.3196,5.3196,5.3232,5.371,5.3922,5.3977,5.4454,5.4638,5.4638,5.4638,5.4638,5.4638,0.0,0.0,0.0,0.0,0.0,0.0,0.0,0.0,0.0,0.0,3.3367,0.0,0.0,0.0,0.0,0.0,0.0,0.0,0.0,0.0,3.7031,3.7104,3.781,3.82,3.82,3.82,3.8242,3.829,3.8299,3.8307,3.8332,3.843,3.8546,3.8619,3.8619,3.9095,3.991,3.9855,4.0268,4.0997,4.18,4.212,4.2202,4.295,0.0,0.0,0.0,0.0,0.0,0.0,0.0,0.0,4.3123,4.316,4.3224,4.3315,4.451,4.5846,4.5975,4.7131,4.8296,4.8296,4.8296,4.8296,4.8296,4.9031,4.9913,5.0655,5.1444,5.2262,5.3049,5.3196,5.3196,0.0,0.0,0.0,0.0,0.0,0.0,0.0,0.0,0.0,0.0,0.0,0.0,0.0,0.0,0.0,0.0,0.0,0.0,5.3196,5.3196,5.3196,5.3196,5.3196,5.3196,0.0,5.3196,5.3196,5.3196,5.3196,5.3196,5.3196,5.3196,5.3196,5.3196,5.3196,5.3196,5.3196,5.3196,5.3196,5.3196,5.3196,5.3196,5.3196,0.0,0.0,0.0,0.0,0.0,0.0,0.0,0.0,0.0,0.0,0.0,0.0,0.0,0.0,0.0,0.0,0.0,0.0,0.0,0.0,3.7285,3.7919,3.8118,3.82,3.82,3.82,3.8209,3.8225,3.8274,3.8354,3.8454,3.8494,3.8875,3.9508,3.9508,3.9973,4.0786,4.14,4.1749,4.1978,4.2791,4.3031,4.2968,4.3249,4.3368,0.0,0.0,0.0,0.0,0.0,0.0,0.0,4.3214,4.3269,4.3477,4.4108,4.5041,4.6021,4.6672,4.7562,4.8296,4.8296,4.8296,4.8296,4.8296,4.9462,5.0582,5.0765,5.1444,5.2262,5.3049,5.3196,5.3196,0.0,0.0,0.0,0.0,0.0,0.0,0.0,0.0,0.0,0.0,0.0,0.0,0.0,0.0,0.0,0.0,0.0,0.0,5.3196,5.3196,5.3196,5.3196,5.3196,5.3196,0.0,5.3196,5.3196,5.3196,5.3196,5.3196,5.3196,5.3196,5.3196,5.3196,5.3196,5.3196,5.3196,5.3196,5.3196,5.3196,5.3196,5.3196,5.3196,0.0,0.0,0.0,0.0,0.0,0.0,0.0,0.0,0.0,0.0,0.0,0.0,0.0,0.0,0.0,0.0,0.0,0.0,0.0,0.0,0.0,3.8182,3.82,3.82,3.82,3.82,3.8225,3.8259,3.8695,3.8759,3.8454,3.8936,3.9415,3.9865,4.025,4.0873,4.165,4.208,4.2465,4.286,4.329,4.3402,4.3339,4.341,4.3455,4.3455,4.3489,0.0,0.0,0.0,0.0,0.0,0.0,0.0,4.3602,4.4373,4.5215,4.6085,4.6874,4.7691,4.8296,4.8296,4.8296,4.8296,4.8296,4.9599,5.0802,5.0802,5.1756,5.2711,5.3122,5.3196,0.0,0.0,0.0,0.0,0.0,0.0,0.0,0.0,0.0,0.0,0.0,0.0,0.0,0.0,0.0,0.0,0.0,5.3196,5.3196,5.3196,5.3196,5.3196,5.3196,5.3196,5.3196,5.3196,5.3196,5.3196,5.3196,5.3196,5.3196,5.3196,5.3196,5.3196,5.3196,5.3196,5.3196,5.3196,5.3196,5.3196,5.3196,5.3196,5.3196,5.3196,0.0,0.0,0.0,0.0,0.0,0.0,0.0,0.0,0.0,0.0,0.0,0.0,0.0,0.0,0.0,0.0,0.0,0.0,0.0,0.0,0.0,0.0,3.82,3.82,3.82,3.82,3.8306,3.85,3.9245,3.9331,3.8828,3.97,4.0183,4.0349,4.1012,4.1746,4.2506,4.2573,4.2933,4.3515,4.3556,4.3539,4.3506,4.3506,4.3506,4.3506,4.3506,4.3506,4.3506,4.3506,0.0,0.0,0.0,0.0,4.3672,4.4555,4.5343,4.6104,4.7039,4.7801,4.8296,4.8296,4.8296,4.8296,4.8296,4.9599,5.0802,5.0802,5.2076,5.3196,5.3196,5.3196,0.0,0.0,0.0,0.0,0.0,0.0,0.0,0.0,0.0,0.0,0.0,0.0,0.0,0.0,0.0,0.0,5.3196,5.3196,5.3196,5.3196,5.3196,5.3196,5.3196,5.3196,5.3196,5.3196,5.3196,5.3196,5.3196,5.3196,5.3196,5.3196,5.3196,5.3196,5.3196,5.3196,5.3196,5.3196,5.3196,5.3196,5.3196,5.3196,5.3196,5.3196,0.0,0.0,0.0,0.0,0.0,0.0,0.0,0.0,0.0,0.0,3.6069,0.0,0.0,0.0,0.0,0.0,0.0,0.0,3.8046,0.0,0.0,3.82,3.82,3.82,3.82,3.82,3.8553,3.925,3.9493,3.9888,4.0489,4.0801,4.1305,4.1974,4.2084,4.2598,4.3358,4.3647,4.3681,4.354,4.3822,4.3765,4.3506,4.3506,4.3506,4.3506,4.3506,4.3506,4.3506,4.3506,4.3506,0.0,0.0,0.0,4.38,4.5287,4.5801,4.6232,4.7728,4.8223,4.8296,4.8296,4.8296,4.8296,4.8296,4.9599,5.0802,0.0,5.2076,5.3196,5.3196,0.0,0.0,0.0,0.0,0.0,0.0,0.0,0.0,0.0,0.0,0.0,0.0,0.0,0.0,0.0,5.3196,0.0,5.3196,5.3196,5.3196,5.3196,5.3196,5.3196,5.3196,5.3196,5.3196,5.3196,5.3196,5.3196,5.3196,5.3196,5.3196,5.3196,5.3196,5.3196,5.3196,5.3196,5.3196,5.3196,5.3196,5.3196,5.3196,5.3196,5.3196,5.3196,0.0,0.0,0.0,0.0,0.0,0.0,0.0,0.0,0.0,0.0,0.0,3.7891,0.0,0.0,0.0,3.8121,3.8091,3.8114,3.82,3.82,3.82,3.82,3.82,3.82,3.82,3.8635,3.9059,3.9464,4.0465,4.1152,4.1605,4.2172,4.2396,4.2323,4.2763,4.3176,4.3515,4.3657,4.3632,4.3505,4.3657,4.3632,4.3506,4.3506,4.3506,4.3506,4.3506,4.3506,4.3506,4.3506,4.3506,4.3506,4.3506,0.0,0.0,0.0,4.5902,4.625,4.7856,4.8296,4.8296,4.8296,4.8296,4.8296,4.8296,4.9599,5.0802,5.0802,5.2076,5.3196,0.0,0.0,0.0,0.0,0.0,0.0,0.0,0.0,0.0,0.0,0.0,0.0,0.0,0.0,0.0,0.0,5.3196,5.3196,5.3196,5.3196,5.3196,5.3196,5.3196,5.3196,5.3196,5.3196,5.3196,5.3196,5.3196,5.3196,5.3196,5.3196,5.3196,5.3196,5.3196,5.3196,5.3196,5.3196,5.3196,5.3196,5.3196,5.3196,5.3196,5.3196,5.3196,5.3196,0.0,0.0,0.0,0.0,0.0,0.0,0.0,0.0,0.0,0.0,0.0,0.0,0.0,0.0,0.0,0.0,3.8439,3.8186,3.8289,3.8232,3.8224,3.8289,3.8232,3.8291,3.8508,3.9114,3.9655,4.0105,4.1401,4.2208,4.2524,4.3196,4.3176,4.2635,4.3231,4.3558,4.3624,4.3624,4.3624,4.3624,4.3624,4.3573,4.3506,4.3506,4.3506,4.3506,4.3506,4.3506,4.3506,4.3506,4.3506,4.3506,4.3506,4.3506,0.0,0.0,0.0,4.6507,4.7911,4.8296,4.8296,4.8296,4.8296,4.8296,4.8296,4.9444,5.0545,0.0,5.1922,5.2957,0.0,0.0,0.0,0.0,0.0,0.0,0.0,0.0,0.0,0.0,0.0,0.0,0.0,0.0,0.0,0.0,5.3196,5.3196,5.3196,5.3196,5.3196,5.3196,5.3196,5.3196,5.3196,5.3196,5.3196,5.3196,5.3196,5.3196,5.3196,5.3196,5.3196,5.3196,5.3196,5.3196,5.3196,5.3196,5.3196,5.3196,5.3196,5.3196,5.3196,5.3196,5.3196,5.3196,0.0,0.0,0.0,0.0,0.0,0.0,0.0,0.0,0.0,0.0,0.0,0.0,3.9292,3.9389,3.9221,3.8666,3.8592,3.8569,3.8577,3.8346,3.8313,3.8561,3.8338,0.0,3.9323,3.9436,4.0242,4.1778,4.2054,4.2588,4.333,4.3444,4.3469,4.3433,4.3469,4.3674,4.3974,4.3974,4.3974,4.3974,4.3974,4.379,4.3506,4.3506,4.3506,4.3506,4.3506,0.0,0.0,0.0,0.0,0.0,0.0,4.3506,4.3671,0.0,0.0,0.0,4.8076,4.8296,4.8296,4.8296,4.8296,4.8296,4.8296,4.9013,4.9876,5.0637,5.1463,5.2289,0.0,0.0,0.0,0.0,0.0,0.0,0.0,0.0,0.0,0.0,0.0,0.0,0.0,0.0,0.0,0.0,5.3196,5.3196,5.3196,5.3196,5.3196,5.3196,5.3196,5.3196,5.3196,5.3196,5.3196,5.3196,5.3196,5.3196,5.3196,5.3196,5.3196,5.3196,5.3196,5.3196,5.3196,5.3196,5.3196,5.3196,5.3196,5.3196,5.3196,5.3196,5.3196,5.3196,0.0,0.0,0.0,0.0,0.0,0.0,0.0,0.0,0.0,0.0,0.0,0.0,0.0,3.9495,3.9313,3.9181,3.8971,3.8857,3.8857,3.8615,3.8721,3.9334,3.911,3.9333,4.0093,4.0716,4.1341,4.1967,4.2628,4.3145,4.3454,4.3497,4.3506,4.3515,4.3724,4.3894,4.4005,4.4005,4.4005,4.3981,4.3773,4.3607,4.3506,4.3506,4.3506,0.0,0.0,0.0,0.0,0.0,0.0,0.0,0.0,0.0,4.3763,4.5076,4.6608,4.7929,4.8223,4.8296,4.8296,4.8296,4.8296,4.8296,4.8296,4.8967,4.9821,5.0637,5.1444,5.2262,0.0,0.0,0.0,0.0,0.0,0.0,0.0,0.0,0.0,0.0,0.0,0.0,0.0,0.0,0.0,0.0,0.0,0.0,5.3196,5.3196,5.3196,5.3196,5.3196,5.3196,5.3196,5.3196,5.3196,5.3196,5.3196,5.3196,5.3196,5.3196,5.3196,5.3196,5.3196,5.3196,5.3196,5.3196,5.3196,5.3196,5.3196,5.3196,5.3196,5.3196,5.3196,5.3196,0.0,0.0,0.0,0.0,0.0,0.0,0.0,0.0,0.0,0.0,0.0,0.0,0.0,0.0,3.9501,3.9495,3.9189,3.9161,3.9542,3.9326,3.9537,4.034,4.0085,4.0269,4.0953,4.1702,4.2269,4.2592,4.3273,4.3625,4.3666,4.3548,4.3556,4.3682,4.3991,4.4136,4.4128,4.4033,4.4048,4.4098,4.3664,4.3506,4.3506,4.3506,0.0,0.0,0.0,0.0,0.0,0.0,0.0,0.0,0.0,0.0,0.0,4.5516,4.6856,4.7966,4.8223,4.8296,4.8296,4.8296,4.8296,4.8296,4.8296,4.8746,4.9399,5.0233,5.1051,5.183,0.0,0.0,0.0,0.0,0.0,0.0,0.0,0.0,0.0,0.0,0.0,0.0,0.0,0.0,0.0,0.0,0.0,0.0,5.3196,5.3196,5.3196,5.3196,5.3196,5.3196,5.3196,5.3196,5.3196,5.3196,5.3196,5.3196,5.3196,5.3196,5.3196,5.3196,5.3196,5.3196,5.3196,5.3196,5.3196,5.3196,5.3196,5.3196,5.3196,5.3196,5.3196,5.3196,0.0,0.0,0.0,0.0,0.0,0.0,0.0,0.0,0.0,0.0,0.0,0.0,0.0,0.0,0.0,3.9576,3.9253,3.9549,4.0678,4.0492,4.0709,4.153,4.1224,4.1341,4.195,4.2353,4.2955,4.3788,4.3921,4.3997,4.3981,4.3666,4.3691,4.4002,4.4282,4.4404,4.4383,4.4128,4.4155,4.4346,4.3761,4.3523,4.3506,0.0,0.0,0.0,4.3506,4.3524,0.0,4.3543,0.0,0.0,0.0,0.0,0.0,0.0,0.0,4.7314,0.0,0.0,0.0,4.8296,4.8296,4.8296,4.8296,0.0,4.8545,4.9427,5.0225,5.1004,0.0,0.0,0.0,0.0,0.0,0.0,0.0,0.0,0.0,0.0,0.0,0.0,0.0,0.0,0.0,0.0,5.3196,5.3196,5.3196,5.3196,5.3196,5.3196,5.3196,5.3196,5.3196,5.3196,5.3196,5.3196,5.3196,5.3196,5.3196,5.3196,5.3196,5.3196,5.3196,5.3196,5.3196,5.3196,5.3196,5.3196,5.3196,5.3196,5.3196,5.3196,5.3196,5.3196,0.0,0.0,0.0,0.0,0.0,0.0,0.0,0.0,0.0,0.0,0.0,0.0,3.99,3.99,4.0119,4.0687,4.0636,4.0969,4.1872,4.1688,4.1887,4.2684,4.2404,4.26,4.341,4.3627,4.3739,4.3788,4.3921,0.0,0.0,0.0,0.0,4.4028,4.4472,4.4688,4.4682,4.4605,4.4395,4.4113,4.4129,4.3886,0.0,0.0,0.0,0.0,0.0,4.3864,4.4378,0.0,4.4911,4.5535,0.0,0.0,0.0,0.0,0.0,4.8021,4.8241,0.0,0.0,0.0,0.0,0.0,0.0,0.0,4.8545,4.9427,4.9776,5.0188,0.0,0.0,0.0,0.0,0.0,0.0,0.0,0.0,0.0,0.0,0.0,0.0,0.0,0.0,0.0,0.0,5.3196,5.3196,5.3196,5.3196,5.3196,5.3196,5.3196,5.3196,5.3196,5.3196,5.3196,5.3196,5.3196,5.3196,5.3196,5.3196,5.3196,5.3196,5.3196,5.3196,5.3196,5.3196,5.3196,5.3196,5.3196,5.3196,5.3196,5.3196,5.3196,5.3196,0.0,0.0,0.0,0.0,0.0,0.0,0.0,0.0,0.0,0.0,0.0,0.0,4.0393,0.0,4.0772,4.163,4.1706,4.2047,4.288,4.2823,4.3045,4.3705,4.3587,4.3693,4.4113,0.0,0.0,0.0,0.0,0.0,0.0,0.0,0.0,0.0,4.4657,4.4794,4.4838,4.5313,4.4997,4.4181,4.4214,0.0,0.0,4.3934,4.409,0.0,0.0,0.0,4.5195,4.5195,4.5516,0.0,0.0,0.0,0.0,0.0,0.0,4.8296,4.8296,4.8296,4.8296,4.8296,0.0,0.0,4.8296,4.8296,4.8434,0.0,4.9344,4.9729,5.0196,0.0,0.0,0.0,0.0,0.0,0.0,0.0,0.0,0.0,0.0,0.0,0.0,5.3196,5.3196,5.3196,5.3196,5.3196,5.3196,5.3196,5.3196,5.3196,5.3196,5.3196,5.3196,5.3196,5.3196,5.3196,5.3196,5.3196,5.3196,5.3196,5.3196,5.3196,5.3196,5.3196,5.3196,5.3196,5.3196,5.3196,5.3196,5.3196,5.3196,5.3196,5.3196,5.3196,0.0,0.0,0.0,0.0,0.0,0.0,0.0,0.0,0.0,0.0,0.0,0.0,4.1232,0.0,0.0,0.0,4.2557,4.2923,4.3801,4.391,0.0,0.0,0.0,0.0,0.0,0.0,0.0,0.0,0.0,0.0,0.0,0.0,0.0,0.0,0.0,4.4863,4.5057,4.5978,4.5722,4.4706,4.452,4.437,0.0,0.0,4.4742,4.5294,4.4942,4.5351,4.6049,4.614,4.6177,0.0,0.0,0.0,0.0,0.0,4.7746,4.8296,4.8296,4.8296,4.8296,0.0,0.0,0.0,4.8296,4.8296,4.8296,0.0,4.8921,4.9454,4.9454,0.0,0.0,0.0,0.0,0.0,0.0,0.0,0.0,0.0,0.0,0.0,5.3196,5.3196,5.3196,5.3196,5.3196,5.3196,5.3196,5.3196,5.3196,5.3196,5.3196,5.3196,5.3196,5.3196,5.3196,5.3196,5.3196,5.3196,5.3196,5.3196,5.3196,5.3196,5.3196,5.3196,5.3196,5.3196,5.3196,5.3196,5.3196,5.3196,5.3196,5.3196,5.3196,5.3196,3.8938,0.0,0.0,0.0,0.0,0.0,0.0,0.0,0.0,0.0,0.0,4.127,4.2085,4.2206,0.0,0.0,4.3582,4.3952,4.4764,4.4832,0.0,0.0,0.0,0.0,0.0,0.0,0.0,0.0,0.0,0.0,0.0,0.0,0.0,0.0,0.0,4.5313,4.6147,4.5657,0.0,4.6827,4.6997,4.677,4.6334,4.6338,4.6265,4.6127,4.5788,4.6186,4.6947,4.7599,4.7829,4.7856,0.0,0.0,0.0,4.8076,0.0,0.0,0.0,0.0,0.0,0.0,0.0,0.0,4.8296,4.8296,4.8296,0.0,4.8434,4.8545,4.8545,4.927,0.0,0.0,0.0,0.0,0.0,0.0,0.0,0.0,0.0,0.0,5.3196,5.3196,5.3196,5.3196,5.3196,5.3196,5.3196,5.3196,5.3196,5.3196,5.3196,5.3196,5.3196,5.3196,5.3196,5.3196,5.3196,5.3196,5.3196,5.3196,5.3196,5.3196,5.3196,5.3196,5.3196,5.3196,5.3196,5.3196,5.3196,5.3196,5.3196,5.3196,5.3196,5.3196,3.9183,0.0,0.0,0.0,0.0,0.0,0.0,0.0,0.0,4.0544,4.1317,4.2185,4.3054,4.3177,4.3541,0.0,0.0,0.0,0.0,0.0,0.0,0.0,0.0,0.0,0.0,0.0,0.0,0.0,0.0,0.0,0.0,0.0,0.0,0.0,0.0,4.5771,4.6311,4.6557,4.718,4.7972,4.7529,0.0,4.7154,4.7147,4.7194,4.7189,4.686,4.715,4.7764,4.815,4.8296,0.0,0.0,4.8296,4.8296,0.0,4.8296,4.8296,0.0,0.0,0.0,4.8296,0.0,0.0,0.0,4.8296,4.8296,4.8296,4.8296,4.8296,4.8296,0.0,4.8958,0.0,0.0,0.0,0.0,0.0,0.0,0.0,0.0,0.0,5.3159,5.3196,5.3196,5.3196,5.3196,5.3196,5.3196,5.3196,5.3196,5.3196,5.3196,5.3196,5.3196,5.3196,5.3196,5.3196,5.3196,5.3196,5.3196,5.3196,5.3196,5.3196,5.3196,5.3196,5.3196,5.3196,5.3196,5.3196,5.3196,5.3196,5.3196,5.3196,5.3196,5.3196,3.9452,3.9551,0.0,0.0,0.0,0.0,0.0,0.0,4.1313,4.1666,4.231,4.3112,4.4037,4.413,4.4402,4.5068,0.0,0.0,0.0,0.0,0.0,0.0,0.0,4.5302,0.0,0.0,0.0,0.0,0.0,0.0,0.0,0.0,0.0,0.0,0.0,4.6449,4.6651,4.7666,4.8412,4.8845,0.0,4.766,4.7947,4.7897,4.8055,4.8276,4.7882,4.7978,4.8296,4.8296,4.8296,4.8296,4.8296,4.8296,0.0,0.0,0.0,0.0,0.0,0.0,0.0,0.0,0.0,4.8296,0.0,0.0,0.0,4.8296,4.8296,0.0,0.0,0.0,0.0,0.0,0.0,0.0,0.0,0.0,0.0,0.0,0.0,0.0,0.0,5.3104,5.3196,5.3196,5.3196,5.3196,5.3196,5.3196,5.3196,5.3196,5.3196,5.3196,5.3196,5.3196,5.3196,5.3196,5.3196,5.3196,5.3196,5.3196,5.3196,5.3196,5.3196,5.3196,5.3196,5.3196,5.3196,5.3196,5.3196,5.3196,5.3196,5.3196,5.3196,5.3196,3.9545,3.9682,3.9867,0.0,0.0,0.0,0.0,0.0,4.1747,4.3303,4.3636,4.4056,4.4874,4.502,4.5091,4.5186,0.0,0.0,4.5281,0.0,0.0,0.0,0.0,0.0,4.5302,0.0,0.0,0.0,0.0,0.0,0.0,0.0,0.0,0.0,4.6891,4.7649,4.8304,4.8166,4.8887,0.0,4.9649,4.9663,0.0,4.9637,4.9377,4.9074,4.8457,4.8243,4.8296,0.0,4.8296,4.8296,0.0,4.8296,4.8296,4.8296,0.0,0.0,0.0,0.0,0.0,0.0,4.8296,0.0,0.0,0.0,4.8296,4.8296,0.0,0.0,0.0,0.0,0.0,0.0,0.0,0.0,0.0,0.0,0.0,0.0,0.0,0.0,0.0,5.2774,5.3196,5.3196,5.3196,5.3196,5.3196,5.3196,5.3196,5.3196,5.3196,5.3196,5.3196,5.3196,5.3196,5.3196,5.3196,5.3196,5.3196,5.3196,5.3196,5.3196,5.3196,5.3196,5.3196,5.3196,5.3196,5.3196,5.3196,5.3196,5.3196,5.3196,5.3196,5.3196,3.9764,3.9815,4.0071,4.0569,0.0,0.0,0.0,0.0,4.3207,4.4448,4.4633,4.4794,4.517,4.5235,4.5265,4.5265,0.0,4.5302,0.0,0.0,0.0,0.0,0.0,0.0,0.0,0.0,0.0,0.0,4.6003,0.0,0.0,0.0,0.0,0.0,4.7548,4.8041,4.8379,0.0,4.9313,0.0,0.0,0.0,0.0,5.0069,4.9757,4.9206,4.8532,4.8296,4.8296,0.0,4.8296,0.0,0.0,0.0,0.0,0.0,0.0,0.0,0.0,0.0,0.0,0.0,0.0,0.0,4.8296,0.0,4.8296,0.0,0.0,0.0,0.0,0.0,0.0,0.0,4.8076,0.0,0.0,0.0,0.0,0.0,0.0,0.0,0.0,0.0,0.0,0.0,5.2939,5.3196,5.3196,5.3196,5.3196,5.3196,5.3196,5.3196,5.3196,5.3196,5.3196,5.3196,5.3196,5.3196,5.3196,5.3196,5.3196,5.3196,5.3196,5.3196,5.3196,5.3196,5.3196,5.3196,5.3196,5.3196,5.3196,5.3196,5.3196,5.3196,4.0648,4.0466,4.058,4.1434,0.0,0.0,0.0,0.0,0.0,4.5115,4.5208,4.5254,4.5297,4.5302,0.0,0.0,4.5302,4.5302,0.0,0.0,4.5531,0.0,0.0,0.0,0.0,0.0,0.0,0.0,0.0,0.0,0.0,0.0,0.0,0.0,0.0,4.8616,4.8603,0.0,4.9778,4.9961,5.0038,5.0025,4.9968,5.0,4.9771,4.9371,4.878,4.8523,4.8448,4.8448,4.8373,0.0,4.8296,0.0,0.0,0.0,0.0,0.0,4.8296,0.0,0.0,0.0,0.0,0.0,0.0,0.0,0.0,0.0,0.0,0.0,0.0,0.0,0.0,0.0,0.0,4.8223,0.0,0.0,0.0,0.0,0.0,0.0,0.0,0.0,0.0,5.1675,5.2417,5.2865,5.2865,5.3086,5.3196,5.3196,5.3196,5.3196,5.3196,5.3196,5.3196,5.3196,5.3196,5.3196,5.3196,5.3196,5.3196,5.3196,5.3196,5.3196,5.3196,5.3196,5.3196,5.3196,5.3196,5.3196,5.3196,5.3196,5.3196,5.3196,4.2514,4.1892,4.1606,4.24,4.2558,0.0,0.0,0.0,0.0,0.0,0.0,0.0,0.0,0.0,0.0,0.0,0.0,4.5302,4.5302,0.0,4.6118,0.0,0.0,4.7316,0.0,0.0,0.0,0.0,0.0,0.0,0.0,0.0,0.0,0.0,4.9392,4.9641,4.9506,5.012,5.0261,5.012,5.0376,5.0432,5.0294,0.0,4.952,4.9737,4.9382,0.0,0.0,4.879,4.8578,0.0,0.0,0.0,0.0,0.0,0.0,0.0,0.0,0.0,0.0,4.8296,0.0,0.0,0.0,0.0,4.8296,0.0,0.0,0.0,0.0,0.0,0.0,0.0,0.0,0.0,0.0,0.0,0.0,0.0,0.0,0.0,0.0,0.0,0.0,5.0839,5.1573,5.2042,5.2042,5.2784,5.3196,5.3196,5.3196,5.3196,5.3196,5.3196,5.3196,5.3196,5.3196,5.3196,5.3196,5.3196,5.3196,5.3196,5.3196,5.3196,5.3196,5.3196,5.3196,5.3196,5.3196,5.3196,5.3196,5.3196,5.3196,5.3196,4.342,4.3311,4.3195,4.3431,4.3466,4.377,0.0,4.5069,0.0,0.0,4.5291,0.0,0.0,4.5774,4.6099,0.0,0.0,4.671,4.6137,4.6896,0.0,0.0,0.0,4.766,0.0,0.0,0.0,0.0,0.0,0.0,0.0,0.0,0.0,0.0,0.0,4.9792,0.0,0.0,0.0,0.0,0.0,4.9822,5.0151,0.0,0.0,4.975,4.9431,4.924,0.0,4.9137,4.9056,4.8915,4.8702,4.8632,4.8586,4.8382,4.8296,0.0,0.0,0.0,4.8296,4.8296,0.0,0.0,0.0,0.0,0.0,0.0,0.0,0.0,0.0,0.0,0.0,0.0,0.0,0.0,0.0,0.0,0.0,0.0,0.0,0.0,0.0,0.0,0.0,5.0004,5.0747,5.1444,5.1969,5.2252,5.2656,5.3177,5.3196,5.3196,5.3196,5.3196,5.3196,5.3196,5.3196,5.3196,5.3196,5.3196,5.3196,5.3196,5.3196,5.3196,5.3196,5.3196,5.3196,5.3196,5.3196,5.3196,5.3196,5.3196,5.3196,5.3196,4.435,4.4451,4.4449,4.4405,4.4407,4.4591,0.0,0.0,0.0,0.0,4.555,0.0,4.5741,0.0,4.6953,0.0,4.7488,4.7564,4.6991,4.7775,0.0,4.6991,4.808,0.0,0.0,0.0,0.0,0.0,0.0,4.9786,0.0,0.0,0.0,0.0,0.0,4.9865,4.9664,5.0099,5.0,0.0,0.0,4.9705,0.0,0.0,4.9824,4.9955,0.0,4.9599,4.9483,4.9483,4.9409,4.9229,4.8908,4.8807,4.8729,4.8402,4.8296,4.8296,4.8296,4.8296,0.0,4.8296,4.8296,0.0,4.8296,0.0,0.0,0.0,0.0,0.0,0.0,0.0,0.0,0.0,0.0,0.0,0.0,4.8296,0.0,0.0,0.0,0.0,0.0,0.0,4.9142,4.9142,4.9913,5.061,0.0,0.0,5.2234,5.2755,5.3049,5.3196,5.3196,5.3196,5.3196,5.3196,5.3196,5.3196,5.3196,5.3196,5.3196,5.3196,5.3196,5.3196,5.3196,5.3196,5.3196,5.3196,5.3196,5.3196,5.3196,5.3196,5.3196,5.3196,4.5302,4.5302,4.5302,4.5302,4.5302,0.0,0.0,0.0,4.5302,0.0,4.6003,4.6495,4.6495,4.7316,4.787,4.787,4.7908,4.7908,4.787,4.8684,0.0,0.0,4.9448,4.9954,4.9188,0.0,0.0,0.0,0.0,0.0,0.0,0.0,0.0,0.0,5.0142,0.0,4.9747,5.0323,5.0088,4.938,4.9576,5.0019,5.0478,4.9843,4.9895,5.0296,5.0367,5.015,4.983,4.983,4.9606,4.9294,4.8942,4.8815,4.8755,4.8402,4.8296,4.8296,4.8296,4.8296,4.8296,4.8296,0.0,0.0,0.0,0.0,4.8296,0.0,0.0,0.0,0.0,0.0,0.0,0.0,0.0,0.0,0.0,0.0,0.0,0.0,0.0,0.0,0.0,4.8296,4.8296,4.8296,4.9068,4.9545,0.0,0.0,5.1914,5.2005,5.2747,5.3159,5.3196,5.3196,5.3196,5.3196,5.3196,5.3196,5.3196,5.3196,5.3196,5.3196,5.3196,5.3196,5.3196,5.3196,5.3196,5.3196,5.3196,5.3196,5.3196,5.3196,5.3196,5.3196,4.5302,4.5302,4.5302,0.0,4.5302,4.5302,0.0,0.0,0.0,0.0,4.6003,4.6495,4.6495,4.7857,4.8779,4.8779,4.9308,0.0,0.0,0.0,0.0,4.8872,4.9868,5.0347,5.0153,5.0284,0.0,5.0401,0.0,0.0,5.0302,0.0,0.0,0.0,0.0,5.0197,4.9783,4.9929,4.9622,4.9035,4.9084,4.9315,0.0,0.0,4.9922,5.0151,5.012,5.0157,5.0242,5.0181,5.01,4.9942,4.9363,4.9177,4.9056,4.8477,4.8296,4.8296,4.8296,4.8296,4.8296,4.8296,4.8296,4.8296,0.0,0.0,0.0,0.0,0.0,0.0,0.0,0.0,0.0,0.0,0.0,0.0,0.0,0.0,0.0,4.8296,0.0,0.0,4.8296,4.8296,4.8296,4.8296,4.8508,4.8921,0.0,0.0,0.0,5.1969,5.2207,5.2601,5.3196,5.3196,5.3196,5.3196,5.3196,5.3196,5.3196,5.3196,5.3196,5.3196,5.3196,5.3196,5.3196,5.3196,5.3196,5.3196,5.3196,5.3196,5.3196,5.3196,5.3196,5.3196,4.5302,4.5302,4.5416,4.5755,0.0,0.0,4.5812,4.5812,0.0,4.6347,4.7114,0.0,4.7646,4.8879,4.9718,4.9718,5.0139,0.0,4.9743,0.0,0.0,4.9796,5.0237,5.0516,5.0537,5.0478,0.0,5.0484,0.0,0.0,5.0382,0.0,0.0,0.0,0.0,5.0327,4.9771,4.9521,4.9355,4.9273,4.9018,0.0,0.0,4.9648,4.9935,5.0337,5.0126,5.0206,5.0401,5.0367,5.0319,5.0212,4.9688,4.9424,4.9209,4.8667,4.842,4.8296,4.8296,4.8296,4.8296,4.8296,4.8296,4.8296,4.8296,4.8296,4.8296,0.0,0.0,0.0,0.0,0.0,0.0,0.0,0.0,0.0,0.0,0.0,0.0,0.0,4.8296,0.0,4.8296,4.8296,4.8296,4.8296,4.8296,4.8508,0.0,0.0,0.0,5.0922,5.1638,5.2226,5.2674,5.3012,5.3196,5.3196,5.3196,5.3196,5.3196,5.3196,5.3196,5.3196,5.3196,5.3196,5.3196,5.3196,5.3196,5.3196,5.3196,5.3196,5.3196,5.3196,5.3196,5.3196,4.5436,4.5455,0.0,0.0,0.0,0.0,0.0,4.6759,0.0,4.7709,0.0,4.916,4.9275,5.0109,5.0716,5.0831,0.0,5.0774,5.0689,5.0669,5.0631,5.0527,5.0527,5.0548,5.0608,5.0542,5.0537,0.0,0.0,0.0,0.0,0.0,0.0,5.0603,5.0614,5.0296,0.0,4.9188,4.9276,4.9707,4.9201,4.9465,5.0105,4.967,4.9987,5.058,5.0283,5.0293,5.0424,5.0418,5.0379,5.0248,4.9929,4.9599,4.9283,4.8908,4.8586,4.8363,4.8316,4.8296,4.8296,4.8296,4.8296,4.8296,4.8296,4.8296,4.8296,4.8296,4.8296,4.8296,0.0,0.0,0.0,0.0,0.0,0.0,0.0,0.0,0.0,0.0,0.0,0.0,0.0,0.0,4.8296,4.8296,4.8296,0.0,0.0,0.0,0.0,4.961,5.1051,0.0,5.2005,0.0,5.3196,5.3196,5.3196,5.3196,5.3196,5.3196,5.3196,5.3196,5.3196,5.3196,5.3196,5.3196,5.3196,5.3196,5.3196,5.3196,5.3196,5.3196,5.3196,5.3196,4.6156,4.629,0.0,0.0,0.0,4.7875,4.854,4.8086,4.7703,4.7856,4.8637,4.9459,5.0183,5.1037,5.1834,5.2494,5.2551,0.0,0.0,0.0,0.0,5.0697,5.0663,5.0663,5.0673,5.0618,5.0593,0.0,0.0,0.0,0.0,0.0,0.0,5.0593,5.0388,4.9981,4.9465,4.9349,0.0,4.9469,4.9605,4.9723,4.9878,5.0,5.0153,5.0306,5.0509,5.0579,5.0562,5.05,5.0446,5.0325,4.9993,4.9798,4.9584,4.8984,4.8755,4.8658,4.8373,4.8296,4.8296,4.8296,4.8296,4.8296,4.8296,4.8296,4.8296,4.8296,4.8296,4.8296,4.8296,0.0,0.0,0.0,0.0,0.0,0.0,0.0,0.0,0.0,0.0,4.8296,0.0,0.0,0.0,0.0,0.0,0.0,0.0,0.0,0.0,0.0,5.0518,0.0,0.0,0.0,5.3196,5.3196,5.3196,5.3196,5.3196,5.3196,5.3196,5.3196,5.3196,5.3196,5.3196,5.3196,5.3196,5.3196,5.3196,5.3196,5.3196,5.3196,5.3196,5.3196,4.7141,0.0,4.7496,0.0,0.0,0.0,0.0,4.9876,0.0,4.9917,5.0286,5.0879,5.1757,5.2244,5.2682,5.3061,5.3099,5.2943,5.2546,5.2527,5.2172,5.1356,5.1318,5.1125,5.0707,5.0663,5.0648,5.0648,0.0,0.0,0.0,0.0,0.0,5.0383,5.0105,4.9857,0.0,0.0,0.0,4.962,4.9749,4.9871,5.0012,5.0153,5.03,5.0483,5.0634,5.0673,5.0638,5.0563,5.0484,5.0365,5.0205,4.9993,4.9702,4.9209,4.8942,4.872,4.8392,4.8296,4.8296,4.8296,4.8296,4.8296,4.8296,4.8296,4.8296,4.8296,4.8296,4.8296,4.8296,4.8296,0.0,0.0,0.0,0.0,0.0,0.0,0.0,0.0,0.0,0.0,0.0,0.0,0.0,0.0,0.0,0.0,0.0,0.0,0.0,0.0,0.0,0.0,0.0,0.0,0.0,5.3196,5.3196,5.3196,5.3196,5.3196,5.3196,5.3196,5.3196,5.3196,5.3196,5.3196,5.3196,5.3196,5.3196,5.3196,5.3196,5.3196,5.3196,5.3196,4.8142,4.8181,0.0,0.0,4.9639,0.0,5.0675,5.1528,5.2024,5.1842,5.197,5.2429,5.3299,5.3446,5.3549,5.3722,5.3741,5.3664,5.3491,5.3491,5.3082,5.2217,5.2,5.1601,5.0976,5.0784,5.0707,0.0,0.0,0.0,0.0,0.0,0.0,0.0,0.0,0.0,0.0,0.0,4.9897,4.9884,4.9962,5.013,5.0319,5.0319,5.0478,5.0707,5.0707,5.0707,5.0683,5.0633,5.0521,5.0424,5.0424,5.0187,4.9844,4.9505,4.9224,4.8925,4.8523,4.8411,4.8383,4.8325,4.8296,4.8296,4.8296,4.8296,4.8296,4.8296,4.8296,4.8296,4.8296,4.8296,0.0,0.0,0.0,0.0,0.0,0.0,0.0,0.0,0.0,0.0,4.8296,0.0,0.0,0.0,0.0,0.0,0.0,0.0,0.0,0.0,0.0,4.9986,5.0802,0.0,5.2399,0.0,5.3196,5.3196,5.3196,5.3196,5.3196,5.3196,5.3196,5.3196,5.3196,5.3196,5.3196,5.3196,5.3196,5.3196,5.3196,5.3196,5.3196,5.3196,0.0,0.0,0.0,0.0,0.0,0.0,5.1673,5.2464,5.2749,5.1909,5.2546,5.3404,5.4274,5.4376,5.4664,5.5401,5.5478,5.5164,5.4434,5.4376,5.3991,5.3121,5.2313,5.1865,5.1793,5.1068,5.0707,0.0,0.0,0.0,0.0,0.0,0.0,0.0,0.0,0.0,0.0,5.0069,5.0165,5.0189,5.0488,5.0624,5.0658,5.0658,5.0673,5.0707,5.0707,5.0707,5.0707,5.0683,5.0608,5.0495,5.0495,5.0382,5.02,4.985,4.973,4.9575,4.8925,4.8755,4.8685,4.8373,4.8296,4.8296,4.8296,4.8296,4.8296,4.8296,4.8296,4.8296,4.8296,4.8296,4.8296,0.0,0.0,0.0,0.0,0.0,4.8296,4.8296,0.0,0.0,0.0,4.8296,0.0,0.0,4.8296,0.0,0.0,0.0,0.0,4.8296,0.0,4.9986,5.0802,5.1591,0.0,5.3196,5.3196,5.3196,5.3196,5.3196,5.3196,5.3196,5.3196,5.3196,5.3196,5.3196,5.3196,5.3196,5.3196,5.3196,5.3196,5.3196,5.3196,5.3196,0.0,0.0,0.0,0.0,0.0,0.0,0.0,5.3399,5.3851,5.3465,5.375,5.4299,5.5131,5.5228,5.5343,5.567,5.5708,5.5555,5.5247,5.5228,5.4857,5.401,5.3645,5.2967,5.1923,5.1582,5.1183,0.0,0.0,0.0,0.0,0.0,0.0,0.0,0.0,5.0031,5.0069,5.0358,5.0499,5.0504,5.0653,5.0707,5.0707,5.0707,5.0707,5.0707,5.0707,5.0707,5.0707,5.0707,5.0638,5.0567,5.0567,5.0468,5.0283,4.9968,4.9695,4.9401,4.8925,4.8658,4.8467,4.8335,4.8296,4.8296,4.8296,4.8296,4.8296,4.8296,4.8296,4.8296,4.8296,4.8296,4.8296,0.0,0.0,0.0,0.0,0.0,0.0,4.8296,0.0,4.8296,0.0,4.8296,4.8296,0.0,0.0,0.0,0.0,0.0,0.0,4.8296,0.0,4.9462,5.0802,5.1114,5.194,5.3196,5.3196,5.3196,5.3196,5.3196,5.3196,5.3196,5.3196,5.3196,5.3196,5.3196,5.3196,5.3196,5.3196,5.3196,5.3196,5.3196,5.3196,5.3196,5.0988,0.0,5.2233,0.0,5.3005,5.3587,5.3587,5.4318,5.4857,5.4857,5.4857,5.5068,5.5651,5.5708,5.5708,5.5708,5.5708,5.5708,5.5708,5.5708,5.5458,5.4876,5.4626,0.0,5.2697,5.2159,5.162,5.1048,5.0587,0.0,0.0,0.0,0.0,0.0,5.0201,5.0241,5.0364,5.0604,5.0707,5.0707,5.0707,5.0707,5.0707,5.0707,5.0707,5.0707,5.0707,5.0707,5.0707,5.0707,5.0663,5.0623,5.0603,5.0516,5.0382,5.0149,4.9798,4.9397,4.9064,4.872,4.843,4.8325,4.8296,4.8296,4.8296,4.8296,4.8296,4.8296,4.8296,4.8296,4.8296,4.8296,4.8296,4.8296,0.0,0.0,0.0,0.0,0.0,0.0,4.8296,4.8296,4.8296,4.8296,4.8296,0.0,0.0,0.0,0.0,0.0,0.0,0.0,0.0,0.0,0.0,5.0674,5.1499,5.2858,5.3086,5.3196,5.3196,5.3196,5.3196,5.3196,5.3196,5.3196,5.3196,5.3196,5.3196,5.3196,5.3196,5.3196,5.3196,5.3196,5.3196,5.3196,5.1885,5.2582,5.3178,5.3178,5.3914,5.4472,5.4472,5.517,5.5689,5.5689,5.5689,5.5689,5.5708,5.5708,5.5708,5.5708,5.5708,5.5708,5.5708,5.5708,5.5708,0.0,0.0,5.4491,5.4472,5.2774,5.1904,5.1885,0.0,0.0,5.0195,0.0,4.9955,5.0201,5.0201,5.0375,5.0688,5.0707,5.0707,5.0707,5.0707,5.0707,5.0707,5.0707,5.0707,5.0707,5.0707,5.0707,5.0707,5.0707,5.0707,5.0697,5.0618,5.0542,5.05,5.05,5.0203,4.9818,4.9479,4.9105,4.8711,4.8383,4.8296,4.8296,4.8296,4.8296,4.8296,4.8296,4.8296,4.8296,4.8296,4.8296,4.8296,4.8296,0.0,0.0,0.0,0.0,0.0,0.0,4.8296,4.8296,4.8296,4.8296,0.0,0.0,0.0,0.0,0.0,0.0,0.0,4.8296,4.8296,0.0,4.961,5.0398,5.1206,5.2024,5.2821,5.3196,5.3196,5.3196,5.3196,5.3196,5.3196,5.3196,5.3196,5.3196,5.3196,5.3196,5.3196,5.3196,5.3196,5.3196,5.3196,5.3196,5.2794,5.3491,5.4087,5.4087,5.4761,5.5324,5.5324,5.5535,5.5708,5.5708,5.5708,5.5708,5.5708,5.5708,5.5708,0.0,5.5708,5.5708,0.0,5.5708,5.5708,5.5708,5.5458,5.5049,5.4511,5.3953,5.3371,5.2794,0.0,0.0,0.0,5.0098,5.0237,5.0544,5.0544,5.0604,5.0707,5.0707,5.0707,5.0707,5.0707,5.0707,5.0707,5.0707,5.0707,5.0707,5.0707,5.0707,5.0707,5.0707,5.0707,5.0658,5.0405,5.0291,5.0225,5.0225,4.9818,4.9313,4.9174,4.8879,4.8541,4.8354,4.8296,4.8296,4.8296,4.8296,4.8296,4.8296,4.8296,4.8296,4.8296,4.8296,4.8296,4.8296,4.8296,0.0,0.0,0.0,0.0,0.0,4.8296,4.8296,0.0,4.8296,0.0,0.0,0.0,0.0,0.0,0.0,0.0,0.0,4.8296,0.0,4.9592,5.0398,5.1206,5.2005,5.2821,5.3196,5.3196,5.3196,5.3196,5.3196,5.3196,5.3196,5.3196,5.3196,5.3196,5.3196,5.3196,5.3196,5.3196,5.3196,5.3196,5.3196,5.3683,5.4376,5.4953,5.4953,5.5381,5.5708,5.5708,5.5708,5.5708,5.5708,5.5708,5.5708,5.5708,5.5708,0.0,5.5708,5.5708,5.5708,5.5708,5.5708,5.5708,5.5708,5.5708,5.5458,5.4953,0.0,0.0,5.3683,5.2642,5.1861,5.1319,5.0988,5.0954,5.1144,5.0822,5.0624,5.0504,5.0504,5.0504,5.0499,5.0394,5.0507,5.0673,5.0446,5.0416,5.0493,5.0394,5.0361,5.0372,5.0478,5.0451,5.033,5.0224,5.0025,4.9864,4.9955,4.9577,4.9118,4.9096,4.8793,4.8476,4.8409,4.8343,4.8296,4.8296,4.8296,4.8296,4.8296,4.8296,4.8296,4.8296,4.8296,4.8296,4.8296,4.8296,4.8296,4.8296,0.0,0.0,0.0,0.0,0.0,0.0,4.8296,4.8296,0.0,0.0,0.0,0.0,0.0,0.0,4.8296,4.8296,0.0,4.9105,5.0233,5.1041,5.1555,5.2664,5.3196,5.3196,5.3196,5.3196,5.3196,5.3196,5.3196,5.3196,5.3196,5.3196,5.3196,5.3196,5.3196,5.3196,5.3196,5.3196,5.3196,5.4587,5.5189,0.0,0.0,5.5708,0.0,5.5708,5.5708,5.5708,5.5708,5.5708,5.5708,5.5708,5.5708,5.5708,5.5708,0.0,0.0,0.0,5.5708,5.5708,5.5708,5.5708,5.5708,5.5708,5.4972,5.4549,5.4491,5.3683,5.3255,5.3178,5.237,5.1981,5.1962,5.1202,5.0701,5.0372,5.0372,5.0361,5.0319,5.0081,5.0264,5.0655,5.0101,5.0,5.0141,4.9884,4.981,4.9844,5.0093,5.0019,4.985,5.0062,4.9797,4.945,4.9693,4.9487,4.9182,4.9174,4.8844,4.8522,4.8522,4.841,4.8325,4.8325,4.8316,4.8306,4.8306,4.8306,4.8296,4.8296,4.8296,4.8296,4.8296,4.8296,4.8296,4.8296,0.0,0.0,0.0,0.0,0.0,0.0,4.8296,4.8296,0.0,0.0,0.0,0.0,0.0,4.8296,4.8296,4.8296,4.8333,4.8388,4.9994,5.0857,5.0986,5.248,5.3196,5.3196,5.3196,5.3196,5.3196,5.3196,5.3196,5.3196,5.3196,5.3196,5.3196,5.3196,5.3196,5.3196,5.3196,5.3196,5.3196,0.0,0.0,5.5708,5.5708,5.5708,5.5708,5.5708,5.5708,5.5708,5.5708,5.5708,5.5708,5.5708,5.5708,5.5708,5.5708,5.5708,5.5708,5.5708,5.5708,5.5708,5.5708,5.5708,5.5708,5.5708,5.5516,5.5131,5.4491,5.428,5.3857,5.3197,5.2986,5.289,5.287,5.2683,5.2417,5.2118,5.2118,5.1955,5.1723,5.1654,5.1356,5.0906,5.0773,5.0368,4.9897,4.9811,4.981,4.9817,4.9865,4.9845,4.9783,4.9627,4.9491,4.9404,4.948,4.9255,4.8968,4.8907,4.8804,4.8706,4.8596,4.856,4.8523,4.8523,4.8495,4.8457,4.8457,4.8372,4.8296,4.8296,4.8296,4.8296,4.8296,4.8296,4.8296,4.8296,4.8296,0.0,0.0,4.8296,4.8296,4.8296,4.8296,4.8296,0.0,0.0,0.0,0.0,4.8296,4.8296,4.8296,4.8296,4.8618,4.9288,5.0288,5.1426,5.2645,5.3012,5.3196,5.3196,5.3196,5.3196,5.3196,5.3196,5.3196,5.3196,5.3196,5.3196,5.3196,5.3196,5.3196,5.3196,5.3196,5.3196,5.3196,5.5708,5.5708,5.5708,5.5708,5.5708,5.5708,5.5708,5.5708,5.5708,5.5708,5.5708,5.5708,5.5708,5.5708,5.5708,5.5708,5.5708,5.5708,5.5708,5.5708,5.5708,5.5708,5.5708,5.5708,5.5708,5.5708,5.5497,5.5054,5.5054,5.4799,5.4337,5.3972,5.3799,5.3774,5.3221,5.2802,5.2505,5.2344,5.2173,5.202,5.1871,5.1714,5.1521,5.1284,5.0997,5.0689,5.059,5.0272,4.9965,5.0108,4.9819,4.9397,4.9396,4.9278,4.9176,4.9176,4.9035,4.8891,4.8866,4.8822,4.8778,4.8623,4.8596,4.8596,4.8596,4.8569,4.8541,4.8541,4.8457,4.8382,4.8382,4.8343,4.8296,4.8296,4.8296,4.8296,4.8296,4.8296,0.0,4.8296,4.8296,4.8296,4.8296,4.8363,4.8382,4.8382,0.0,0.0,4.8391,4.8382,4.8363,4.8296,4.8691,4.9123,4.961,5.0757,5.1977,5.3196,5.3196,5.3196,5.3196,5.3196,5.3196,5.3196,5.3196,5.3196,5.3196,5.3196,5.3196,5.3196,5.3196,5.3196,5.3196,5.3196,5.3196,5.3196,5.5719,5.5714,5.5708,5.5708,5.5708,5.5708,5.5708,5.5708,5.5708,5.5708,5.5708,5.5708,5.5708,5.5708,5.5708,5.5708,5.5708,5.5708,5.5708,5.5708,5.5708,5.5708,5.5708,5.5708,5.5708,5.5708,5.5708,5.5708,5.5708,5.5708,5.5689,5.4991,5.4684,5.4635,5.3563,5.2932,5.2651,5.2314,5.2146,5.209,5.185,5.1964,5.2213,5.1741,5.1642,5.1707,5.1487,5.0915,5.0346,5.0628,4.9994,4.9128,4.9428,4.9229,4.8909,4.8909,4.8909,4.8909,4.8909,4.8848,4.8796,4.8678,4.866,4.866,4.866,4.8651,4.8642,4.8642,4.8569,4.8513,4.8513,4.841,4.8325,4.8325,4.8306,4.8296,4.8296,0.0,4.8296,4.8296,4.8316,4.8325,4.8325,4.8429,4.8513,4.8513,4.856,4.8633,0.0,4.8716,4.8705,4.8692,4.928,4.9721,4.9959,5.1436,5.2527,5.3196,5.3196,5.3196,5.3196,5.3196,5.3196,5.3196,5.3196,5.3196,5.3196,5.3196,5.3196,5.3196,5.3196,5.3196,5.3196,5.3196,5.3196,5.3196,5.5782,5.574,5.5708,5.5708,5.5708,5.5708,5.5708,5.5708,5.5708,5.5708,5.5708,5.5708,5.5708,5.5708,5.5708,5.5708,5.5708,5.5708,5.5708,5.5708,5.5708,5.5708,5.5708,5.5708,5.5708,5.5708,5.5708,5.5708,5.5708,5.5708,5.5708,5.5574,5.5516,5.5505,5.5088,5.471,5.4398,5.4043,5.3741,5.3498,5.3441,5.3079,5.2538,5.2438,5.2029,5.1452,5.1416,5.1305,5.1203,5.1257,5.0662,4.9912,4.9973,4.9491,4.8909,4.8909,4.8909,4.8909,4.8909,4.8891,4.8883,4.8865,4.8847,4.8847,4.8847,4.8804,4.8778,4.8778,4.8678,4.8569,4.8569,4.8523,4.8466,4.8466,4.8372,4.8296,4.8296,0.0,4.8296,4.8296,4.8391,4.8466,4.8466,4.8541,4.8569,4.8569,4.8587,4.8929,4.964,4.9677,4.9934,5.0491,4.9907,5.0253,5.162,5.2546,5.3086,5.3196,5.3196,5.3196,5.3196,5.3196,5.3196,5.3196,5.3196,5.3196,5.3196,5.3196,5.3196,5.3196,5.3196,5.3196,5.3196,5.3196,5.3196,5.3196,5.5846,5.5806,5.5756,5.5756,5.573,5.5708,5.5708,5.5708,5.5708,5.5708,5.5708,5.5708,5.5708,5.5708,5.5708,5.5708,5.5708,5.5708,5.5708,5.5708,5.5708,5.5708,5.5708,5.5708,5.5708,5.5708,5.5708,5.5708,5.5708,5.5708,5.5708,5.5708,5.5618,5.5467,5.5171,5.4843,5.4511,5.4168,5.3935,5.3803,5.3803,5.358,5.3246,5.3246,5.3032,5.2698,5.2698,5.2419,5.2048,5.2048,5.1491,5.0803,5.0803,5.0543,5.0153,4.968,4.9243,4.8909,4.8909,4.8909,4.8909,4.8909,4.8909,4.8909,4.8909,4.8874,4.8848,4.8848,4.8777,4.8715,4.8715,4.8624,4.856,4.856,4.8504,0.0,0.0,4.8401,4.8401,4.8401,4.8457,4.8513,4.855,4.8651,4.8715,4.8715,4.9185,4.9602,4.9945,5.0361,5.0887,5.1534,5.113,5.1455,5.2637,5.3012,5.3196,5.3196,5.3196,5.3196,5.3196,5.3196,5.3196,5.3196,5.3196,5.3196,5.3196,5.3196,5.3196,5.3196,5.3196,5.3196,5.3196,5.3196,5.3196,5.3196,5.5914,5.588,5.5826,5.5797,5.5756,5.5724,5.5708,5.5708,5.5708,5.5708,5.5708,5.5708,5.5708,5.5708,5.5708,5.5708,5.5708,5.5708,5.5708,5.5708,5.5708,5.5708,5.5708,5.5708,5.5708,5.5708,5.5708,5.5708,5.5708,5.5708,5.5708,5.5708,5.559,5.5376,5.4974,5.4662,5.438,5.3981,5.3803,5.3803,5.3803,5.3803,5.3803,5.3803,5.3803,5.3803,5.3803,5.3394,5.2884,5.2884,5.2345,5.1676,5.1676,5.1546,5.1268,5.0599,4.9959,4.941,4.902,4.8909,4.8909,4.8909,4.8909,4.8909,4.8909,4.8909,4.8909,4.8909,4.8856,4.8822,4.8822,4.8732,4.8651,4.8651,0.0,0.0,0.0,4.8522,4.8522,4.8522,4.8541,4.8597,4.8642,4.8917,4.91,4.91,4.9969,5.0516,5.0592,5.1195,5.1795,5.2403,5.2334,5.2582,5.3196,5.3196,5.3196,5.3196,5.3196,5.3196,5.3196,5.3196,5.3196,5.3196,5.3196,5.3196,5.3196,5.3196,5.3196,5.3196,5.3196,5.3196,5.3196,5.3196,5.3196,5.3196,5.599,5.5948,5.5861,5.5821,5.5811,5.5771,5.5714,5.5708,5.5708,5.5708,5.5708,5.5708,5.5708,5.5708,5.5708,5.5708,5.5708,5.5708,5.5708,5.5708,5.5708,5.5708,5.5708,5.5708,5.5708,5.5708,5.5708,5.5708,5.5708,5.5708,5.5708,5.5708,5.5698,5.564,5.5064,5.4784,5.4723,5.4072,5.3803,5.3803,5.3803,5.3803,5.3803,5.3803,5.3803,5.3803,5.3803,5.3766,5.371,5.371,5.3181,5.2512,5.2512,5.1992,5.1398,5.1323,5.1268,5.0878,4.9317,4.8909,4.8909,4.8909,4.8909,4.8909,4.8909,4.8909,4.8909,4.8909,4.89,4.8891,4.8891,4.8821,4.8787,4.8787,0.0,0.0,4.8587,4.8587,4.8587,4.8587,4.8697,4.8778,4.8787,4.9516,5.0005,5.0005,5.0813,5.1639,5.2373,5.2466,5.278,5.337,5.3201,5.3141,5.3196,5.3196,5.3196,5.3196,5.3196,5.3196,5.3196,5.3196,5.3196,5.3196,5.3196,5.3196,5.3196,5.3196,5.3196,5.3196,5.3196,5.3196,5.3196,5.3196,5.3196,5.3196,5.6001,5.598,5.5933,5.5861,5.5831,5.5771,5.5714,5.5708,5.5708,5.5708,5.5708,5.5708,5.5708,5.5708,5.5708,5.5708,5.5708,5.5708,5.5708,5.5708,5.5708,5.5708,5.5708,5.5708,5.5708,5.5708,5.5708,5.5708,5.5708,5.5708,5.5708,5.5708,5.5613,5.5431,5.4995,5.4685,5.4463,5.4009,5.3803,5.3803,5.3803,5.3803,5.3803,5.3803,5.3803,5.3803,5.3803,5.3803,5.3803,5.3803,5.3608,5.3339,5.3339,5.3134,5.2791,5.2289,5.1788,5.1268,5.0618,5.0098,4.9577,4.9039,4.8909,4.8909,4.8909,4.8909,4.8909,4.8909,4.8909,4.8909,4.8909,4.8883,4.8856,4.8856,0.0,4.8767,4.8732,4.8723,4.8723,4.8723,4.9222,4.9555,4.959,5.0386,5.0915,5.0915,5.1676,5.2289,5.2587,5.3022,5.3352,5.3491,5.3347,5.3251,5.3196,5.3196,5.3196,5.3196,5.3196,5.3196,5.3196,5.3196,5.3196,5.3196,5.3196,5.3196,5.3196,5.3196,5.3196,5.3196,5.3196,5.3196,5.3196,5.3196,5.3196,5.3196,5.6008,5.6001,5.5984,5.5933,5.5885,5.5816,5.574,5.5719,5.5708,5.5708,5.5708,5.5708,5.5708,5.5708,5.5708,5.5708,5.5708,5.5708,5.5708,5.5708,5.5708,5.5708,5.5708,5.5708,5.5708,5.5708,5.5708,5.5708,5.5708,5.5708,5.5708,5.5708,5.5602,5.5407,5.4988,5.467,5.443,5.399,5.3803,5.3803,5.3803,5.3803,5.3803,5.3803,5.3803,5.3803,5.3803,5.3803,5.3803,5.3803,5.3803,5.3803,5.3803,5.3803,5.3701,5.3144,5.2587,5.2104,5.1844,5.1361,5.0748,4.9893,4.9485,4.9271,4.9271,4.9076,4.8909,4.8909,4.8909,4.8909,4.8909,4.8909,4.8909,4.8909,4.8909,4.8883,4.884,4.884,4.8924,4.9192,4.9711,5.0156,5.0479,5.1286,5.1788,5.1788,5.2512,5.2977,5.2977,5.34,5.3598,5.3509,5.3357,5.3251,5.3196,5.3196,5.3196,5.3196,5.3196,5.3196,5.3196,5.3196,5.3196,5.3196,5.3196,5.3196,5.3196,5.3196,5.3196,5.3196,5.3196,5.3196,5.3196,5.3196,5.3196,5.3196,5.6008,5.6008,5.5995,5.6004,5.5933,5.5885,5.5821,5.5745,5.5708,5.5708,5.5708,5.5708,5.5708,5.5708,5.5708,5.5708,5.5708,5.5708,5.5708,5.5708,5.5708,5.5708,5.5708,5.5708,5.5708,5.5708,5.5708,5.5708,5.5708,5.5708,5.5708,5.5708,5.5708,5.5668,5.5078,5.4799,5.4754,5.4089,5.3803,5.3803,5.3803,5.3803,5.3803,5.3803,5.3803,5.3803,5.3803,5.3803,5.3803,5.3803,5.3803,5.3803,5.3803,5.3803,5.3803,5.3803,5.3803,5.3627,5.2828,5.2605,5.2419,5.1602,5.0748,5.0107,5.0107,4.9494,4.8919,4.8909,4.8909,4.8909,4.8909,4.8909,4.8909,4.8909,4.8909,4.8909,4.8909,4.8909,4.9206,5.0014,5.0116,5.0469,5.1323,5.2141,5.2605,5.2605,5.3348,5.3803,5.3803,5.3619,5.3509,5.3509,5.3322,5.3196,5.3196,5.3196,5.3196,5.3196,5.3196,5.3196,5.3196,5.3196,5.3196,5.3196,5.3196,5.3196,5.3196,5.3196,5.3196,5.3196,5.3196,5.3196,5.3196,5.3196,5.3196,5.3196,5.6008,5.6008,5.5995,5.6004,5.5981,5.5924,5.5826,5.5776,5.5751,5.5714,5.5708,5.5708,5.5708,5.5708,5.5708,5.5708,5.5708,5.5708,5.5708,5.5708,5.5708,5.5708,5.5708,5.5708,5.5708,5.5708,5.5708,5.5708,5.5708,5.5708,5.5708,5.5708,5.5708,5.5668,5.5078,5.4799,5.4754,5.4089,5.3803,5.3803,5.3803,5.3803,5.3803,5.3803,5.3803,5.3803,5.3803,5.3803,5.3803,5.3803,5.3803,5.3803,5.3803,5.3803,5.3803,5.3803,5.3803,5.3757,5.3515,5.3432,5.3107,5.1732,5.1193,5.1008,5.1008,5.0822,5.0488,4.9866,4.9736,4.9577,4.9002,4.8909,4.8909,4.8909,4.8909,4.9104,4.967,4.9736,5.006,5.0915,5.1509,5.1955,5.2215,5.2977,5.3432,5.3432,5.3664,5.3803,5.3803,5.3696,5.3598,5.3509,5.3339,5.3261,5.3196,5.3196,5.3196,5.3196,5.3196,5.3196,5.3196,5.3196,5.3196,5.3196,5.3196,5.3196,5.3196,5.3196,5.3196,5.3196,5.3196,5.3196,5.3196,5.3196,5.3196,5.3196,5.6008,5.6008,5.5999,5.6007,5.6008,5.5967,5.5851,5.5821,5.5771,5.5714,5.5708,5.5708,5.5708,5.5708,5.5708,5.5708,5.5708,5.5708,5.5708,5.5708,5.5708,5.5708,5.5708,5.5708,5.5708,5.5708,5.5708,5.5708,5.5708,5.5708,5.5708,5.5708,5.5708,5.5668,5.5078,5.4799,5.4754,5.4089,5.3803,5.3803,5.3803,5.3803,5.3803,5.3803,5.3803,5.3803,5.3803,5.3803,5.3803,5.3803,5.3803,5.3803,5.3803,5.3803,5.3803,5.3803,5.3803,5.3803,5.3803,5.3803,5.3571,5.2587,5.2104,5.1881,5.1881,5.1639,5.1249,5.0729,5.0609,5.0469,4.9986,4.9893,4.9893,4.9893,4.9893,5.006,5.0553,5.0609,5.0933,5.1769,5.2308,5.2735,5.3042,5.3515,5.3803,5.3803,5.3803,5.3803,5.3803,5.3686,5.3588,5.3509,5.3347,5.3241,5.3196,5.3196,5.3196,5.3196,5.3196,5.3196,5.3196,5.3196,5.3196,5.3196,5.3196,5.3196,5.3196,5.3196,5.3196,5.3196,5.3196,5.3196,5.3196,5.3196,5.3196,5.3196,5.6008,5.6008,5.6008,5.6008,5.5992,5.5985,5.5914,5.5846,5.5776,5.5724,5.5689,5.5708,5.5708,5.5708,5.5708,5.5708,5.5708,5.5708,5.5708,5.5708,5.5708,5.5708,5.5708,5.5708,5.5708,5.5708,5.5708,5.5708,5.5708,5.5708,5.5708,5.5708,5.5708,5.5668,5.5105,5.4829,5.4754,5.4125,5.3841,5.3803,5.3803,5.3803,5.3803,5.3803,5.3803,5.3803,5.3803,5.3803,5.3803,5.3803,5.3803,5.3803,5.3803,5.3803,5.3803,5.3803,5.3803,5.3803,5.3803,5.3803,5.3803,5.3803,5.3246,5.2717,5.2717,5.2141,5.1584,5.1528,5.1509,5.1491,5.1416,5.1398,5.1398,5.1398,5.1398,5.1435,5.1491,5.1509,5.1806,5.2605,5.2717,5.2995,5.3729,5.3803,5.3803,5.3803,5.3803,5.3803,5.3803,5.3619,5.3509,5.3509,5.3303,5.3196,5.3196,5.3196,5.3196,5.3196,5.3196,5.3196,5.3196,5.3196,5.3196,5.3196,5.3196,5.3196,5.3196,5.3196,5.3196,5.3196,5.3196,5.3196,5.3196,5.3196,5.3196,5.3196,5.6008,5.6008,5.6008,5.6008,5.5999,5.5996,5.5985,5.5914,5.5846,5.5782,5.5735,5.5708,5.5708,5.5708,5.5708,5.5708,5.5708,5.5708,5.5708,5.5708,5.5708,5.5708,5.5708,5.5708,5.5708,5.5708,5.5708,5.5708,5.5708,5.5708,5.5708,5.5708,5.5708,5.5692,5.5332,5.5056,5.4769,5.4355,5.4035,5.3803,5.3803,5.3803,5.3803,5.3803,5.3803,5.3803,5.3803,5.3803,5.3803,5.3803,5.3803,5.3803,5.3803,5.3803,5.3803,5.3803,5.3803,5.3803,5.3803,5.3803,5.3803,5.3803,5.3673,5.3553,5.3553,5.3394,5.3097,5.2475,5.2345,5.2159,5.1528,5.1398,5.1398,5.1398,5.1398,5.1621,5.2252,5.2345,5.2642,5.3432,5.3553,5.3599,5.3775,5.3803,5.3803,5.3803,5.3803,5.3803,5.3803,5.3619,5.3509,5.3509,5.3303,5.3196,5.3196,5.3196,5.3196,5.3196,5.3196,5.3196,5.3196,5.3196,5.3196,5.3196,5.3196,5.3196,5.3196,5.3196,5.3196,5.3196,5.3196,5.3196,5.3196,5.3196,5.3196,5.3196,5.6008,5.6008,5.6008,5.6008,5.6008,5.599,5.6004,5.5971,5.5919,5.5851,5.5821,5.5771,5.5751,5.5751,5.5735,5.5708,5.5708,5.5708,5.5708,5.5708,5.5708,5.5708,5.5708,5.5708,5.5708,5.5708,5.5708,5.5708,5.5708,5.5708,5.5708,5.5708,5.5708,5.5698,5.5419,5.5198,5.5021,5.4511,5.4194,5.4017,5.386,5.3803,5.3803,5.3803,5.3803,5.3803,5.3803,5.3803,5.3803,5.3803,5.3803,5.3803,5.3803,5.3803,5.3803,5.3803,5.3803,5.3803,5.3803,5.3803,5.3803,5.3803,5.3803,5.3803,5.3803,5.3803,5.3673,5.3255,5.3181,5.3042,5.2624,5.2549,5.2549,5.2549,5.2549,5.2698,5.3107,5.3181,5.333,5.3757,5.3803,5.3803,5.3803,5.3803,5.3803,5.3803,5.3803,5.3803,5.3803,5.3619,5.3509,5.3509,5.3303,5.3196,5.3196,5.3196,5.3196,5.3196,5.3196,5.3196,5.3196,5.3196,5.3196,5.3196,5.3196,5.3196,5.3196,5.3196,5.3196,5.3196,5.3196,5.3196,5.3196,5.3196,5.3196,5.3196,5.6008,5.6008,5.6008,5.6008,5.6008,5.5995,5.5993,5.5999,5.5981,5.5919,5.5905,5.5861,5.5816,5.5787,5.5761,5.5689,5.5708,5.5708,5.5708,5.5708,5.5708,5.5708,5.5708,5.5708,5.5708,5.5708,5.5708,5.5708,5.5708,5.5708,5.5708,5.5708,5.5708,5.5698,5.5461,5.5339,5.5269,5.4716,5.4405,5.4281,5.4009,5.3851,5.3803,5.3803,5.3803,5.3803,5.3803,5.3803,5.3803,5.3803,5.3803,5.3803,5.3803,5.3803,5.3803,5.3803,5.3803,5.3803,5.3803,5.3803,5.3803,5.3803,5.3803,5.3803,5.3803,5.3803,5.3803,5.3803,5.3803,5.3803,5.3803,5.3803,5.3803,5.3803,5.3803,5.3803,5.3803,5.3803,5.3803,5.3803,5.3803,5.3803,5.3803,5.3803,5.3803,5.3803,5.3803,5.3803,5.3803,5.3619,5.3509,5.3509,5.3303,5.3196,5.3196,5.3196,5.3196,5.3196,5.3196,5.3196,5.3196,5.3196,5.3196,5.3196,5.3196,5.3196,5.3196,5.3196,5.3196,5.3196,5.3196,5.3196,5.3196,5.3196,5.3196,5.3196,5.6008,5.6008,5.6008,5.6008,5.6008,5.6008,5.5999,5.6002,5.5994,5.5985,5.5943,5.5861,5.5816,5.5751,5.5714,5.5708,5.5708,5.5708,5.5708,5.5708,5.5708,5.5708,5.5708,5.5708,5.5708,5.5708,5.5708,5.5708,5.5708,5.5708,5.5708,5.5708,5.5708,5.5703,5.5657,5.5527,5.5295,5.5198,5.4836,5.4298,5.4255,5.4054,5.3803,5.3803,5.3803,5.3803,5.3803,5.3803,5.3803,5.3803,5.3803,5.3803,5.3803,5.3803,5.3803,5.3803,5.3803,5.3803,5.3803,5.3803,5.3803,5.3803,5.3803,5.3803,5.3803,5.3803,5.3803,5.3803,5.3803,5.3803,5.3803,5.3803,5.3803,5.3803,5.3803,5.3803,5.3803,5.3803,5.3803,5.3803,5.3803,5.3803,5.3803,5.3803,5.3803,5.3803,5.3803,5.3803,5.3803,5.3619,5.3509,5.3509,5.3303,5.3196,5.3196,5.3196,5.3196,5.3196,5.3196,5.3196,5.3196,5.3196,5.3196,5.3196,5.3196,5.3196,5.3196,5.3196,5.3196,5.3196,5.3196,5.3196,5.3196,5.3196,5.3196,5.3196,5.6008,5.6008,5.6008,5.6008,5.6008,5.6008,5.6008,5.599,5.5996,5.5996,5.5979,5.5947,5.5919,5.5826,5.5756,5.5756,5.5724,5.5708,5.5708,5.5708,5.5708,5.5708,5.5708,5.5708,5.5708,5.5708,5.5708,5.5708,5.5708,5.5708,5.5708,5.5708,5.5708,5.5708,5.5708,5.5629,5.5502,5.5364,5.5016,5.4568,5.4372,5.4107,5.3803,5.3803,5.3803,5.3803,5.3803,5.3803,5.3803,5.3803,5.3803,5.3803,5.3803,5.3803,5.3803,5.3803,5.3803,5.3803,5.3803,5.3803,5.3803,5.3803,5.3803,5.3803,5.3803,5.3803,5.3803,5.3803,5.3803,5.3803,5.3803,5.3803,5.3803,5.3803,5.3803,5.3803,5.3803,5.3803,5.3803,5.3803,5.3803,5.3803,5.3803,5.3803,5.3803,5.3803,5.3803,5.3803,5.3803,5.3619,5.3509,5.3509,5.3303,5.3196,5.3196,5.3196,5.3196,5.3196,5.3196,5.3196,5.3196,5.3196,5.3196,5.3196,5.3196,5.3196,5.3196,5.3196,5.3196,5.3196,5.3196,5.3196,5.3196,5.3196,5.3196,5.3196]}]]